[[{"header":{"parameterUnit":"m.s-1","parameterCategory":1,"la1":31.0,"la2":29.5877,"lo1":-88.7671,"lo2":-86.6584,"dy":0.0162,"dx":0.0185,"nx":115,"ny":88,"refTime":"2024-06-02T18:00:00:Z","depth":0,"parameterNumber":2,"parameterNumberName":"U-component_of_WINDS"},"data":[0.0,0.0,0.0,0.0,0.0,0.0,0.0,0.0,0.0,0.0,0.0,0.0,0.0,0.0,0.0,0.0,0.0,0.0,0.0,0.0,0.0,0.0,0.0,0.0,0.0,0.0,0.0,0.0,0.0,0.0,0.0,0.0,0.0,0.0,0.0,0.0,0.0,0.0,0.0,0.0,0.0,0.0,0.0,0.0,0.0,0.0,0.0,0.0,0.0,0.0,0.0,0.0,0.0,0.0,0.0,0.0,0.0,0.0,0.0,0.0,0.0,0.0,0.0,0.0,0.0,0.0,0.0,0.0,0.0,0.0,0.0,0.0,0.0,0.0,0.0,0.0,0.0,0.0,0.0,0.0,0.0,0.0,0.0,0.0,0.0,0.0,0.0,0.0,0.0,0.0,0.0,0.0,0.0,0.0,0.0,0.0,0.0,0.0,0.0,0.0,0.0,0.0,0.0,0.0,0.0,0.0,0.0,0.0,0.0,0.0,0.0,0.0,0.0,0.0,0.0,0.0,0.0,0.0,0.0,0.0,0.0,0.0,0.0,0.0,0.0,0.0,0.0,0.0,0.0,0.0,0.0,0.0,0.0,0.0,0.0,0.0,0.0,0.0,0.0,0.0,0.0,0.0,0.0,0.0,0.0,0.0,0.0,0.0,0.0,0.0,0.0,0.0,0.0,0.0,0.0,0.0,0.0,0.0,0.0,0.0,0.0,0.0,0.0,0.0,0.0,0.0,0.0,0.0,0.0,0.0,0.0,0.0,0.0,0.0,0.0,0.0,0.0,0.0,0.0,0.0,0.0,0.0,0.0,0.0,0.0,0.0,0.0,0.0,0.0,0.0,0.0,0.0,0.0,0.0,0.0,0.0,0.0,0.0,0.0,0.0,0.0,0.0,0.0,0.0,0.0,0.0,0.0,0.0,0.0,0.0,0.0,0.0,0.0,0.0,0.0,0.0,0.0,0.0,0.0,0.0,0.0,0.0,0.0,0.0,0.0,0.0,0.0,0.0,0.0,0.0,0.0,0.0,0.0,0.0,0.0,0.0,0.0,0.0,0.0,0.0,0.0,0.0,0.0,0.0,0.0,0.0,0.0,0.0,0.0,0.0,0.0,0.0,0.0,0.0,0.0,0.0,0.0,0.0,0.0,0.0,0.0,0.0,0.0,0.0,0.0,0.0,0.0,0.0,0.0,0.0,0.0,0.0,0.0,0.0,0.0,0.0,0.0,0.0,0.0,0.0,0.0,0.0,0.0,0.0,0.0,0.0,0.0,0.0,0.0,0.0,0.0,0.0,0.0,0.0,0.0,0.0,0.0,0.0,0.0,0.0,0.0,0.0,0.0,0.0,0.0,0.0,0.0,0.0,0.0,0.0,0.0,0.0,0.0,0.0,0.0,0.0,0.0,0.0,0.0,0.0,0.0,0.0,0.0,0.0,0.0,0.0,0.0,0.0,0.0,0.0,0.0,0.0,0.0,0.0,0.0,0.0,0.0,0.0,0.0,0.0,0.0,0.0,0.0,0.0,0.0,0.0,0.0,0.0,0.0,0.0,0.0,0.0,0.0,0.0,0.0,0.0,0.0,0.0,0.0,0.0,0.0,0.0,0.0,0.0,0.0,0.0,0.0,0.0,0.0,0.0,0.0,0.0,0.0,0.0,0.0,0.0,0.0,0.0,0.0,0.0,0.0,0.0,0.0,0.0,0.0,0.0,0.0,0.0,0.0,0.0,0.0,0.0,0.0,0.0,0.0,0.0,0.0,0.0,0.0,0.0,0.0,0.0,0.0,0.0,0.0,0.0,0.0,0.0,0.0,0.0,0.0,0.0,0.0,0.0,0.0,0.0,0.0,0.0,0.0,0.0,0.0,0.0,0.0,0.0,0.0,0.0,0.0,0.0,0.0,0.0,0.0,0.0,0.0,0.0,0.0,0.0,0.0,0.0,0.0,0.0,0.0,0.0,0.0,0.0,0.0,0.0,0.0,0.0,0.0,0.0,0.0,0.0,0.0,0.0,0.0,0.0,0.0,0.0,0.0,0.0,0.0,0.0,0.0,0.0,0.0,0.0,0.0,0.0,0.0,0.0,0.0,0.0,0.0,0.0,0.0,0.0,0.0,0.0,0.0,0.0,0.0,0.0,0.0,0.0,0.0,0.0,0.0,0.0,0.0,0.0,0.0,0.0,0.0,0.0,0.0,0.0,0.0,0.0,0.0,0.0,0.0,0.0,0.0,0.0,0.0,0.0,0.0,0.0,0.0,0.0,0.0,0.0,0.0,0.0,0.0,0.0,0.0,0.0,0.0,0.0,0.0,0.0,0.0,0.0,0.0,0.0,0.0,0.0,0.0,0.0,0.0,0.0,0.0,0.0,0.0,0.0,0.0,0.0,0.0,0.0,0.0,0.0,0.0,0.0,0.0,0.0,0.0,0.0,0.0,0.0,0.0,0.0,0.0,0.0,0.0,0.0,0.0,0.0,0.0,0.0,0.0,0.0,0.0,0.0,0.0,0.0,0.0,0.0,0.0,0.0,0.0,0.0,0.0,0.0,0.0,0.0,0.0,0.0,0.0,0.0,0.0,0.0,0.0,0.0,0.0,0.0,0.0,0.0,0.0,0.0,0.0,0.0,0.0,0.0,0.0,0.0,0.0,0.0,0.0,0.0,0.0,0.0,0.0,0.0,0.0,0.0,0.0,0.0,0.0,0.0,0.0,0.0,0.0,0.0,0.0,0.0,0.0,0.0,0.0,0.0,0.0,0.0,0.0,0.0,0.0,0.0,0.0,0.0,0.0,0.0,0.0,0.0,0.0,0.0,0.0,0.0,0.0,0.0,0.0,0.0,0.0,0.0,0.0,0.0,0.0,0.0,0.0,0.0,0.0,0.0,0.0,0.0,0.0,0.0,0.0,0.0,0.0,0.0,0.0,0.0,0.0,0.0,0.0,0.0,0.0,0.0,0.0,0.0,0.0,0.0,0.0,0.0,0.0,0.0,0.0,0.0,0.0,0.0,0.0,0.0,0.0,0.0,0.0,0.0,0.0,0.0,0.0,0.0,0.0,0.0,0.0,0.0,0.0,0.0,0.0,0.0,0.0,0.0,0.0,0.0,0.0,0.0,0.0,0.0,0.0,0.0,0.0,0.0,0.0,0.0,0.0,0.0,0.0,0.0,0.0,0.0,0.0,0.0,0.0,0.0,0.0,0.0,0.0,0.0,0.0,0.0,0.0,0.0,0.0,0.0,0.0,0.0,0.0,0.0,0.0,0.0,0.0,0.0,0.0,0.0,0.0,0.0,0.0,0.0,0.0,0.0,0.0,0.0,0.0,0.0,0.0,0.0,0.0,0.0,0.0,0.0,0.0,0.0,0.0,0.0,0.0,0.0,0.0,0.0,0.0,0.0,0.0,0.0,0.0,0.0,0.0,0.0,0.0,0.0,0.0,0.0,0.0,0.0,0.0,0.0,0.0,0.0,0.0,0.0,0.0,0.0,0.0,0.0,0.0,0.0,0.0,0.0,0.0,0.0,0.0,0.0,0.0,0.0,0.0,0.0,0.0,0.0,0.0,0.0,0.0,0.0,0.0,0.0,0.0,0.0,0.0,0.0,0.0,0.0,0.0,0.0,0.0,0.0,0.0,0.0,0.0,0.0,0.0,0.0,0.0,0.0,0.0,0.0,0.0,0.0,0.0,0.0,0.0,0.0,0.0,0.0,0.0,0.0,0.0,0.0,0.0,0.0,0.0,0.0,0.0,0.0,0.0,0.0,0.0,0.0,0.0,0.0,0.0,0.0,0.0,0.0,0.0,0.0,0.0,0.0,0.0,0.0,0.0,0.0,0.0,0.0,0.0,0.0,0.0,0.0,0.0,0.0,0.0,0.0,0.0,0.0,0.0,0.0,0.0,0.0,0.0,0.0,0.0,0.0,0.0,0.0,0.0,0.0,0.0,0.0,0.0,0.0,0.0,0.0,0.0,0.0,0.0,0.0,0.0,0.0,0.0,0.0,0.0,0.0,0.0,0.0,0.0,0.0,0.0,0.0,0.0,0.0,0.0,0.0,0.0,0.0,0.0,0.0,0.0,0.0,0.0,0.0,0.0,0.0,0.0,0.0,0.0,0.0,0.0,0.0,0.0,0.0,0.0,0.0,0.0,0.0,0.0,0.0,0.0,0.0,0.0,0.0,0.0,0.0,0.0,0.0,0.0,0.0,0.0,0.0,0.0,0.0,0.0,0.0,0.0,0.0,0.0,0.0,0.0,0.0,0.0,0.0,0.0,0.0,0.0,0.0,-1.0135,0.0,0.0,0.0,0.0,0.0,0.0,0.0,0.0,0.0,0.0,0.0,0.0,0.0,0.0,0.0,0.0,0.0,0.0,0.0,0.0,0.0,0.0,0.0,0.0,0.0,0.0,0.0,0.0,0.0,0.0,0.0,0.0,0.0,0.0,0.0,0.0,0.0,0.0,0.0,0.0,0.0,0.0,0.0,0.0,0.0,0.0,0.0,0.0,0.0,0.0,0.0,0.0,0.0,0.0,0.0,0.0,0.0,0.0,0.0,0.0,0.0,0.0,0.0,0.0,0.0,0.0,0.0,0.0,0.0,0.0,0.0,0.0,0.0,0.0,0.0,0.0,0.0,0.0,0.0,0.0,0.0,0.0,0.0,0.0,0.0,0.0,0.0,0.0,0.0,0.0,0.0,0.0,0.0,0.0,0.0,0.0,0.0,0.0,0.0,0.0,0.0,0.0,0.0,0.0,0.0,0.0,0.0,0.0,0.0,0.0,-1.1002,-1.0135,-1.0944,-1.1002,-1.0135,0.0,0.0,0.0,0.0,0.0,0.0,0.0,0.0,0.0,0.0,0.0,0.0,0.0,0.0,0.0,0.0,0.0,0.0,0.0,0.0,0.0,0.0,0.0,0.0,0.0,0.0,0.0,0.0,0.0,0.0,0.0,0.0,0.0,0.0,0.0,0.0,0.0,0.0,0.0,0.0,0.0,0.0,0.0,0.0,0.0,0.0,0.0,0.0,0.0,0.0,0.0,0.0,0.0,0.0,0.0,0.0,0.0,0.0,0.0,0.0,0.0,0.0,0.0,0.0,0.0,0.0,0.0,0.0,0.0,0.0,0.0,0.0,0.0,0.0,0.0,0.0,0.0,0.0,0.0,0.0,0.0,0.0,0.0,0.0,0.0,0.0,0.0,0.0,0.0,0.0,0.0,0.0,0.0,0.0,0.0,0.0,0.0,0.0,0.0,0.0,0.0,0.0,0.0,0.0,0.0,0.0,0.0,0.0,0.0,0.0,0.0,0.0,-1.1808,-1.1848,-1.1015,0.0,0.0,0.0,0.0,0.0,0.0,0.0,0.0,0.0,0.0,0.0,0.0,0.0,0.0,0.0,0.0,0.0,0.0,0.0,0.0,0.0,0.0,0.0,0.0,0.0,0.0,0.0,0.0,0.0,0.0,0.0,0.0,0.0,0.0,0.0,0.0,0.0,0.0,0.0,0.0,0.0,0.0,0.0,0.0,0.0,0.0,0.0,0.0,0.0,0.0,0.0,0.0,0.0,0.0,0.0,0.0,0.0,0.0,0.0,0.0,0.0,0.0,0.0,0.0,0.0,0.0,0.0,0.0,0.0,0.0,0.0,0.0,0.0,0.0,0.0,0.0,0.0,0.0,0.0,0.0,0.0,0.0,0.0,0.0,0.0,0.0,0.0,0.0,0.0,0.0,0.0,0.0,0.0,0.0,0.0,0.0,0.0,0.0,0.0,0.0,0.0,0.0,0.0,0.0,0.0,0.0,0.0,0.0,0.0,0.0,-1.2077,-1.3533,-1.4363,0.0,-1.3684,0.0,0.0,0.0,0.0,0.0,0.0,0.0,0.0,0.0,0.0,0.0,0.0,0.0,0.0,0.0,0.0,0.0,0.0,0.0,0.0,0.0,0.0,0.0,0.0,0.0,0.0,0.0,0.0,0.0,0.0,0.0,0.0,0.0,0.0,0.0,0.0,0.0,0.0,0.0,0.0,0.0,0.0,0.0,0.0,0.0,0.0,0.0,0.0,0.0,0.0,0.0,0.0,0.0,0.0,0.0,0.0,0.0,0.0,0.0,0.0,0.0,0.0,0.0,0.0,0.0,0.0,0.0,0.0,0.0,0.0,0.0,0.0,0.0,0.0,0.0,0.0,0.0,0.0,0.0,0.0,0.0,0.0,0.0,0.0,0.0,0.0,0.0,0.0,0.0,0.0,0.0,0.0,0.0,0.0,0.0,0.0,0.0,0.0,0.0,0.0,0.0,0.0,0.0,0.0,0.0,0.0,0.0,0.0,0.0,0.0,0.0,-1.3876,-1.4247,-1.4266,0.0,0.0,0.0,0.0,0.0,0.0,0.0,0.0,0.0,0.0,0.0,0.0,0.0,0.0,0.0,0.0,0.0,0.0,0.0,0.0,0.0,0.0,0.0,0.0,0.0,0.0,0.0,0.0,0.0,0.0,0.0,0.0,0.0,0.0,0.0,0.0,0.0,0.0,0.0,0.0,0.0,0.0,0.0,0.0,0.0,0.0,0.0,0.0,0.0,0.0,0.0,0.0,0.0,0.0,0.0,0.0,0.0,0.0,0.0,0.0,0.0,0.0,0.0,0.0,0.0,0.0,0.0,0.0,0.0,0.0,0.0,0.0,0.0,0.0,0.0,0.0,0.0,0.0,0.0,0.0,0.0,0.0,0.0,0.0,0.0,0.0,0.0,0.0,0.0,0.0,0.0,0.0,0.0,0.0,0.0,0.0,0.0,0.0,0.0,0.0,0.0,0.0,0.0,0.0,0.0,0.0,0.0,0.0,0.0,0.0,-1.3742,0.0,-1.4906,-1.4875,-1.4568,-1.3879,0.0,0.0,0.0,0.0,0.0,0.0,0.0,0.0,0.0,0.0,0.0,0.0,0.0,0.0,0.0,0.0,0.0,0.0,0.0,0.0,0.0,0.0,0.0,0.0,0.0,0.0,0.0,0.0,0.0,0.0,0.0,0.0,0.0,0.0,0.0,0.0,0.0,0.0,0.0,0.0,0.0,0.0,0.0,0.0,0.0,0.0,0.0,0.0,0.0,0.0,0.0,0.0,0.0,0.0,0.0,0.0,0.0,0.0,0.0,0.0,0.0,0.0,0.0,0.0,0.0,0.0,0.0,0.0,0.0,0.0,0.0,0.0,0.0,0.0,0.0,0.0,0.0,0.0,0.0,0.0,0.0,0.0,0.0,0.0,0.0,0.0,0.0,0.0,0.0,0.0,0.0,0.0,0.0,0.0,0.0,0.0,0.0,0.0,0.0,0.0,0.0,0.0,0.0,0.0,0.0,0.0,0.0,0.0,0.0,-1.505,-1.5057,-1.7355,-1.7297,-1.6157,0.0,0.0,0.0,0.0,0.0,0.0,0.0,0.0,0.0,0.0,0.0,0.0,0.0,0.0,0.0,0.0,0.0,0.0,0.0,0.0,0.0,0.0,0.0,0.0,0.0,0.0,0.0,0.0,0.0,0.0,0.0,0.0,0.0,0.0,0.0,0.0,0.0,0.0,0.0,0.0,0.0,0.0,0.0,0.0,0.0,0.0,0.0,0.0,0.0,0.0,0.0,0.0,0.0,0.0,0.0,0.0,0.0,0.0,0.0,0.0,0.0,0.0,0.0,0.0,0.0,0.0,0.0,0.0,0.0,0.0,0.0,0.0,0.0,0.0,0.0,0.0,0.0,0.0,0.0,0.0,0.0,0.0,0.0,0.0,0.0,0.0,0.0,0.0,0.0,0.0,0.0,0.0,0.0,0.0,0.0,0.0,0.0,0.0,0.0,0.0,0.0,0.0,0.0,0.0,0.0,0.0,0.0,0.0,0.0,-1.2595,-1.3411,-1.6014,0.0,-1.7104,-1.5496,0.0,0.0,0.0,0.0,0.0,0.0,0.0,0.0,0.0,0.0,0.0,0.0,0.0,0.0,0.0,0.0,0.0,0.0,0.0,0.0,0.0,0.0,0.0,0.0,0.0,0.0,0.0,0.0,0.0,0.0,0.0,0.0,0.0,0.0,0.0,0.0,0.0,0.0,0.0,0.0,0.0,0.0,0.0,0.0,0.0,0.0,0.0,0.0,0.0,0.0,0.0,0.0,0.0,0.0,0.0,0.0,0.0,0.0,0.0,0.0,0.0,0.0,0.0,0.0,0.0,0.0,0.0,0.0,0.0,0.0,0.0,0.0,0.0,0.0,0.0,0.0,0.0,0.0,0.0,0.0,0.0,0.0,0.0,0.0,0.0,0.0,0.0,0.0,0.0,0.0,0.0,0.0,0.0,0.0,0.0,0.0,0.0,0.0,0.0,0.0,0.0,0.0,0.0,0.0,0.0,0.0,0.0,0.0,0.0,-1.23,0.0,-1.7725,0.0,-1.7032,-1.5058,0.0,0.0,0.0,0.0,0.0,0.0,0.0,0.0,0.0,0.0,0.0,0.0,0.0,0.0,0.0,0.0,0.0,0.0,0.0,0.0,0.0,0.0,0.0,0.0,0.0,0.0,0.0,0.0,0.0,0.0,0.0,0.0,0.0,0.0,0.0,0.0,0.0,0.0,0.0,0.0,0.0,0.0,0.0,0.0,0.0,0.0,0.0,0.0,0.0,0.0,0.0,0.0,0.0,0.0,0.0,0.0,0.0,0.0,0.0,0.0,0.0,0.0,0.0,0.0,0.0,0.0,0.0,0.0,0.0,0.0,0.0,0.0,0.0,0.0,0.0,0.0,0.0,0.0,0.0,0.0,0.0,0.0,0.0,0.0,0.0,0.0,0.0,0.0,0.0,0.0,0.0,0.0,0.0,0.0,0.0,0.0,0.0,0.0,0.0,0.0,0.0,0.0,0.0,0.0,0.0,0.0,0.0,0.0,-1.2301,-1.7037,-1.98,-1.9921,-1.742,-1.7297,-1.5003,0.0,0.0,0.0,0.0,0.0,0.0,0.0,0.0,0.0,0.0,0.0,0.0,0.0,0.0,0.0,0.0,0.0,0.0,0.0,0.0,0.0,0.0,0.0,0.0,0.0,0.0,0.0,0.0,0.0,0.0,0.0,0.0,0.0,0.0,0.0,0.0,0.0,0.0,0.0,0.0,0.0,0.0,0.0,0.0,0.0,0.0,0.0,0.0,0.0,0.0,0.0,0.0,0.0,0.0,0.0,0.0,0.0,0.0,0.0,0.0,0.0,0.0,0.0,0.0,0.0,0.0,0.0,0.0,0.0,0.0,0.0,0.0,0.0,0.0,0.0,0.0,0.0,0.0,0.0,0.0,0.0,0.0,0.0,0.0,0.0,0.0,0.0,0.0,0.0,0.0,0.0,0.0,0.0,0.0,0.0,0.0,0.0,0.0,0.0,0.0,0.0,0.0,0.0,0.0,0.0,0.0,0.0,0.0,0.0,-1.6526,-1.7742,-1.9139,-2.0514,-1.7344,-1.5372,0.0,0.0,0.0,0.0,0.0,0.0,0.0,0.0,0.0,0.0,0.0,0.0,0.0,0.0,0.0,0.0,0.0,0.0,0.0,0.0,0.0,0.0,0.0,0.0,0.0,0.0,0.0,0.0,0.0,0.0,0.0,0.0,0.0,0.0,0.0,0.0,0.0,0.0,0.0,0.0,0.0,0.0,0.0,0.0,0.0,0.0,0.0,0.0,0.0,0.0,0.0,0.0,0.0,0.0,0.0,0.0,0.0,0.0,0.0,0.0,0.0,0.0,0.0,0.0,0.0,0.0,0.0,0.0,0.0,0.0,0.0,0.0,0.0,0.0,0.0,0.0,0.0,0.0,0.0,0.0,0.0,0.0,0.0,0.0,0.0,0.0,0.0,0.0,0.0,0.0,0.0,0.0,0.0,0.0,0.0,0.0,0.0,0.0,0.0,0.0,0.0,0.0,0.0,0.0,0.0,0.0,0.0,0.0,0.0,-1.9167,-1.9768,-2.0469,-2.1255,-1.7993,-1.6125,-1.5884,0.0,0.0,0.0,0.0,0.0,0.0,0.0,0.0,0.0,0.0,0.0,0.0,0.0,0.0,0.0,0.0,0.0,0.0,0.0,0.0,0.0,0.0,0.0,0.0,0.0,0.0,0.0,0.0,0.0,0.0,0.0,0.0,0.0,0.0,0.0,0.0,0.0,0.0,0.0,0.0,0.0,0.0,0.0,0.0,0.0,0.0,0.0,0.0,0.0,0.0,0.0,0.0,0.0,0.0,0.0,0.0,0.0,0.0,0.0,0.0,0.0,0.0,0.0,0.0,0.0,0.0,0.0,0.0,0.0,0.0,0.0,0.0,0.0,0.0,0.0,0.0,0.0,0.0,0.0,0.0,0.0,0.0,0.0,0.0,0.0,0.0,0.0,0.0,0.0,0.0,0.0,0.0,0.0,0.0,0.0,0.0,0.0,0.0,0.0,0.0,0.0,0.0,0.0,0.0,0.0,0.0,0.0,0.0,-2.4038,-2.4885,-2.3583,-2.0165,-1.9314,-1.7354,0.0,0.0,0.0,0.0,0.0,0.0,0.0,0.0,0.0,0.0,0.0,0.0,0.0,0.0,0.0,0.0,0.0,0.0,0.0,0.0,0.0,0.0,0.0,0.0,0.0,0.0,0.0,0.0,0.0,0.0,0.0,0.0,0.0,0.0,0.0,0.0,0.0,0.0,0.0,0.0,0.0,0.0,0.0,0.0,0.0,0.0,0.0,0.0,0.0,0.0,0.0,0.0,0.0,0.0,0.0,0.0,0.0,0.0,0.0,0.0,0.0,0.0,0.0,0.0,0.0,0.0,0.0,0.0,0.0,0.0,0.0,0.0,0.0,0.0,0.0,0.0,0.0,0.0,0.0,0.0,0.0,0.0,0.0,0.0,0.0,0.0,0.0,0.0,0.0,0.0,0.0,0.0,0.0,0.0,0.0,0.0,0.0,0.0,0.0,0.0,0.0,0.0,0.0,0.0,0.0,0.0,0.0,0.0,0.0,-2.3777,-2.4816,-2.4987,-2.4282,-2.1699,-1.9264,0.0,0.0,0.0,0.0,0.0,0.0,0.0,0.0,0.0,0.0,0.0,0.0,0.0,0.0,0.0,0.0,0.0,0.0,0.0,0.0,0.0,0.0,0.0,0.0,0.0,0.0,0.0,0.0,0.0,0.0,0.0,0.0,0.0,0.0,0.0,0.0,0.0,0.0,0.0,0.0,0.0,0.0,0.0,0.0,0.0,0.0,0.0,0.0,0.0,0.0,0.0,0.0,0.0,0.0,0.0,0.0,0.0,0.0,0.0,0.0,0.0,0.0,0.0,0.0,0.0,0.0,0.0,0.0,0.0,0.0,0.0,0.0,0.0,0.0,0.0,0.0,0.0,0.0,0.0,0.0,0.0,0.0,0.0,0.0,0.0,0.0,0.0,0.0,0.0,0.0,0.0,0.0,0.0,0.0,0.0,0.0,0.0,0.0,0.0,0.0,0.0,0.0,0.0,0.0,0.0,0.0,0.0,0.0,-2.2235,-2.5428,-2.5369,-2.5721,-2.6643,-2.3353,-2.0576,0.0,0.0,0.0,0.0,0.0,0.0,0.0,0.0,0.0,0.0,0.0,0.0,0.0,0.0,0.0,0.0,0.0,0.0,0.0,0.0,0.0,0.0,0.0,0.0,0.0,0.0,0.0,0.0,0.0,0.0,0.0,0.0,0.0,0.0,0.0,0.0,0.0,0.0,0.0,0.0,0.0,0.0,0.0,0.0,0.0,0.0,0.0,0.0,0.0,0.0,0.0,0.0,0.0,0.0,0.0,0.0,0.0,0.0,0.0,0.0,0.0,0.0,0.0,0.0,0.0,0.0,0.0,0.0,0.0,0.0,0.0,0.0,0.0,0.0,0.0,0.0,0.0,0.0,0.0,0.0,0.0,0.0,0.0,0.0,0.0,0.0,0.0,0.0,0.0,0.0,0.0,0.0,0.0,0.0,0.0,0.0,0.0,0.0,0.0,0.0,0.0,0.0,0.0,0.0,0.0,0.0,0.0,0.0,-2.3669,-2.764,-2.6231,-2.6129,-2.7434,-2.4404,-2.1496,0.0,0.0,0.0,0.0,0.0,0.0,0.0,0.0,0.0,0.0,0.0,0.0,0.0,0.0,0.0,0.0,0.0,0.0,0.0,0.0,0.0,0.0,0.0,0.0,0.0,0.0,0.0,0.0,0.0,0.0,0.0,0.0,0.0,0.0,0.0,0.0,0.0,0.0,0.0,0.0,0.0,0.0,0.0,0.0,0.0,0.0,0.0,0.0,0.0,0.0,0.0,0.0,0.0,0.0,0.0,0.0,0.0,0.0,0.0,0.0,0.0,0.0,0.0,0.0,0.0,0.0,0.0,0.0,0.0,0.0,0.0,0.0,0.0,0.0,0.0,0.0,0.0,0.0,0.0,0.0,0.0,0.0,0.0,0.0,0.0,0.0,0.0,0.0,0.0,0.0,0.0,0.0,0.0,0.0,0.0,0.0,0.0,0.0,0.0,0.0,0.0,0.0,0.0,0.0,0.0,0.0,0.0,0.0,-2.4587,-2.6794,-2.6505,-2.6729,-2.7561,-2.4809,-2.2086,0.0,0.0,0.0,0.0,0.0,0.0,0.0,0.0,0.0,0.0,0.0,0.0,0.0,0.0,0.0,0.0,0.0,0.0,0.0,0.0,0.0,0.0,0.0,0.0,0.0,0.0,0.0,0.0,0.0,0.0,0.0,0.0,0.0,0.0,0.0,0.0,0.0,0.0,0.0,0.0,0.0,0.0,0.0,0.0,0.0,0.0,0.0,0.0,-1.123,0.0,0.0,0.0,0.0,0.0,0.0,0.0,0.0,0.0,0.0,0.0,0.0,0.0,0.0,0.0,0.0,0.0,0.0,0.0,0.0,0.0,0.0,0.0,0.0,0.0,0.0,0.0,0.0,0.0,0.0,0.0,0.0,0.0,0.0,0.0,0.0,0.0,0.0,0.0,0.0,0.0,0.0,0.0,0.0,0.0,0.0,0.0,0.0,0.0,0.0,0.0,0.0,0.0,0.0,0.0,0.0,0.0,0.0,0.0,-2.4933,-2.6524,-2.6192,-2.6353,-2.701,-2.5222,-2.2741,0.0,0.0,0.0,0.0,0.0,0.0,0.0,0.0,0.0,0.0,0.0,0.0,0.0,0.0,0.0,0.0,0.0,0.0,0.0,0.0,0.0,0.0,0.0,0.0,0.0,0.0,0.0,0.0,0.0,0.0,0.0,0.0,0.0,0.0,0.0,0.0,0.0,0.0,0.0,0.0,0.0,0.0,0.0,0.0,0.0,0.0,0.0,0.0,0.0,0.0,0.0,0.0,0.0,0.0,0.0,0.0,0.0,0.0,0.0,0.0,0.0,0.0,0.0,0.0,0.0,0.0,0.0,0.0,0.0,0.0,0.0,0.0,0.0,0.0,0.0,0.0,0.0,0.0,0.0,0.0,0.0,0.0,0.0,0.0,0.0,0.0,0.0,0.0,0.0,0.0,0.0,0.0,0.0,0.0,0.0,0.0,0.0,0.0,0.0,0.0,0.0,0.0,0.0,0.0,0.0,0.0,0.0,-2.2571,-2.4913,-2.6486,-2.5885,-2.5836,-2.6512,-2.5576,-2.3359,-1.9782,0.0,0.0,0.0,0.0,0.0,0.0,0.0,0.0,0.0,0.0,0.0,0.0,0.0,0.0,0.0,0.0,0.0,0.0,0.0,0.0,0.0,0.0,0.0,0.0,0.0,0.0,0.0,0.0,0.0,0.0,0.0,0.0,0.0,0.0,0.0,0.0,0.0,0.0,-1.084,-1.1738,0.0,0.0,0.0,0.0,0.0,0.0,0.0,0.0,-1.2395,0.0,0.0,0.0,0.0,0.0,0.0,0.0,0.0,0.0,0.0,0.0,0.0,0.0,0.0,0.0,0.0,0.0,0.0,0.0,0.0,0.0,0.0,0.0,0.0,0.0,0.0,0.0,0.0,0.0,0.0,0.0,0.0,0.0,0.0,0.0,0.0,0.0,0.0,0.0,0.0,0.0,0.0,0.0,0.0,0.0,0.0,0.0,0.0,0.0,0.0,0.0,0.0,0.0,0.0,0.0,0.0,-2.2124,-2.3432,-2.4913,-2.6544,-2.6467,-2.637,-2.6332,-2.5628,-2.352,-1.996,0.0,0.0,0.0,0.0,0.0,0.0,0.0,0.0,0.0,0.0,0.0,0.0,0.0,0.0,0.0,0.0,0.0,0.0,0.0,0.0,0.0,0.0,0.0,0.0,0.0,0.0,0.0,0.0,0.0,0.0,0.0,0.0,0.0,0.0,0.0,0.0,0.0,0.0,0.0,-1.4863,-1.5644,0.0,0.0,0.0,0.0,0.0,0.0,0.0,0.0,-1.2151,0.0,0.0,0.0,0.0,0.0,0.0,0.0,0.0,0.0,0.0,0.0,0.0,0.0,0.0,0.0,0.0,0.0,0.0,0.0,0.0,0.0,0.0,0.0,0.0,0.0,0.0,0.0,0.0,0.0,0.0,0.0,0.0,0.0,0.0,0.0,0.0,0.0,0.0,0.0,0.0,0.0,0.0,0.0,0.0,0.0,0.0,0.0,0.0,0.0,0.0,0.0,0.0,0.0,0.0,0.0,-2.1427,-2.362,-2.512,-2.5904,-2.5923,-2.5873,-2.5751,-2.462,-2.2762,0.0,0.0,0.0,0.0,0.0,0.0,0.0,0.0,0.0,0.0,0.0,0.0,0.0,0.0,0.0,0.0,0.0,0.0,0.0,0.0,0.0,0.0,0.0,0.0,0.0,0.0,0.0,0.0,0.0,0.0,0.0,0.0,0.0,0.0,0.0,0.0,0.0,0.0,0.0,0.0,-1.5214,-1.6185,-1.6647,0.0,0.0,0.0,0.0,0.0,0.0,-1.4536,-1.3756,0.0,0.0,0.0,0.0,0.0,0.0,0.0,0.0,0.0,0.0,0.0,0.0,0.0,0.0,0.0,0.0,0.0,0.0,0.0,0.0,0.0,0.0,0.0,0.0,0.0,0.0,0.0,0.0,0.0,0.0,0.0,0.0,0.0,0.0,0.0,0.0,0.0,0.0,0.0,0.0,0.0,0.0,0.0,0.0,0.0,0.0,0.0,0.0,0.0,0.0,0.0,0.0,0.0,0.0,0.0,-2.0308,-2.3269,-2.4962,-2.5269,-2.5308,-2.5308,-2.5288,-2.4,-2.237,0.0,0.0,0.0,0.0,0.0,0.0,0.0,0.0,0.0,0.0,0.0,0.0,0.0,0.0,0.0,0.0,0.0,0.0,0.0,0.0,0.0,0.0,0.0,0.0,0.0,0.0,0.0,0.0,0.0,0.0,0.0,0.0,0.0,0.0,0.0,0.0,0.0,0.0,0.0,0.0,0.0,-1.6995,-1.7774,-1.6999,0.0,0.0,0.0,0.0,-1.6924,-1.6502,0.0,0.0,0.0,0.0,0.0,0.0,0.0,0.0,0.0,0.0,0.0,0.0,0.0,0.0,0.0,0.0,0.0,0.0,0.0,0.0,0.0,0.0,0.0,0.0,0.0,0.0,0.0,0.0,0.0,0.0,0.0,0.0,0.0,0.0,0.0,0.0,0.0,0.0,0.0,0.0,0.0,0.0,0.0,0.0,0.0,0.0,0.0,0.0,0.0,0.0,0.0,0.0,0.0,0.0,0.0,0.0,-2.0212,-2.2139,-2.3812,-2.5212,-2.5308,-2.5308,-2.5308,-2.5115,-2.3538,0.0,0.0,0.0,0.0,0.0,0.0,0.0,0.0,0.0,0.0,0.0,0.0,0.0,0.0,0.0,0.0,0.0,0.0,0.0,0.0,0.0,0.0,0.0,0.0,0.0,0.0,0.0,0.0,0.0,0.0,0.0,0.0,0.0,0.0,0.0,0.0,0.0,0.0,0.0,0.0,0.0,-2.029,-1.8184,-1.901,-1.9301,0.0,0.0,-1.8692,-1.878,-1.8781,0.0,0.0,0.0,0.0,0.0,0.0,0.0,0.0,0.0,0.0,0.0,0.0,0.0,0.0,0.0,0.0,0.0,0.0,0.0,0.0,0.0,0.0,0.0,0.0,0.0,0.0,0.0,0.0,0.0,0.0,0.0,0.0,0.0,0.0,0.0,0.0,0.0,0.0,0.0,0.0,0.0,0.0,0.0,0.0,0.0,0.0,0.0,0.0,0.0,0.0,0.0,0.0,0.0,0.0,0.0,-1.783,-2.0288,-2.2885,-2.4577,-2.5269,-2.5308,-2.5308,-2.5288,-2.3904,-2.2019,0.0,0.0,0.0,0.0,0.0,0.0,0.0,0.0,0.0,0.0,0.0,0.0,0.0,0.0,0.0,0.0,0.0,0.0,0.0,0.0,0.0,0.0,0.0,0.0,0.0,0.0,0.0,0.0,0.0,0.0,0.0,0.0,0.0,0.0,0.0,0.0,0.0,0.0,0.0,0.0,0.0,0.0,-2.0064,-2.0234,0.0,0.0,0.0,-2.0112,-2.1053,0.0,0.0,0.0,0.0,0.0,0.0,0.0,0.0,0.0,0.0,0.0,0.0,0.0,0.0,0.0,0.0,0.0,0.0,0.0,0.0,0.0,0.0,0.0,0.0,0.0,0.0,0.0,0.0,0.0,0.0,0.0,0.0,0.0,0.0,0.0,0.0,0.0,0.0,0.0,0.0,0.0,0.0,0.0,0.0,0.0,0.0,0.0,0.0,0.0,0.0,0.0,0.0,0.0,0.0,0.0,0.0,0.0,-2.0308,-2.3596,-2.5308,-2.5308,-2.5308,-2.5308,-2.5269,-2.325,0.0,0.0,0.0,0.0,0.0,0.0,0.0,0.0,0.0,0.0,0.0,0.0,0.0,0.0,0.0,0.0,0.0,0.0,0.0,0.0,0.0,0.0,0.0,0.0,0.0,0.0,0.0,-0.6014,0.0,0.0,0.0,0.0,0.0,0.0,0.0,0.0,0.0,0.0,0.0,0.0,0.0,0.0,-2.02,-2.1483,-2.1449,-2.1668,0.0,0.0,-2.1615,-2.2647,-2.197,-2.0781,0.0,0.0,0.0,0.0,0.0,0.0,0.0,0.0,0.0,0.0,0.0,0.0,0.0,0.0,0.0,0.0,0.0,0.0,0.0,0.0,0.0,0.0,0.0,0.0,0.0,0.0,0.0,0.0,0.0,0.0,0.0,0.0,0.0,0.0,0.0,0.0,0.0,0.0,0.0,0.0,0.0,0.0,0.0,0.0,0.0,0.0,0.0,0.0,0.0,0.0,0.0,0.0,0.0,0.0,0.0,-2.0327,-2.3596,-2.5308,-2.5308,-2.5308,-2.5308,-2.5288,-2.4413,-2.274,0.0,0.0,0.0,0.0,0.0,0.0,0.0,0.0,0.0,0.0,0.0,0.0,0.0,0.0,0.0,0.0,0.0,0.0,0.0,0.0,0.0,0.0,0.0,0.0,0.0,0.0,0.0,0.0,0.0,0.0,0.0,0.0,0.0,0.0,0.0,0.0,0.0,0.0,0.0,0.0,0.0,-2.1468,-2.1594,-2.2953,-2.3686,0.0,0.0,-2.3625,-2.2993,-2.3466,-2.2839,-1.9625,0.0,0.0,0.0,0.0,0.0,0.0,0.0,0.0,0.0,0.0,0.0,0.0,0.0,0.0,0.0,0.0,0.0,0.0,0.0,0.0,0.0,0.0,0.0,0.0,0.0,0.0,0.0,0.0,0.0,0.0,0.0,0.0,0.0,0.0,0.0,0.0,0.0,0.0,0.0,0.0,0.0,0.0,0.0,0.0,0.0,0.0,0.0,0.0,0.0,0.0,0.0,0.0,0.0,-1.8561,-2.0308,-2.3615,-2.5308,-2.5308,-2.5308,-2.5308,-2.5308,-2.4529,-2.2663,0.0,0.0,0.0,0.0,0.0,0.0,0.0,0.0,0.0,0.0,0.0,0.0,0.0,0.0,0.0,0.0,0.0,0.0,0.0,0.0,0.0,0.0,0.0,0.0,0.0,0.0,0.0,0.0,-0.8809,-0.9219,-0.9746,0.0,0.0,0.0,0.0,0.0,0.0,0.0,0.0,0.0,0.0,-2.1918,-2.2991,-2.3708,0.0,0.0,-2.4229,-2.4177,-2.4343,-2.3781,-2.2736,-2.0939,-1.9508,0.0,0.0,0.0,0.0,0.0,0.0,0.0,0.0,0.0,0.0,0.0,0.0,0.0,0.0,0.0,0.0,0.0,0.0,0.0,0.0,0.0,0.0,0.0,0.0,0.0,0.0,0.0,0.0,0.0,0.0,0.0,0.0,0.0,0.0,0.0,0.0,0.0,0.0,0.0,0.0,0.0,0.0,0.0,0.0,0.0,0.0,0.0,0.0,0.0,0.0,0.0,0.0,-1.868,-2.0654,-2.3731,-2.5308,-2.5308,-2.5308,-2.5308,-2.5288,-2.4524,-2.2725,0.0,0.0,0.0,0.0,0.0,0.0,0.0,0.0,0.0,0.0,0.0,0.0,0.0,0.0,0.0,0.0,0.0,0.0,0.0,0.0,0.0,0.0,0.0,0.0,0.0,0.0,0.0,0.0,-0.9395,-0.9629,-1.0234,0.0,0.0,0.0,0.0,0.0,0.0,0.0,0.0,0.0,0.0,-2.2524,-2.4221,-2.4471,-2.4663,-2.5231,-2.4832,-2.4663,-2.5212,-2.412,-2.2919,-2.2125,0.0,0.0,0.0,0.0,0.0,0.0,0.0,0.0,0.0,0.0,0.0,0.0,0.0,0.0,0.0,0.0,0.0,0.0,0.0,0.0,0.0,0.0,0.0,0.0,0.0,0.0,0.0,0.0,0.0,0.0,-1.2715,0.0,0.0,0.0,0.0,0.0,0.0,0.0,0.0,0.0,0.0,0.0,0.0,0.0,0.0,0.0,0.0,0.0,0.0,0.0,0.0,0.0,0.0,-1.8969,-2.1462,-2.4,-2.5308,-2.5308,-2.5308,-2.5308,-2.5288,-2.4524,-2.3263,-2.1446,0.0,0.0,0.0,0.0,0.0,0.0,0.0,0.0,0.0,0.0,0.0,0.0,0.0,0.0,0.0,0.0,0.0,0.0,0.0,0.0,0.0,0.0,0.0,0.0,0.0,0.0,-1.0234,-1.0273,-1.0273,0.0,0.0,0.0,0.0,0.0,0.0,0.0,0.0,0.0,0.0,-2.1714,-2.3389,-2.5019,-2.5269,-2.525,-2.5308,-2.5269,-2.5269,-2.5288,-2.4606,-2.3809,0.0,0.0,0.0,0.0,0.0,0.0,0.0,0.0,0.0,0.0,0.0,0.0,0.0,0.0,0.0,0.0,0.0,0.0,0.0,0.0,0.0,0.0,0.0,0.0,0.0,0.0,0.0,-1.7506,-1.6187,0.0,0.0,0.0,0.0,0.0,0.0,0.0,0.0,0.0,0.0,0.0,-2.3184,-2.4274,0.0,0.0,0.0,0.0,0.0,0.0,0.0,0.0,0.0,0.0,0.0,0.0,-1.9527,-2.1504,-2.4019,-2.5308,-2.5308,-2.5308,-2.5308,-2.5308,-2.5038,-2.3577,-2.0769,0.0,0.0,0.0,0.0,0.0,0.0,0.0,0.0,0.0,0.0,0.0,0.0,0.0,0.0,0.0,0.0,0.0,0.0,0.0,0.0,0.0,0.0,0.0,0.0,0.0,-1.0312,0.0,0.0,0.0,0.0,0.0,0.0,0.0,0.0,0.0,0.0,0.0,-1.9157,-2.1644,-2.2945,-2.4048,-2.5135,-2.5308,-2.5308,0.0,0.0,0.0,0.0,0.0,0.0,0.0,0.0,0.0,0.0,0.0,0.0,0.0,0.0,-2.0219,-1.5981,-1.4959,-1.4766,-1.4766,0.0,0.0,0.0,0.0,0.0,0.0,0.0,0.0,0.0,0.0,0.0,0.0,0.0,0.0,-2.0699,0.0,-1.8477,0.0,0.0,0.0,0.0,0.0,0.0,0.0,0.0,-2.457,-2.5762,-2.5801,-2.6872,-2.6495,0.0,-2.4777,-2.2874,0.0,0.0,0.0,0.0,0.0,0.0,0.0,0.0,-2.0431,-2.2389,-2.4308,-2.5308,-2.5308,-2.5308,-2.5308,-2.5288,-2.5038,-2.3577,-2.0792,-1.8561,-1.6195,0.0,0.0,0.0,0.0,0.0,0.0,0.0,0.0,0.0,0.0,0.0,0.0,0.0,0.0,0.0,0.0,0.0,0.0,0.0,0.0,0.0,0.0,0.0,-1.0312,0.0,0.0,0.0,0.0,0.0,0.0,0.0,0.0,0.0,-1.7515,-1.9232,-2.1153,-2.3015,-2.3971,-2.4716,-2.5231,0.0,0.0,0.0,0.0,0.0,0.0,0.0,-2.4529,-2.4529,-2.4043,-2.3581,-2.3297,-2.3721,-2.3629,-2.2197,0.0,0.0,-1.8542,-1.7596,-1.7385,-1.7404,-1.7404,-1.7385,-1.7388,-1.7638,-1.7839,0.0,0.0,0.0,0.0,0.0,0.0,0.0,0.0,-2.2986,-2.3321,0.0,-2.1582,0.0,0.0,0.0,0.0,0.0,-2.3262,0.0,0.0,-2.7109,-2.834,-2.832,-2.8359,-2.8316,-2.8231,-2.8169,-2.6815,-2.4205,-2.0917,0.0,0.0,0.0,0.0,0.0,0.0,-2.162,-2.3995,-2.487,-2.5308,-2.5308,-2.5308,-2.5308,-2.5288,-2.4562,-2.3374,-2.1639,-1.9977,-1.792,-1.5442,-1.3698,0.0,0.0,0.0,0.0,0.0,0.0,0.0,0.0,0.0,0.0,0.0,0.0,0.0,0.0,0.0,0.0,0.0,0.0,0.0,0.0,-1.0352,0.0,0.0,0.0,0.0,0.0,0.0,0.0,0.0,0.0,0.0,-1.9449,-2.1463,-2.3306,-2.4045,0.0,0.0,0.0,0.0,-2.5308,-2.5308,-2.5308,-2.5308,-2.5308,-2.5308,-2.5288,-2.5288,0.0,0.0,-2.4283,-2.4149,-2.3898,-2.3028,-2.297,-2.2874,-2.2816,-2.1927,-2.1389,-2.1389,-2.1312,-2.1481,-2.1538,-2.1754,-2.2393,-2.9608,0.0,0.0,0.0,0.0,-2.6511,-2.7411,-2.8909,-2.851,-2.8104,-2.7562,-2.5862,0.0,0.0,0.0,0.0,0.0,0.0,-2.625,-2.6367,-2.8301,-2.9197,-2.9186,-2.9842,-2.9754,-2.9012,-2.9036,-2.8318,-2.6928,-2.5864,-2.2973,-1.8464,0.0,0.0,0.0,0.0,-2.2759,-2.4048,-2.4885,-2.5308,-2.5308,-2.5308,-2.5308,-2.5308,-2.5077,-2.4447,-2.3394,-2.1696,-1.9904,-1.7977,-1.5712,0.0,0.0,0.0,0.0,0.0,0.0,0.0,0.0,0.0,0.0,0.0,0.0,0.0,0.0,0.0,0.0,0.0,0.0,0.0,-1.1172,-1.123,-1.1973,0.0,0.0,0.0,0.0,0.0,0.0,0.0,0.0,0.0,-2.278,-2.3436,-2.4198,0.0,0.0,-2.5365,-2.5298,-2.5308,-2.5308,-2.5308,0.0,0.0,0.0,-2.5308,-2.5308,-2.5308,-2.5308,-2.5212,-2.4981,-2.4962,-2.487,-2.4601,-2.4577,-2.4577,-2.4505,-2.3389,-2.2504,-2.2408,-2.2432,-2.2432,-2.2451,-2.2643,-2.2816,-3.4487,-3.241,-2.9737,-2.9006,-2.9583,-2.9467,-3.0311,-3.1775,-3.1266,-3.1031,-3.0926,-2.9593,-2.8453,-2.7461,-2.6621,0.0,0.0,0.0,-2.9042,-2.9056,-3.0423,-3.1034,-3.0995,-3.1198,-3.0938,-3.0295,-2.9972,-2.9361,-2.8425,-2.8408,-2.6261,-2.2204,0.0,0.0,-2.1831,-2.2816,-2.3721,-2.4548,-2.5058,-2.5308,-2.5308,-2.5308,-2.5308,-2.5308,-2.5308,-2.4755,-2.3629,-2.2581,-2.1081,-1.9077,-1.6904,-1.5102,0.0,0.0,0.0,0.0,0.0,0.0,0.0,0.0,0.0,0.0,0.0,-0.9531,0.0,0.0,0.0,0.0,-1.1133,-1.1816,-1.2988,-1.3418,0.0,0.0,0.0,0.0,0.0,0.0,0.0,-2.1465,-2.3105,-2.4355,-2.4797,-2.4855,-2.5009,-2.5382,-2.5427,-2.5399,-2.5348,0.0,-2.5308,-2.5308,-2.5308,-2.5308,-2.5308,-2.5308,-2.5308,-2.5308,-2.5308,-2.5308,-2.5308,-2.5308,-2.5308,-2.5308,-2.5308,-2.5308,-2.5308,-2.4462,-2.3793,-2.3793,-2.3793,-2.3793,-2.3774,-2.3793,-2.3774,-3.8161,-3.7757,-3.393,-3.1808,-3.1096,-3.1788,-3.2152,-3.2207,-3.2202,-3.2656,-3.3319,-3.2612,-3.2285,-3.2246,-3.1445,0.0,-3.1132,-3.1913,-3.2177,-3.2122,-3.2923,-3.3244,-3.3128,-3.236,-3.1969,-3.1879,-3.1017,-3.0168,-2.9325,-2.9242,-2.839,-2.6813,-2.6,-2.5159,-2.4336,-2.4302,-2.4659,-2.5404,-2.5341,-2.5308,-2.5308,-2.5308,-2.5308,-2.5308,-2.525,-2.4481,-2.3009,-2.2759,-2.1624,-1.93,-1.7526,-1.6215,-1.5288,0.0,0.0,0.0,0.0,0.0,0.0,0.0,0.0,0.0,0.0,0.0,0.0,0.0,0.0,0.0,-1.2656,0.0,-1.5469,-1.6387,0.0,0.0,0.0,-1.959,-1.9785,-2.1875,-2.3281,-2.3301,0.0,0.0,-2.5703,0.0,-2.564,-2.5539,-2.5459,-2.542,-2.539,-2.5354,-2.5298,-2.5317,-2.5293,-2.5303,-2.5317,-2.5303,-2.5308,-2.5308,-2.5308,-2.5308,-2.5308,-2.5308,-2.5308,-2.5308,-2.5308,-2.5308,-2.5308,-2.5231,-2.5288,-2.5212,-2.5231,-2.525,-2.5173,-2.5154,-2.5135,-3.9554,-3.8911,-3.7911,-3.6969,-3.6161,-3.5699,-3.5585,-3.5625,-3.5001,-3.4539,-3.4172,-3.3376,-3.3044,-3.3023,-3.2769,-3.2649,-3.2669,-3.2864,-3.2934,-3.2914,-3.3128,-3.3179,-3.3048,-3.2932,-3.2798,-3.2598,-3.1864,-3.1361,-3.107,-3.0423,-2.9563,-2.8544,-2.8319,-2.7472,-2.6063,-2.6005,-2.6101,-2.6294,-2.5635,-2.5308,-2.5308,-2.5308,-2.5308,-2.5288,-2.4697,-2.4202,-2.3783,-2.2528,-2.1543,-2.0889,-1.8677,-1.7064,-1.6215,-1.3775,0.0,0.0,0.0,0.0,0.0,0.0,0.0,0.0,0.0,-1.267,-1.1406,0.0,-1.3496,0.0,-1.4902,-1.623,-1.7285,-1.8164,0.0,0.0,-2.1543,-2.2051,-2.3945,-2.4141,-2.4355,-2.5019,-2.5449,-2.5703,-2.5703,-2.5703,-2.5703,-2.5659,-2.5598,-2.5539,-2.5493,-2.5474,-2.5459,-2.545,-2.542,-2.5376,-2.5364,-2.535,-2.5308,-2.5308,-2.5308,-2.5308,-2.5308,-2.5308,-2.5308,-2.5308,-2.5308,-2.5308,-2.5308,-2.5308,-2.5308,-2.5308,-2.5308,-2.5308,-2.5308,-2.5308,-2.5308,-4.0644,-3.9842,-3.9842,-3.9554,-3.9034,-3.7796,-3.7313,-3.7346,-3.6922,-3.6294,-3.5495,-3.4717,-3.4377,-3.4355,-3.4335,-3.4312,-3.4312,-3.4312,-3.431,-3.4264,-3.4264,-3.4197,-3.411,-3.3799,-3.3589,-3.3455,-3.2673,-3.2089,-3.1705,-3.1218,-3.0525,-2.9698,-2.9679,-2.9217,-2.8288,-2.7563,-2.6986,-2.6582,-2.575,-2.5308,-2.5308,-2.5308,-2.5308,-2.5308,-2.487,-2.4274,-2.3548,-2.2581,-2.1562,-2.0408,-1.8661,-1.7487,-1.7023,-1.4987,-1.3766,0.0,0.0,0.0,0.0,0.0,0.0,0.0,0.0,0.0,0.0,0.0,-1.5996,-1.6387,-1.7637,-1.8926,-2.0156,-2.1055,-2.2285,-2.4062,-2.3867,-2.4141,-2.5547,-2.5273,-2.5156,-2.5644,-2.5703,-2.5703,-2.5703,-2.5703,-2.5703,-2.5703,-2.5681,-2.563,-2.5556,-2.5509,-2.551,-2.5508,-2.5479,-2.5434,-2.5401,-2.5352,-2.5308,-2.5308,-2.5308,-2.5308,-2.5308,-2.5308,-2.5308,-2.5308,-2.5308,-2.5308,-2.5308,-2.5308,-2.5308,-2.5308,-2.5308,-2.5308,-2.5308,-2.5308,-2.5308,-4.1429,-4.0534,-4.0534,-4.0519,-4.0381,-3.8931,-3.8257,-3.8157,-3.8221,-3.779,-3.7024,-3.6306,-3.5943,-3.5841,-3.583,-3.5764,-3.5667,-3.5667,-3.5653,-3.5585,-3.5585,-3.555,-3.5462,-3.4718,-3.4353,-3.4321,-3.3487,-3.2699,-3.2025,-3.1795,-3.1314,-3.0577,-3.0462,-3.0404,-3.0327,-2.8948,-2.7678,-2.6601,-2.5846,-2.5423,-2.5308,-2.5308,-2.5308,-2.5308,-2.5192,-2.4404,-2.2874,-2.2797,-2.1739,-1.9473,-1.8511,-1.8023,-1.7988,-1.6349,-1.5695,0.0,-1.5748,0.0,0.0,0.0,0.0,0.0,0.0,0.0,0.0,-1.7871,-1.8828,-1.957,-2.0527,-2.168,-2.3144,-2.4043,-2.4863,-2.5605,-2.5703,-2.5703,-2.5703,-2.5703,-2.5703,-2.5703,-2.5703,-2.5703,-2.5703,-2.5703,-2.5703,-2.5703,-2.5703,-2.5662,-2.561,-2.5564,-2.5541,-2.5533,-2.5526,-2.5484,-2.5431,-2.5343,-2.5322,-2.5317,-2.5298,-2.5308,-2.5308,-2.5308,-2.5308,-2.5308,-2.5308,-2.5308,-2.5308,-2.5308,-2.5308,-2.5308,-2.5308,-2.5308,-2.5308,-2.5308,-2.5308,-4.1519,-4.0655,-4.0674,-4.0596,-4.0477,-4.0169,-3.965,-3.9053,-3.9071,-3.8621,-3.7873,-3.7649,-3.7235,-3.6677,-3.6547,-3.6158,-3.554,-3.554,-3.5522,-3.5534,-3.5534,-3.5515,-3.55,-3.5327,-3.525,-3.5192,-3.4372,-3.3878,-3.3699,-3.2372,-3.1621,-3.1448,-3.075,-3.0404,-3.0385,0.0,0.0,0.0,-2.6447,-2.6019,-2.5346,-2.5308,-2.5308,-2.5288,-2.4659,0.0,-2.2855,-2.2797,-2.2259,-2.1081,-2.0254,0.0,0.0,0.0,0.0,0.0,0.0,0.0,0.0,0.0,0.0,0.0,-2.0273,-1.9844,-1.8008,-1.9844,-2.123,-2.1426,-2.2773,-2.3809,-2.4121,-2.4941,-2.5527,-2.5664,-2.5703,-2.5703,-2.5703,-2.5703,-2.5703,-2.5703,-2.5703,-2.5703,-2.5703,-2.5703,-2.5703,-2.5703,-2.5703,-2.5703,-2.5684,-2.5664,-2.5664,-2.5641,-2.5606,-2.5556,-2.5481,-2.5425,-2.5376,-2.5383,-2.535,-2.5298,-2.5308,-2.5308,-2.5308,-2.5308,-2.5308,-2.5308,-2.5308,-2.5308,-2.5308,-2.5308,-2.5308,-2.5308,-2.5308,-2.5308,-2.5308,-4.2747,0.0,-4.1419,-4.1215,0.0,-4.0689,-4.0265,-3.99,-3.9881,-3.9425,-3.8672,-3.8204,-3.7788,-3.7424,-3.6907,-3.6481,-3.6077,-3.5673,-3.55,-3.55,-3.55,-3.55,-3.55,-3.55,-3.55,-3.5481,-3.5064,-3.4622,-3.4148,-3.291,-3.2102,-3.1679,-3.0827,-3.0404,-3.0404,-3.0404,-2.9346,-2.7255,-2.6813,-2.6173,-2.5346,-2.5308,-2.5308,-2.5288,0.0,0.0,0.0,0.0,0.0,0.0,0.0,0.0,0.0,0.0,0.0,-1.9556,-1.9261,-1.9255,-1.9729,-2.0249,-2.0911,-2.1816,-2.2656,-2.2598,-2.125,-2.2383,-2.332,-2.373,-2.4551,-2.5039,-2.5059,-2.5449,-2.5703,-2.5703,-2.5703,-2.5703,-2.5703,-2.5703,-2.5703,-2.5703,-2.5703,-2.5703,-2.5703,-2.5703,-2.5703,-2.5723,-2.6094,-2.6152,-2.5781,-2.5703,-2.5703,-2.5703,-2.5657,-2.5576,-2.5535,-2.5503,-2.5438,-2.5413,-2.5383,-2.5339,-2.5298,-2.5308,-2.5308,-2.5308,-2.5308,-2.5308,-2.5308,-2.5308,-2.5308,-2.5308,-2.5308,-2.5308,-2.5308,-2.5308,-2.5308,-4.3982,-4.3065,-4.2345,-4.1944,-4.1731,-4.1046,-4.0631,-4.0496,0.0,0.0,0.0,-3.8757,-3.8354,-3.818,-3.7488,-3.6981,-3.6654,-3.6019,-3.5654,-3.55,-3.55,-3.55,-3.55,-3.55,-3.55,-3.55,-3.55,-3.5135,-3.441,-3.3551,-3.2718,-3.191,-3.1058,-3.0558,-3.0404,-3.0404,-2.9654,-2.814,-2.7274,-2.6409,-2.5558,-2.5385,-2.5308,-2.5308,-2.5308,-2.4909,-2.4125,-2.4225,-2.3586,-2.2047,-2.1331,-2.1273,-2.1889,-2.1173,-2.135,-2.2667,-2.2867,-2.3014,-2.321,-2.3275,-2.3405,-2.3613,-2.4238,-2.4629,-2.4629,-2.4629,-2.4922,-2.5644,-2.5703,-2.5684,-2.5703,-2.5703,-2.5703,-2.5703,-2.5703,-2.5703,-2.5703,-2.5703,-2.5703,-2.5703,-2.5703,-2.5703,-2.5703,-2.5703,-2.5703,-2.5781,-2.623,-2.6562,-2.5879,-2.5703,-2.5703,-2.5703,-2.566,-2.563,-2.5605,-2.5559,-2.5508,-2.5443,-2.5418,-2.5376,-2.5335,-2.5303,-2.5308,-2.5308,-2.5308,-2.5308,-2.5308,-2.5308,-2.5308,-2.5308,-2.5308,-2.5308,-2.5308,-2.5308,-2.5308,-4.4095,-4.3169,-4.3053,-4.2526,-4.1797,-4.1654,-4.12,-4.0516,-4.0496,-4.0419,-4.0323,-4.0208,-3.9765,-3.9111,-3.8996,-3.8123,-3.6712,-3.6577,-3.6173,0.0,-3.55,-3.55,-3.55,-3.55,-3.55,-3.55,-3.55,-3.5423,-3.5231,-3.443,-3.359,-3.2737,-3.191,-3.1135,-3.0442,-3.0404,-2.991,-2.8934,-2.8145,-2.7313,-2.6442,-2.5673,-2.5308,-2.5308,-2.5308,-2.4928,-2.4168,-2.4755,-2.4697,-2.3778,-2.3624,-2.3629,-2.3682,-2.2893,-2.2543,-2.2782,-2.2852,-2.3253,-2.4034,-2.4118,-2.448,-2.5254,-2.5469,-2.5508,-2.5527,-2.5527,-2.5566,-2.5703,-2.5703,-2.5703,-2.5703,-2.5703,-2.5703,-2.5703,-2.5703,-2.5703,-2.5703,-2.5703,-2.5703,-2.5703,-2.5703,-2.5703,-2.5703,-2.5703,-2.5723,-2.5723,-2.6035,-2.5918,-2.5918,-2.5703,-2.5703,-2.5703,-2.5683,-2.5703,-2.5682,-2.5633,-2.5573,-2.5569,-2.5482,-2.5397,-2.5379,-2.5344,-2.5303,-2.5308,-2.5308,-2.5308,-2.5308,-2.5308,-2.5308,-2.5308,-2.5308,-2.5308,-2.5308,-2.5308,-2.5308,-4.4921,-4.4461,-4.399,-4.3539,-4.3085,-4.2192,-4.1296,-4.0516,-4.0496,-4.0496,-4.0496,-4.0496,-4.0304,-3.9919,-3.9496,-3.888,-3.8065,-3.7142,-3.65,-3.6135,-3.5692,-3.55,-3.55,-3.55,-3.55,-3.55,-3.55,-3.55,-3.5423,-3.4603,-3.3994,-3.3532,-3.2333,-3.1256,-3.0462,-3.0404,-3.0212,-2.9794,-2.8986,-2.7915,-2.664,-2.6197,-2.5788,-2.5327,-2.5308,-2.5135,-2.4755,-2.5115,-2.5135,-2.4774,-2.4336,-2.4298,-2.4697,-2.3952,-2.3701,-2.412,-2.418,-2.4397,-2.4848,-2.496,-2.5196,-2.5618,-2.5683,-2.5703,-2.5703,-2.5703,-2.5703,-2.5703,-2.5703,-2.5703,-2.5703,-2.5703,-2.5703,-2.5703,-2.5703,-2.5703,-2.5703,-2.5703,-2.5703,-2.5703,-2.5703,-2.5703,-2.5703,-2.5703,-2.5918,-2.6269,-2.6406,-2.6543,-2.6934,-2.6269,-2.5703,-2.5703,-2.5703,-2.5703,-2.5703,-2.5663,-2.5636,-2.5605,-2.5551,-2.5468,-2.5418,-2.5371,-2.5344,-2.5303,-2.5308,-2.5308,-2.5308,-2.5308,-2.5308,-2.5308,-2.5308,-2.5308,-2.5308,-2.5308,-2.5308,-4.5594,-4.5518,-4.4883,-4.4489,-4.4162,-4.2527,-4.1431,-4.0804,-4.0593,-4.0496,-4.0496,-4.0496,-4.0496,-4.0439,-3.9842,-3.9477,-3.9111,-3.77,-3.6885,-3.6635,-3.5865,-3.55,-3.55,-3.55,-3.55,-3.55,-3.55,-3.55,-3.5404,-3.4814,-3.4391,-3.4032,-3.2526,-3.1352,-3.0712,-3.05,-3.0404,-3.0346,-2.9756,-2.8582,-2.6948,-2.6717,-2.6173,-2.5365,-2.5308,-2.5308,-2.5308,-2.5308,-2.5303,-2.5293,-2.4716,-2.4653,-2.5254,-2.4735,-2.4639,-2.5212,-2.5308,-2.5339,-2.5418,-2.5507,-2.5597,-2.561,-2.564,-2.5684,-2.5703,-2.5703,-2.5703,-2.5703,-2.5703,-2.5703,-2.5703,-2.5703,-2.5703,-2.5703,-2.5703,-2.5703,-2.5703,-2.5703,-2.5703,-2.5703,-2.5703,-2.5762,-2.5937,-2.5996,-2.6367,-2.709,-2.7148,-2.7305,-2.7695,-2.666,-2.5781,-2.5703,-2.5703,-2.5703,-2.5703,-2.5703,-2.5684,-2.5633,-2.5604,-2.5525,-2.5459,-2.5404,-2.5356,-2.5322,-2.5308,-2.5308,-2.5308,-2.5308,-2.5308,-2.5308,-2.5308,-2.5308,-2.5308,-2.5308,-2.5308,-4.5594,-4.5594,-4.5479,-4.5017,-4.4143,-4.2547,-4.1777,-4.1566,-4.0862,-4.0496,-4.0496,-4.0496,-4.0496,-4.0496,-4.04,-3.9977,-3.9304,-3.8315,-3.7469,-3.6699,-3.5865,-3.55,-3.55,-3.55,-3.55,-3.55,-3.55,-3.55,-3.5481,-3.5385,-3.4988,-3.4083,-3.2526,-3.1679,-3.1487,-3.0788,-3.0404,-3.0404,-3.0327,-2.9462,-2.7857,-2.7024,-2.6197,-2.5327,-2.5308,-2.5308,-2.5308,-2.5308,-2.5326,-2.5399,-2.5238,-2.5229,-2.5352,-2.5258,-2.5212,-2.5308,-2.5308,-2.535,-2.5463,-2.5513,-2.5558,-2.5682,-2.5615,-2.5635,-2.5683,-2.5703,-2.5703,-2.5703,-2.5703,-2.5703,-2.5703,-2.5703,-2.5703,-2.5703,-2.5703,-2.5703,-2.5703,-2.5703,-2.5703,-2.5703,-2.5703,-2.5996,-2.6621,-2.6894,-2.7285,-2.8047,-2.7695,-2.7363,-2.7422,-2.668,-2.5898,-2.5801,-2.5723,-2.5723,-2.5723,-2.5703,-2.5703,-2.5684,-2.5636,-2.5588,-2.5517,-2.545,-2.5379,-2.5339,-2.5303,-2.5308,-2.5308,-2.5308,-2.5308,-2.5308,-2.5308,-2.5308,-2.5308,-2.5308,-2.5308,-4.5594,-4.5594,-4.5594,-4.5105,-4.4239,-4.3547,-4.272,-4.1797,-4.1431,-4.0989,-4.0535,-4.0496,-4.0496,-4.0496,-4.0496,-4.0304,-3.9958,-3.9142,-3.8296,-3.745,-3.6603,-3.5962,-3.5519,-3.55,-3.55,-3.55,-3.55,-3.55,-3.55,-3.55,-3.5064,-3.4167,-3.2987,-3.2179,-3.1679,-3.0846,-3.0404,-3.0404,-3.0404,-2.9827,-2.8684,-2.7794,-2.6697,-2.5462,-2.5308,-2.5308,-2.5308,-2.5308,-2.5313,-2.5348,-2.537,-2.535,-2.5348,-2.5361,-2.5344,-2.5317,-2.5308,-2.5331,-2.5387,-2.5411,-2.5468,-2.5529,-2.5587,-2.5627,-2.5636,-2.5682,-2.5703,-2.5703,-2.5703,-2.5703,-2.5703,-2.5703,-2.5703,-2.5703,-2.5703,-2.5703,-2.5703,-2.5703,-2.5703,-2.5703,-2.5703,-2.6055,-2.6934,-2.791,-2.8613,-2.9004,-2.8691,-2.8476,-2.8437,-2.7793,-2.707,-2.6602,-2.6484,-2.6211,-2.584,-2.5703,-2.5703,-2.5703,-2.5683,-2.5654,-2.5566,-2.5547,-2.5495,-2.5368,-2.5367,-2.5348,-2.5293,-2.5288,-2.5308,-2.5308,-2.5308,-2.5308,-2.5308,-2.5308,-2.5308,-4.5594,-4.5594,-4.5594,-4.5248,-4.4652,-4.4393,-4.3489,-4.22,-4.1904,-4.1296,-4.0535,-4.0496,-4.0496,-4.0496,-4.0496,-4.0496,-4.04,-3.9669,-3.8977,-3.8257,-3.7238,-3.6385,-3.5846,-3.5577,-3.55,-3.55,-3.55,-3.55,-3.55,-3.55,-3.5161,-3.4507,-3.368,-3.2833,-3.2045,-3.1173,-3.0615,-3.0423,-3.0404,-2.9987,-2.9146,-2.8549,-2.7409,-2.5827,-2.5423,-2.5308,-2.5308,-2.5308,-2.5303,-2.5321,-2.5359,-2.5363,-2.533,-2.537,-2.5357,-2.5308,-2.5322,-2.534,-2.534,-2.5375,-2.5413,-2.5434,-2.5517,-2.5561,-2.558,-2.5633,-2.5661,-2.5703,-2.5683,-2.5684,-2.5703,-2.5703,-2.5703,-2.5703,-2.5703,-2.5703,-2.5703,-2.5859,-2.5996,-2.5781,-2.6211,-2.6758,-2.7715,-2.8984,-2.9941,-2.9941,-2.9726,-2.9609,-2.9492,-2.8789,-2.793,-2.7148,-2.6992,-2.6621,-2.5898,-2.5703,-2.5703,-2.5703,-2.5703,-2.5662,-2.5608,-2.5602,-2.5567,-2.545,-2.5438,-2.5418,-2.5387,-2.5367,-2.5322,-2.5298,-2.5293,-2.5298,-2.5308,-2.5308,-2.5308,-4.5594,-4.5594,-4.5594,-4.5575,-4.5479,-4.4682,-4.3835,-4.2912,-4.22,-4.1335,-4.0554,-4.0496,-4.0496,-4.0496,-4.0496,-4.0496,-4.04,-3.9708,-3.9304,-3.9015,-3.7546,-3.6712,-3.6596,-3.5865,-3.5519,-3.55,-3.55,-3.55,-3.55,-3.55,-3.5481,-3.5346,-3.4487,-3.3686,-3.2852,-3.2006,-3.1212,-3.0577,-3.0423,-3.0,-2.9242,-2.9088,-2.8222,-2.6731,-2.575,-2.5346,-2.5308,-2.5308,-2.5321,-2.5395,-2.5357,-2.5335,-2.5387,-2.5335,-2.5298,-2.5298,-2.535,-2.5383,-2.5399,-2.5387,-2.5408,-2.5477,-2.5447,-2.5474,-2.5561,-2.5552,-2.5606,-2.5722,-2.5753,-2.5733,-2.5859,-2.5781,-2.5703,-2.5703,-2.5703,-2.5703,-2.5703,-2.6387,-2.6484,-2.6211,-2.7129,-2.8262,-2.9277,-3.0273,-3.0684,-3.0605,-3.0117,-2.9687,-2.9648,-2.8945,-2.8164,-2.7402,-2.7031,-2.6719,-2.5918,-2.5703,-2.5703,-2.5703,-2.5684,-2.5664,-2.5625,-2.5597,-2.5547,-2.5511,-2.5496,-2.5481,-2.549,-2.5441,-2.5368,-2.5333,-2.5327,-2.5317,-2.5293,-2.5308,-2.5308,-4.5594,-4.5594,-4.5594,-4.5594,-4.5556,-4.5267,-4.4355,-4.3104,-4.2777,-4.1816,-4.065,-4.0496,-4.0496,-4.0496,-4.0496,-4.0496,-4.0477,-4.0189,-3.9804,-3.9304,-3.8642,-3.7777,-3.6712,-3.6385,-3.5981,-3.5538,-3.55,-3.55,-3.55,-3.55,-3.55,-3.5346,-3.4622,-3.4032,-3.3545,-3.2391,-3.1525,-3.1212,-3.0712,-3.0231,-2.9885,-2.9396,-2.88,-2.8179,-2.6846,-2.5865,-2.5308,-2.5308,-2.5313,-2.5315,-2.5391,-2.5402,-2.5344,-2.5313,-2.5308,-2.5293,-2.5312,-2.5335,-2.533,-2.5335,-2.5329,-2.5375,-2.5395,-2.5411,-2.5468,-2.5515,-2.5743,-2.6236,-2.6418,-2.6642,-2.6941,-2.6365,-2.5703,-2.5703,-2.5703,-2.5762,-2.5859,-2.6445,-2.6855,-2.6875,-2.8047,-2.9238,-2.9668,-3.0351,-3.0879,-3.0879,-3.0625,-3.043,-3.0391,-3.0117,-2.9394,-2.8223,-2.7793,-2.7324,-2.584,-2.5703,-2.5703,-2.5703,-2.5684,-2.5684,-2.5664,-2.5664,-2.5625,-2.5586,-2.5563,-2.5527,-2.5533,-2.5506,-2.5434,-2.5372,-2.5354,-2.5326,-2.5298,-2.5293,-2.5308,-4.5594,-4.5594,-4.5594,-4.5594,-4.5594,-4.5594,-4.4652,-4.3181,-4.3085,-4.2124,-4.0727,-4.0496,-4.0496,-4.0496,-4.0496,-4.0496,-4.0496,-4.0496,-4.0208,-3.9688,-3.9438,-3.8661,-3.7661,-3.7257,-3.6692,-3.5942,-3.5596,-3.55,-3.55,-3.55,-3.55,-3.5442,-3.4891,-3.4475,-3.4013,-3.2776,-3.1981,-3.1621,-3.0827,-3.0404,-3.0327,-2.9813,-2.9377,-2.8992,-2.8005,-2.6871,-2.5808,-2.5731,-2.5558,-2.5351,-2.5387,-2.5398,-2.5293,-2.5331,-2.533,-2.533,-2.535,-2.535,-2.5335,-2.533,-2.5317,-2.5293,-2.5344,-2.5383,-2.5414,-2.5689,-2.6149,-2.6679,-2.7128,-2.7565,-2.7782,-2.7139,-2.6516,-2.6543,-2.6543,-2.6543,-2.6582,-2.7344,-2.7949,-2.8379,-2.8984,-2.9648,-3.0019,-3.0527,-3.084,-3.0918,-3.0918,-3.0918,-3.0918,-3.0859,-3.043,-2.9023,-2.8437,-2.7656,-2.6504,-2.5996,-2.5762,-2.5703,-2.5703,-2.5703,-2.5703,-2.5703,-2.5684,-2.5644,-2.5625,-2.5586,-2.5563,-2.5545,-2.5501,-2.5428,-2.5387,-2.5359,-2.533,-2.5288,-2.5293,-4.5594,-4.5594,-4.5594,-4.5594,-4.5594,-4.5594,-4.4643,-4.3335,-4.3124,-4.2162,-4.0777,-4.0535,-4.0496,-4.0496,-4.0496,-4.0496,-4.0489,-4.0473,-4.0462,-4.0323,-3.9727,-3.9323,-3.9034,-3.8334,-3.7469,-3.6577,-3.5885,-3.5538,-3.55,-3.55,-3.55,-3.55,-3.5442,-3.5007,-3.4257,-3.3391,-3.2526,-3.1814,-3.0981,-3.0481,-3.0404,-3.0308,-2.9948,-2.93,-2.9069,-2.8275,-2.675,-2.6635,-2.6236,-2.55,-2.5404,-2.5317,-2.5322,-2.5354,-2.5395,-2.5398,-2.5453,-2.5459,-2.5424,-2.5453,-2.5485,-2.5351,-2.5337,-2.5504,-2.5642,-2.6129,-2.6657,-2.7122,-2.7627,-2.8117,-2.8239,-2.8207,-2.8063,-2.8223,-2.7969,-2.7988,-2.8242,-2.8984,-2.9883,-3.0332,-3.0156,-3.0059,-3.0625,-3.0879,-3.0918,-3.0918,-3.0918,-3.0918,-3.0918,-3.0918,-3.0508,-2.9687,-2.8945,-2.8125,-2.7187,-2.6328,-2.5977,-2.5723,-2.5703,-2.5703,-2.5703,-2.5703,-2.5703,-2.5664,-2.5664,-2.5644,-2.5625,-2.5598,-2.5549,-2.5479,-2.5447,-2.5402,-2.5354,-2.5321,-2.5308,-4.5594,-4.5594,-4.5594,-4.5594,-4.5594,-4.5594,-4.4932,-4.3893,-4.3355,-4.245,-4.1431,-4.0766,-4.0496,-4.0496,-4.0496,-4.0496,-4.0481,-4.033,-4.0321,-4.0407,-4.0219,-3.9815,-3.9335,-3.9015,-3.8142,-3.6885,-3.6462,-3.6019,-3.5577,-3.55,-3.55,-3.55,-3.55,-3.5365,-3.5045,-3.4237,-3.3372,-3.2526,-3.1712,-3.1038,-3.0462,-3.0404,-3.025,-3.0038,-3.0,-2.9448,-2.839,-2.7799,-2.7101,-2.6236,-2.6255,-2.6009,-2.5506,-2.5333,-2.537,-2.5383,-2.5375,-2.5413,-2.5534,-2.5882,-2.5916,-2.5612,-2.5856,-2.6174,-2.6227,-2.6472,-2.7156,-2.8091,-2.8664,-2.9024,-2.9614,-2.9787,-2.9327,-2.8294,-2.8193,-2.8327,-2.8486,-2.9099,-2.9941,-3.0703,-3.0664,-3.0664,-3.082,-3.0918,-3.0918,-3.0918,-3.0918,-3.0918,-3.0918,-3.0918,-3.0566,-2.9726,-2.918,-2.8613,-2.7539,-2.6699,-2.6289,-2.5879,-2.5703,-2.5703,-2.5703,-2.5703,-2.5703,-2.5703,-2.5703,-2.5684,-2.5684,-2.5656,-2.5599,-2.5564,-2.5541,-2.5479,-2.5395,-2.5354,-2.5329,-4.5541,-4.5419,-4.541,-4.5419,-4.54,-4.5283,-4.4805,-4.4097,-4.3436,-4.2747,-4.1989,-4.1182,-4.0877,-4.0885,-4.0669,-4.0449,-4.0347,-4.0186,-4.012,-4.0203,-4.0311,-4.004,-3.9597,-3.9369,-3.8604,-3.7346,-3.6873,-3.6269,-3.5519,-3.55,-3.55,-3.55,-3.55,-3.5481,-3.5404,-3.4622,-3.3776,-3.2929,-3.2102,-3.1269,-3.0596,-3.0404,-3.0404,-3.0404,-3.0404,-3.0121,-2.9563,-2.9063,-2.8121,-2.6862,-2.6366,-2.5904,-2.5406,-2.5357,-2.5354,-2.5391,-2.5356,-2.5372,-2.5502,-2.5807,-2.5933,-2.5599,-2.614,-2.6582,-2.6717,-2.7005,-2.8102,-2.8874,-2.9433,-2.9868,-3.0327,-3.049,-2.9986,-2.9125,-2.9107,-2.9088,-2.9208,-2.9636,-3.0195,-3.0762,-3.0879,-3.0918,-3.0918,-3.0918,-3.0918,-3.0918,-3.0918,-3.0918,-3.0918,-3.0918,-3.0488,-3.0078,-2.9687,-2.8867,-2.7773,-2.7109,-2.6602,-2.6133,-2.5703,-2.5703,-2.5703,-2.5703,-2.5703,-2.5703,-2.5703,-2.5703,-2.5684,-2.5684,-2.566,-2.5636,-2.5602,-2.5524,-2.5431,-2.5383,-2.5364,-4.541,-4.5107,-4.5096,-4.5096,-4.5041,-4.4788,-4.4388,-4.3881,-4.3457,-4.3019,-4.2438,-4.1626,-4.138,-4.1481,-4.0838,-4.0372,-4.0139,-4.0042,-3.9851,-3.9735,-3.9861,-3.9966,-4.0003,-3.9676,-3.9008,-3.8084,-3.7257,-3.6423,-3.5731,-3.5558,-3.55,-3.55,-3.55,-3.55,-3.5365,-3.4661,-3.3949,-3.3122,-3.2256,-3.1423,-3.0596,-3.0404,-3.0404,-3.0404,-3.0404,-3.0365,-3.0269,-3.0019,-2.9044,-2.7024,-2.6106,-2.5616,-2.5414,-2.5425,-2.5387,-2.5534,-2.5495,-2.5631,-2.5569,-2.6032,-2.5808,-2.5673,-2.6429,-2.6697,-2.6967,-2.7986,-2.8915,-2.9319,-2.9902,-3.0325,-3.0383,-3.0419,-3.0323,-3.0392,-3.0222,-3.0347,-3.0624,-3.0615,-3.069,-3.0819,-3.0898,-3.0918,-3.0918,-3.0918,-3.0918,-3.0918,-3.0918,-3.0918,-3.0918,-3.0918,-3.0918,-3.0586,-3.0156,-2.9277,-2.8223,-2.7695,-2.7109,-2.6055,-2.5703,-2.5703,-2.5703,-2.5703,-2.5703,-2.5703,-2.5703,-2.5703,-2.5703,-2.5703,-2.5684,-2.5658,-2.5599,-2.5535,-2.5503,-2.5454,-2.5428,-4.541,-4.5107,-4.5115,-4.4954,-4.4732,-4.4637,-4.4518,-4.4298,-4.3592,-4.3209,-4.2827,-4.1816,-4.1349,-4.1342,-4.0773,-4.0356,-4.0062,-3.9829,-3.9552,-3.9276,-3.9302,-3.98,-4.0266,-4.0246,-3.9727,-3.8892,-3.8046,-3.7231,-3.6385,-3.5808,-3.5538,-3.55,-3.55,-3.55,-3.5423,-3.5231,-3.4718,-3.3872,-3.3013,-3.2179,-3.1365,-3.0712,-3.0404,-3.0404,-3.0404,-3.0404,-3.0327,-2.9756,-2.9242,-2.8467,-2.7005,-2.6269,-2.6197,-2.5774,-2.5747,-2.6242,-2.6335,-2.6631,-2.7272,-2.7696,-2.746,-2.6595,-2.7513,-2.8184,-2.7621,-2.8492,-2.9352,-2.989,-3.0327,-3.0404,-3.0404,-3.0404,-3.0404,-3.0427,-3.0477,-3.0544,-3.0625,-3.0675,-3.072,-3.0747,-3.0837,-3.0898,-3.0898,-3.0918,-3.0918,-3.0918,-3.0918,-3.0918,-3.0918,-3.0918,-3.0918,-3.0918,-3.0508,-2.9629,-2.8828,-2.8301,-2.7461,-2.6133,-2.5703,-2.5703,-2.5703,-2.5703,-2.5703,-2.5703,-2.5703,-2.5703,-2.5703,-2.5703,-2.5684,-2.5664,-2.5664,-2.5605,-2.5586,-2.5554,-2.5524,-4.5313,-4.4896,-4.4896,-4.4682,-4.4332,-4.4194,-4.4209,-4.4201,-4.3679,-4.324,-4.2868,-4.1927,-4.1313,-4.1079,-4.0434,-3.9964,-3.9679,-3.9474,-3.9236,-3.9013,-3.9205,-3.9694,-4.0221,-4.0414,-4.0092,-3.9342,-3.8796,-3.7853,-3.6827,-3.6192,-3.5865,-3.5538,-3.55,-3.55,-3.55,-3.5462,-3.5077,-3.4257,-3.3628,-3.291,-3.1756,-3.1212,-3.075,-3.0519,-3.0404,-3.0404,-3.0308,-2.991,-2.9506,-2.8929,-2.7871,-2.714,-2.7101,-2.6697,-2.6675,-2.7199,-2.7156,-2.7441,-2.7901,-2.8391,-2.8144,-2.7605,-2.8447,-2.8753,-2.8665,-2.9159,-2.9962,-3.0288,-3.0385,-3.0404,-3.0404,-3.0404,-3.0404,-3.0416,-3.0425,-3.0472,-3.054,-3.0594,-3.0619,-3.0669,-3.074,-3.0816,-3.0816,-3.0858,-3.0898,-3.0918,-3.0918,-3.0918,-3.0918,-3.0918,-3.0918,-3.0918,-3.0742,-2.9941,-2.9023,-2.8398,-2.7441,-2.6172,-2.5703,-2.5703,-2.5703,-2.5703,-2.5703,-2.5703,-2.5703,-2.5703,-2.5703,-2.5703,-2.5684,-2.5684,-2.5703,-2.5684,-2.5625,-2.5627,-2.559,-4.5243,-4.4644,-4.4606,-4.4359,-4.4001,-4.3662,-4.371,-4.3849,-4.3621,-4.3192,-4.2657,-4.192,-4.1301,-4.0795,-4.0046,-3.945,-3.9133,-3.916,-3.8975,-3.8952,-3.9203,-3.9649,-3.9913,-4.0345,-4.0135,-3.9573,-3.94,-3.8354,-3.7231,-3.6796,-3.619,-3.5605,-3.5432,-3.5446,-3.5398,-3.5432,-3.5037,-3.4545,-3.4186,-3.3333,-3.2179,-3.1679,-3.1154,-3.05,-3.0404,-3.0404,-3.0404,-3.0288,-3.0038,-2.9261,-2.8448,-2.8044,-2.7992,-2.7972,-2.7934,-2.7997,-2.8035,-2.8093,-2.8228,-2.8469,-2.8242,-2.8233,-2.8791,-2.9146,-2.9198,-2.9737,-3.0288,-3.0385,-3.0404,-3.0404,-3.0404,-3.0404,-3.0404,-3.0404,-3.0396,-3.0439,-3.0467,-3.0494,-3.0521,-3.0584,-3.0637,-3.0684,-3.0722,-3.0793,-3.0879,-3.0918,-3.0918,-3.0918,-3.0918,-3.0918,-3.0918,-3.0918,-3.0625,-3.0234,-2.9297,-2.8398,-2.7285,-2.6152,-2.582,-2.5703,-2.5703,-2.5703,-2.5703,-2.5703,-2.5703,-2.5703,-2.5703,-2.5703,-2.5703,-2.5703,-2.5703,-2.5664,-2.5634,-2.5636,-2.5629,-4.5352,-4.4966,-4.4695,-4.4378,-4.3986,-4.3646,-4.3548,-4.3631,-4.3548,-4.3105,-4.241,-4.1842,-4.1162,-4.0413,-3.9815,-3.9414,-3.9099,-3.9058,-3.8961,-3.8777,-3.9027,-3.9212,-3.951,-4.0082,-4.0369,-4.0042,-3.9546,-3.8731,-3.7793,-3.6975,-3.6189,-3.5359,-3.5253,-3.519,-3.5171,-3.5198,-3.5258,-3.5088,-3.4577,-3.375,-3.2756,-3.2025,-3.1327,-3.05,-3.0404,-3.0404,-3.0404,-3.0404,-3.0308,-2.9967,-2.9352,-2.8852,-2.8761,-2.8338,-2.8332,-2.8723,-2.8876,-2.9121,-2.9654,-2.9679,-2.9544,-2.9006,-2.9506,-2.9833,-2.9204,-2.9904,-3.0346,-3.0404,-3.0404,-3.0404,-3.0404,-3.0404,-3.0404,-3.0404,-3.0404,-3.0396,-3.0428,-3.0458,-3.0498,-3.0525,-3.0581,-3.0648,-3.0687,-3.0695,-3.0781,-3.0879,-3.0918,-3.0918,-3.0918,-3.0918,-3.0918,-3.0918,-3.0781,-3.0391,-2.9453,-2.8418,-2.7168,-2.6211,-2.5859,-2.5703,-2.5703,-2.5703,-2.5703,-2.5703,-2.5703,-2.5703,-2.5703,-2.5703,-2.5703,-2.5703,-2.5703,-2.5684,-2.5664,-2.5664,-2.5664,-4.541,-4.5085,-4.4908,-4.4612,-4.4266,-4.3896,-4.3724,-4.3693,-4.3565,-4.3039,-4.2283,-4.1665,-4.0892,-4.0074,-3.9477,-3.9059,-3.8947,-3.8909,-3.8826,-3.8758,-3.8975,-3.9099,-3.9199,-3.9705,-4.0072,-3.9996,-3.9681,-3.8975,-3.8164,-3.7394,-3.6559,-3.5514,-3.5226,-3.5035,-3.4907,-3.4917,-3.5043,-3.5181,-3.489,-3.4256,-3.3513,-3.2679,-3.1577,-3.0654,-3.0404,-3.0404,-3.0404,-3.0404,-3.0404,-3.0288,-2.9962,-2.9698,-2.9679,-2.9313,-2.9333,-2.9602,-2.9717,-2.9871,-3.0308,-3.0365,-3.0154,-2.9737,-3.0173,-3.0083,-2.9871,-3.0173,-3.0346,-3.0404,-3.0404,-3.0404,-3.0404,-3.0404,-3.0404,-3.0404,-3.0404,-3.0404,-3.0396,-3.0419,-3.0447,-3.0472,-3.0501,-3.057,-3.0603,-3.0626,-3.0684,-3.0781,-3.0801,-3.0801,-3.0898,-3.0898,-3.0918,-3.0918,-3.0918,-3.0508,-2.957,-2.8437,-2.707,-2.6269,-2.5781,-2.5703,-2.5703,-2.5703,-2.5703,-2.5703,-2.5703,-2.5703,-2.5703,-2.5703,-2.5703,-2.5703,-2.5703,-2.5703,-2.5703,-2.5684,-2.5684,-4.5429,-4.515,-4.5074,-4.4884,-4.4631,-4.419,-4.3986,-4.3958,-4.3756,-4.3221,-4.232,-4.1583,-4.1104,-4.0113,-3.9341,-3.8906,-3.8723,-3.8719,-3.8704,-3.8732,-3.8898,-3.8985,-3.909,-3.9301,-3.9476,-3.9469,-3.9547,-3.9097,-3.834,-3.7685,-3.6728,-3.5874,-3.5201,-3.4812,-3.4645,-3.4624,-3.4745,-3.4961,-3.5018,-3.466,-3.3997,-3.3166,-3.2,-3.0712,-3.0404,-3.0404,-3.0404,-3.0404,-3.0404,-3.0404,-3.0404,-3.0404,-3.0404,-3.0404,-3.0404,-3.0385,-3.0288,-3.0308,-3.0346,-3.0404,-3.0365,-3.0404,-3.0404,-3.0404,-3.0365,-3.0346,-3.0385,-3.0404,-3.0404,-3.0404,-3.0404,-3.0404,-3.0404,-3.0404,-3.0404,-3.0404,-3.0404,-3.0404,-3.0402,-3.0414,-3.0447,-3.0485,-3.0525,-3.0558,-3.0608,-3.0671,-3.0682,-3.0717,-3.0815,-3.0859,-3.0859,-3.0918,-3.0918,-3.0547,-2.9648,-2.875,-2.7344,-2.6465,-2.5898,-2.5703,-2.5703,-2.5703,-2.5703,-2.5703,-2.5703,-2.5703,-2.5703,-2.5703,-2.5703,-2.5703,-2.5703,-2.5703,-2.5703,-2.5703,-2.5703,-4.5568,-4.5457,-4.4919,-4.4812,-4.4877,-4.4285,-4.4043,-4.4058,-4.4313,-4.3603,-4.2458,-4.2415,-4.1835,-4.0917,-4.0047,-3.9386,-3.8946,-3.8762,-3.8707,-3.8707,-3.8792,-3.8803,-3.8829,-3.8898,-3.8917,-3.9013,-3.9249,-3.9072,-3.8312,-3.7538,-3.6765,-3.5677,-3.4866,-3.445,-3.4341,-3.4292,-3.4453,-3.4725,-3.4907,-3.4632,-3.4048,-3.3318,-3.2237,-3.075,-3.0558,-3.0462,-3.0404,-3.0404,-3.0404,-3.0404,-3.0404,-3.0404,-3.0404,-3.0404,-3.0404,-3.0404,-3.0404,-3.0404,-3.0404,-3.0404,-3.0404,-3.0404,-3.0404,-3.0404,-3.0404,-3.0404,-3.0404,-3.0404,-3.0404,-3.0404,-3.0404,-3.0404,-3.0404,-3.0404,-3.0404,-3.0404,-3.0404,-3.0404,-3.0404,-3.039,-3.0411,-3.043,-3.0463,-3.0503,-3.0536,-3.0597,-3.062,-3.0657,-3.0734,-3.0766,-3.0781,-3.084,-3.0918,-3.0391,-2.9726,-2.8848,-2.7793,-2.6855,-2.6211,-2.5723,-2.5703,-2.5703,-2.5703,-2.5703,-2.5703,-2.5703,-2.5703,-2.5703,-2.5703,-2.5703,-2.5703,-2.5703,-2.5703,-2.5703,-2.5703,-4.5594,-4.5568,-4.5243,-4.5211,-4.5243,-4.4799,-4.4574,-4.4555,-4.4574,-4.4069,-4.3311,-4.2902,-4.2409,-4.165,-4.0891,-4.0084,-3.9405,-3.8836,-3.8726,-3.8707,-3.8707,-3.8707,-3.8707,-3.8707,-3.8707,-3.8762,-3.8975,-3.8987,-3.8476,-3.7879,-3.692,-3.6016,-3.5188,-3.4618,-3.4129,-3.4012,-3.4165,-3.4412,-3.4566,-3.4624,-3.4391,-3.3834,-3.2705,-3.1545,-3.1019,-3.0846,-3.0442,-3.0404,-3.0404,-3.0404,-3.0404,-3.0404,-3.0404,-3.0404,-3.0404,-3.0404,-3.0404,-3.0404,-3.0404,-3.0404,-3.0404,-3.0404,-3.0404,-3.0404,-3.0404,-3.0404,-3.0404,-3.0404,-3.0404,-3.0404,-3.0404,-3.0404,-3.0404,-3.0404,-3.0404,-3.0404,-3.0404,-3.0404,-3.0404,-3.0404,-3.0402,-3.0411,-3.0428,-3.0457,-3.0491,-3.0501,-3.0548,-3.0591,-3.065,-3.0663,-3.0693,-3.0723,-3.0781,-3.0449,-2.9844,-2.9062,-2.8223,-2.7305,-2.6484,-2.5996,-2.5684,-2.5684,-2.5684,-2.5703,-2.5703,-2.5684,-2.5703,-2.5703,-2.5703,-2.5703,-2.5703,-2.5703,-2.5703,-2.5703,-2.5703,-4.555,-4.5586,-4.5448,-4.5466,-4.5522,-4.5232,-4.5085,-4.5052,-4.4908,-4.4561,-4.4067,-4.3549,-4.3096,-4.2461,-4.1548,-4.0634,-3.9861,-3.9056,-3.8726,-3.8707,-3.8707,-3.8707,-3.8707,-3.8707,-3.8707,-3.8689,-3.875,-3.8707,-3.8549,-3.8035,-3.7244,-3.6325,-3.5692,-3.4883,-3.4034,-3.3873,-3.3979,-3.4056,-3.42,-3.4484,-3.4606,-3.4364,-3.3506,-3.2122,-3.1929,-3.1621,-3.1173,-3.0865,-3.0788,-3.0673,-3.0538,-3.0404,-3.0404,-3.0404,-3.0404,-3.0404,-3.0404,-3.0404,-3.0404,-3.0404,-3.0404,-3.0404,-3.0404,-3.0404,-3.0404,-3.0404,-3.0404,-3.0404,-3.0404,-3.0404,-3.0404,-3.0404,-3.0404,-3.0404,-3.0404,-3.0404,-3.0404,-3.0404,-3.0404,-3.0404,-3.0404,-3.0396,-3.0419,-3.0425,-3.0451,-3.0467,-3.0482,-3.0509,-3.0558,-3.0578,-3.06,-3.0628,-3.0586,-3.043,-2.9961,-2.9336,-2.8516,-2.7695,-2.6855,-2.6211,-2.5898,-2.5664,-2.5664,-2.5664,-2.5664,-2.5664,-2.5684,-2.5703,-2.5703,-2.5703,-2.5703,-2.5703,-2.5703,-2.5703,-2.5703,-4.5332,-4.5559,-4.4977,-4.5063,-4.5504,-4.5243,-4.5107,-4.5159,-4.5361,-4.5118,-4.4521,-4.4643,-4.4276,-4.3308,-4.1721,-4.0669,-3.9863,-3.9111,-3.8707,-3.8707,-3.8707,-3.8707,-3.8707,-3.8707,-3.8707,-3.8707,-3.8707,-3.8707,-3.8557,-3.7989,-3.718,-3.6346,-3.5574,-3.4642,-3.3912,-3.3807,-3.3815,-3.3889,-3.4093,-3.4162,-3.4103,-3.4184,-3.3685,-3.3064,-3.2756,-3.2622,-3.2256,-3.1833,-3.1538,-3.1462,-3.0808,-3.0462,-3.0404,-3.0404,-3.0404,-3.0404,-3.0404,-3.0404,-3.0404,-3.0404,-3.0404,-3.0404,-3.0404,-3.0404,-3.0404,-3.0404,-3.0404,-3.0404,-3.0404,-3.0404,-3.0404,-3.0404,-3.0404,-3.0404,-3.0404,-3.0404,-3.0404,-3.0404,-3.0404,-3.0404,-3.0404,-3.0404,-3.0396,-3.039,-3.0396,-3.0408,-3.0436,-3.0457,-3.0491,-3.0503,-3.0541,-3.0568,-3.0594,-3.0438,-3.0162,-2.9538,-2.8782,-2.8004,-2.7217,-2.6423,-2.5929,-2.5609,-2.5605,-2.5605,-2.5609,-2.5635,-2.5664,-2.5684,-2.5684,-2.5703,-2.5703,-2.5703,-2.5703,-2.5703,-2.5703,-4.5019,-4.5293,-4.5192,-4.5222,-4.5312,-4.5371,-4.539,-4.541,-4.5541,-4.5351,-4.4919,-4.4812,-4.4175,-4.2875,-4.1195,-4.0283,-3.9753,-3.9074,-3.8707,-3.8707,-3.8707,-3.8707,-3.8707,-3.8707,-3.8707,-3.8707,-3.8707,-3.8707,-3.8542,-3.8267,-3.7606,-3.6376,-3.5881,-3.5069,-3.3954,-3.3825,-3.3807,-3.3876,-3.4043,-3.4236,-3.4349,-3.45,-3.4364,-3.3699,-3.3622,-3.3391,-3.2968,-3.2641,-3.2372,-3.2237,-3.1577,-3.1154,-3.1,-3.0731,-3.0404,-3.0404,-3.0404,-3.0404,-3.0404,-3.0404,-3.0404,-3.0404,-3.0404,-3.0404,-3.0404,-3.0404,-3.0404,-3.0404,-3.0404,-3.0404,-3.0404,-3.0404,-3.0404,-3.0404,-3.0404,-3.0404,-3.0404,-3.0404,-3.0404,-3.0404,-3.0404,-3.0404,-3.0404,-3.0404,-3.0404,-3.041,-3.0416,-3.0422,-3.043,-3.0436,-3.0482,-3.0529,-3.0552,-3.0515,-3.0233,-2.9781,-2.8968,-2.8197,-2.745,-2.6655,-2.5881,-2.5558,-2.5634,-2.5623,-2.5593,-2.5625,-2.5656,-2.5684,-2.5703,-2.5703,-2.5703,-2.5703,-2.5703,-2.5703,-2.5703,-4.4769,-4.4865,-4.5192,-4.5302,-4.5243,-4.5495,-4.5586,-4.5566,-4.5254,-4.5016,-4.4663,-4.4115,-4.3127,-4.205,-4.0712,-3.9937,-3.9863,-3.9056,-3.8762,-3.8707,-3.8707,-3.8707,-3.8707,-3.8707,-3.8707,-3.8707,-3.8707,-3.8707,-3.8634,-3.8303,-3.7514,-3.6358,-3.6211,-3.5293,-3.4229,-3.3807,-3.3807,-3.3829,-3.4068,-3.4342,-3.4639,-3.4924,-3.4837,-3.4644,-3.4449,-3.4218,-3.366,-3.3276,-3.3218,-3.3083,-3.2429,-3.2006,-3.1891,-3.1295,-3.0885,-3.0769,-3.0654,-3.0404,-3.0404,-3.0404,-3.0404,-3.0404,-3.0404,-3.0404,-3.0404,-3.0404,-3.0404,-3.0404,-3.0404,-3.0404,-3.0404,-3.0404,-3.0404,-3.0404,-3.0404,-3.0404,-3.0404,-3.0404,-3.0404,-3.0404,-3.0404,-3.0404,-3.0404,-3.0404,-3.0404,-3.0404,-3.0404,-3.0404,-3.0385,-3.039,-3.0433,-3.0482,-3.0486,-3.05,-3.0326,-2.9888,-2.9107,-2.8523,-2.7792,-2.7017,-2.6325,-2.5928,-2.5892,-2.5812,-2.5634,-2.5551,-2.5563,-2.5625,-2.5703,-2.5703,-2.5703,-2.5703,-2.5703,-2.5703,-2.5703,-4.4676,-4.4102,-4.4527,-4.5019,-4.5513,-4.5586,-4.5586,-4.5464,-4.4547,-4.4119,-4.3805,-4.2554,-4.1871,-4.1315,-4.0406,-3.9772,-3.9806,-3.9056,-3.8781,-3.8707,-3.8707,-3.8707,-3.8707,-3.8707,-3.8707,-3.8707,-3.8707,-3.8707,-3.8524,-3.8025,-3.7221,-3.6413,-3.6156,-3.5183,-3.4302,-3.3807,-3.3807,-3.3842,-3.4031,-3.4353,-3.4674,-3.4944,-3.5111,-3.5324,-3.5346,-3.5346,-3.5231,-3.4507,-3.4103,-3.4064,-3.3295,-3.2852,-3.2679,-3.2025,-3.1615,-3.1288,-3.1058,-3.0808,-3.0673,-3.0481,-3.0404,-3.0404,-3.0404,-3.0404,-3.0404,-3.0404,-3.0404,-3.0404,-3.0404,-3.0404,-3.0404,-3.0404,-3.0404,-3.0404,-3.0404,-3.0404,-3.0404,-3.0404,-3.0404,-3.0404,-3.0404,-3.0404,-3.0404,-3.0404,-3.0404,-3.0404,-3.0404,-3.0404,-3.0404,-3.0385,-3.0404,-3.0411,-3.0406,-3.0411,-3.0417,-2.9988,-2.9586,-2.9175,-2.8566,-2.7738,-2.6919,-2.6613,-2.6204,-2.5874,-2.5677,-2.5568,-2.5488,-2.5566,-2.5644,-2.5684,-2.5684,-2.5684,-2.5684,-2.5703,-2.5703,-4.4401,-4.4346,-4.4294,-4.4521,-4.4981,-4.5192,-4.5302,-4.5235,-4.4826,-4.4037,-4.3056,-4.1613,-4.075,-4.0362,-3.9672,-3.9166,-3.9111,-3.8909,-3.8726,-3.8707,-3.8707,-3.8707,-3.8707,-3.8707,-3.8707,-3.8707,-3.8707,-3.8707,-3.8615,-3.7823,-3.7088,-3.6431,-3.5826,-3.489,-3.4119,-3.3807,-3.3807,-3.3834,-3.3941,-3.4196,-3.4643,-3.4812,-3.5062,-3.546,-3.55,-3.55,-3.5404,-3.5192,-3.5045,-3.4776,-3.4122,-3.3833,-3.3564,-3.2872,-3.2295,-3.1948,-3.1737,-3.1602,-3.1121,-3.0769,-3.0404,-3.0404,-3.0404,-3.0404,-3.0404,-3.0404,-3.0404,-3.0404,-3.0404,-3.0404,-3.0404,-3.0404,-3.0404,-3.0404,-3.0404,-3.0404,-3.0404,-3.0404,-3.0404,-3.0404,-3.0404,-3.0404,-3.0404,-3.0404,-3.0404,-3.0404,-3.0404,-3.0404,-3.0404,-3.0404,-3.0404,-3.0404,-3.0404,-3.0404,-3.0396,-3.0263,-3.0108,-2.9714,-2.9281,-2.8504,-2.7651,-2.6862,-2.6459,-2.6087,-2.5742,-2.561,-2.554,-2.5548,-2.5566,-2.5605,-2.5644,-2.5644,-2.5664,-2.5684,-2.5703,-4.4106,-4.4256,-4.3974,-4.415,-4.4593,-4.4842,-4.4962,-4.4836,-4.4211,-4.3107,-4.1538,-4.034,-3.9782,-3.9412,-3.9019,-3.8744,-3.8781,-3.8726,-3.8707,-3.8707,-3.8707,-3.8707,-3.8707,-3.8707,-3.8707,-3.8707,-3.8707,-3.8707,-3.8652,-3.7624,-3.6886,-3.6119,-3.5202,-3.4339,-3.4009,-3.3807,-3.3807,-3.3807,-3.386,-3.4043,-3.4497,-3.4684,-3.4793,-3.5239,-3.5376,-3.5432,-3.5405,-3.5316,-3.5404,-3.5257,-3.493,-3.4641,-3.4276,-3.3795,-3.3064,-3.2776,-3.2602,-3.2602,-3.2025,-3.1352,-3.0692,-3.0481,-3.0404,-3.0404,-3.0404,-3.0404,-3.0404,-3.0404,-3.0404,-3.0404,-3.0404,-3.0404,-3.0404,-3.0404,-3.0404,-3.0404,-3.0404,-3.0404,-3.0404,-3.0404,-3.0404,-3.0404,-3.0404,-3.0404,-3.0404,-3.0404,-3.0404,-3.0404,-3.0404,-3.0404,-3.0404,-3.0404,-3.0404,-3.0404,-3.0385,-3.0298,-3.0224,-3.0133,-2.9694,-2.922,-2.8425,-2.7642,-2.6859,-2.6409,-2.6062,-2.5719,-2.553,-2.5441,-2.5479,-2.5547,-2.5575,-2.5609,-2.5644,-2.5664,-2.5684,-4.3802,-4.3512,-4.3531,-4.3931,-4.4501,-4.4612,-4.4587,-4.4227,-4.2575,-4.088,-3.9439,-3.8967,-3.8879,-3.8817,-3.8726,-3.8707,-3.8707,-3.8707,-3.8707,-3.8707,-3.8707,-3.8707,-3.8707,-3.8707,-3.8707,-3.8707,-3.8707,-3.8707,-3.867,-3.7239,-3.6486,-3.5862,-3.4871,-3.3954,-3.3825,-3.3807,-3.3807,-3.3807,-3.3807,-3.3986,-3.4253,-3.45,-3.4675,-3.4889,-3.5231,-3.5339,-3.5273,-3.5398,-3.5474,-3.5423,-3.5385,-3.5238,-3.5141,-3.4564,-3.4083,-3.391,-3.3353,-3.3064,-3.2814,-3.2102,-3.1385,-3.0692,-3.0596,-3.0404,-3.0404,-3.0404,-3.0404,-3.0404,-3.0404,-3.0404,-3.0404,-3.0404,-3.0404,-3.0404,-3.0404,-3.0404,-3.0404,-3.0404,-3.0404,-3.0404,-3.0404,-3.0404,-3.0404,-3.0404,-3.0404,-3.0404,-3.0404,-3.0404,-3.0404,-3.0404,-3.0404,-3.0404,-3.0404,-3.0404,-3.0404,-3.0404,-3.0352,-3.0314,-3.0127,-2.9677,-2.9297,-2.8727,-2.7907,-2.6986,-2.6391,-2.6029,-2.564,-2.5313,-2.5387,-2.5474,-2.5552,-2.5598,-2.5609,-2.5625,-2.5644,-4.3282,-4.2745,-4.3259,-4.3647,-4.3884,-4.4106,-4.3924,-4.31,-4.1401,-4.0078,-3.9473,-3.8982,-3.8707,-3.8707,-3.8704,-3.8719,-3.8704,-3.8707,-3.8707,-3.8707,-3.8707,-3.8707,-3.8707,-3.8707,-3.8707,-3.8707,-3.8707,-3.8707,-3.8689,-3.7165,-3.645,-3.5862,-3.4669,-3.3917,-3.3807,-3.3807,-3.3807,-3.3807,-3.3829,-3.3923,-3.4164,-3.4334,-3.4467,-3.4655,-3.5025,-3.5174,-3.5124,-3.532,-3.5453,-3.5481,-3.55,-3.55,-3.55,-3.5007,-3.4776,-3.4564,-3.4122,-3.4334,-3.3757,-3.2968,-3.216,-3.1468,-3.0731,-3.0442,-3.0404,-3.0404,-3.0404,-3.0404,-3.0404,-3.0404,-3.0404,-3.0404,-3.0404,-3.0404,-3.0404,-3.0404,-3.0404,-3.0404,-3.0404,-3.0404,-3.0404,-3.0404,-3.0404,-3.0404,-3.0404,-3.0404,-3.0404,-3.0404,-3.0404,-3.0404,-3.0404,-3.0404,-3.0404,-3.0404,-3.0404,-3.0404,-3.0404,-3.0365,-3.0346,-3.0217,-2.9852,-2.9492,-2.8723,-2.7698,-2.7005,-2.6346,-2.5769,-2.5293,-2.5317,-2.5383,-2.5465,-2.5529,-2.5545,-2.5556,-2.5566,-4.2359,-4.1974,-4.2433,-4.2671,-4.2796,-4.3502,-4.3225,-4.2063,-4.0578,-3.9753,-3.9399,-3.8991,-3.884,-3.8844,-3.8844,-3.8844,-3.8829,-3.8735,-3.8707,-3.8707,-3.8707,-3.8707,-3.8707,-3.8707,-3.8707,-3.8707,-3.8707,-3.8707,-3.867,-3.7386,-3.6431,-3.5587,-3.4504,-3.3954,-3.3807,-3.3807,-3.3807,-3.3807,-3.3815,-3.3881,-3.4031,-3.4159,-3.4253,-3.4423,-3.4685,-3.4944,-3.5044,-3.5198,-3.5398,-3.5453,-3.55,-3.55,-3.55,-3.5404,-3.5218,-3.5026,-3.5007,-3.5141,-3.4603,-3.384,-3.3141,-3.2699,-3.1308,-3.05,-3.0404,-3.0404,-3.0404,-3.0404,-3.0417,-3.0456,-3.0488,-3.0469,-3.0507,-3.0507,-3.0481,-3.0481,-3.0404,-3.0404,-3.0404,-3.0404,-3.0404,-3.0404,-3.0404,-3.0404,-3.0404,-3.0404,-3.0404,-3.0404,-3.0404,-3.0404,-3.0404,-3.0404,-3.0404,-3.0404,-3.0404,-3.0404,-3.0404,-3.0404,-3.0404,-3.0404,-3.0308,-2.991,-2.9159,-2.8453,-2.7678,-2.6832,-2.5769,-2.5298,-2.5313,-2.534,-2.5375,-2.5434,-2.5462,-2.5493,-2.5513,-4.1095,-4.1058,-4.1077,-4.1187,-4.1405,-4.263,-4.2393,-4.1036,-4.0191,-3.942,-3.8768,-3.9041,-3.909,-3.9112,-3.9125,-3.9085,-3.9022,-3.8829,-3.8732,-3.8707,-3.8707,-3.8707,-3.8707,-3.8707,-3.8707,-3.8707,-3.8707,-3.8689,-3.8615,-3.7477,-3.634,-3.5165,-3.4211,-3.388,-3.3807,-3.3807,-3.3807,-3.3807,-3.382,-3.3847,-3.3915,-3.4031,-3.4031,-3.4153,-3.4375,-3.4674,-3.4813,-3.4999,-3.5231,-3.5369,-3.5486,-3.5486,-3.5493,-3.5493,-3.55,-3.5481,-3.5462,-3.5404,-3.5231,-3.4468,-3.3917,-3.3263,-3.1852,-3.0904,-3.05,-3.0552,-3.0476,-3.0567,-3.0644,-3.0644,-3.0643,-3.0701,-3.0739,-3.0694,-3.0615,-3.0538,-3.0423,-3.0404,-3.0404,-3.0404,-3.0404,-3.0404,-3.0404,-3.0404,-3.0404,-3.0404,-3.0404,-3.0404,-3.0404,-3.0404,-3.0404,-3.0404,-3.0404,-3.0404,-3.0404,-3.0404,-3.0404,-3.0404,-3.0404,-3.0385,-3.0346,-3.0231,-2.9602,-2.8909,-2.8236,-2.7255,-2.5865,-2.5308,-2.5313,-2.5327,-2.5335,-2.5361,-2.5414,-2.5444,-2.5456,-4.0747,-4.0304,-4.0857,-4.1113,-4.1077,-4.0983,-4.065,-4.0157,-3.9405,-3.8954,-3.8999,-3.9058,-3.9264,-3.9438,-3.9438,-3.9302,-3.9152,-3.8999,-3.884,-3.8777,-3.8707,-3.8707,-3.8707,-3.8707,-3.8707,-3.8707,-3.8707,-3.867,-3.8377,-3.7459,-3.5826,-3.4284,-3.399,-3.3844,-3.3807,-3.3807,-3.3807,-3.3807,-3.3807,-3.3807,-3.3807,-3.3902,-3.3868,-3.3967,-3.4129,-3.442,-3.4674,-3.4907,-3.5122,-3.519,-3.5417,-3.5439,-3.5242,-3.5376,-3.55,-3.55,-3.5481,-3.5462,-3.5346,-3.4699,-3.409,-3.368,-3.2551,-3.2019,-3.1429,-3.0976,-3.0772,-3.0776,-3.1014,-3.1128,-3.1393,-3.151,-3.1456,-3.1366,-3.1205,-3.0942,-3.0769,-3.0462,-3.0462,-3.0404,-3.0404,-3.0404,-3.0404,-3.0404,-3.0404,-3.0404,-3.0404,-3.0404,-3.0404,-3.0404,-3.0404,-3.0404,-3.0404,-3.0404,-3.0404,-3.0404,-3.0404,-3.0404,-3.0404,-3.0404,-3.0385,-3.0212,-2.9871,-2.9159,-2.8179,-2.6948,-2.5615,-2.5327,-2.5308,-2.5308,-2.5313,-2.5322,-2.5345,-2.5375,-2.5402,-3.9882,-3.9515,-3.9955,-4.0157,-4.0065,-3.9643,-3.9441,-3.9344,-3.9002,-3.8943,-3.9107,-3.9408,-3.9611,-3.9775,-3.9786,-3.9634,-3.9333,-3.9125,-3.8947,-3.8732,-3.8704,-3.8707,-3.8707,-3.8707,-3.8707,-3.8707,-3.8707,-3.8689,-3.8248,-3.711,-3.5532,-3.4472,-3.4032,-3.3825,-3.3807,-3.3807,-3.3807,-3.3807,-3.3807,-3.3807,-3.3807,-3.3807,-3.3807,-3.3847,-3.4012,-3.4225,-3.4508,-3.4784,-3.4907,-3.5008,-3.5266,-3.5369,-3.5226,-3.5354,-3.5481,-3.55,-3.55,-3.55,-3.5404,-3.5122,-3.4487,-3.3968,-3.3485,-3.3027,-3.2495,-3.1989,-3.1459,-3.1159,-3.1488,-3.1803,-3.2173,-3.2462,-3.2328,-3.2212,-3.184,-3.1468,-3.1058,-3.0635,-3.05,-3.0423,-3.0404,-3.0404,-3.0404,-3.0404,-3.0404,-3.0404,-3.0404,-3.0404,-3.0404,-3.0404,-3.0404,-3.0404,-3.0404,-3.0404,-3.0404,-3.0404,-3.0404,-3.0404,-3.0404,-3.0404,-3.0404,-3.0192,-2.9827,-2.8948,-2.7871,-2.6717,-2.5615,-2.5385,-2.5308,-2.5308,-2.5308,-2.5298,-2.5308,-2.5327,-2.5352,-3.8726,-3.8744,-3.8707,-3.8836,-3.8726,-3.8762,-3.8762,-3.875,-3.9017,-3.9133,-3.9276,-3.9797,-4.0052,-4.0101,-4.011,-3.9924,-3.9668,-3.9414,-3.9131,-3.8747,-3.8788,-3.8758,-3.8704,-3.8707,-3.8707,-3.8707,-3.8634,-3.8487,-3.801,-3.6964,-3.5789,-3.4949,-3.4174,-3.3807,-3.3807,-3.3807,-3.3807,-3.3807,-3.3807,-3.3807,-3.3807,-3.3807,-3.3807,-3.3807,-3.3868,-3.3948,-3.4218,-3.4445,-3.4663,-3.4832,-3.5044,-3.5223,-3.5273,-3.5354,-3.5453,-3.55,-3.55,-3.55,-3.55,-3.5327,-3.5231,-3.4829,-3.447,-3.3707,-3.3007,-3.2414,-3.1788,-3.1761,-3.208,-3.2515,-3.2902,-3.3181,-3.3182,-3.2833,-3.2417,-3.1943,-3.1423,-3.0904,-3.0442,-3.0404,-3.0404,-3.0404,-3.0404,-3.0404,-3.0404,-3.0404,-3.0404,-3.0404,-3.0379,-3.0379,-3.0398,-3.0398,-3.0404,-3.0404,-3.0404,-3.0404,-3.0404,-3.0404,-3.0404,-3.0404,-3.0404,-3.0135,-2.9788,-2.8794,-2.7755,-2.6794,-2.5904,-2.5577,-2.5308,-2.5308,-2.5308,-2.5308,-2.5308,-2.5308,-2.5303,-3.8707,-3.8707,-3.8707,-3.8707,-3.8707,-3.8707,-3.8707,-3.875,-3.9262,-3.9481,-3.9564,-3.9901,-4.0213,-4.0356,-4.0339,-4.0167,-3.9922,-3.969,-3.9481,-3.9117,-3.8961,-3.8829,-3.8719,-3.8707,-3.8707,-3.8707,-3.856,-3.8157,-3.7312,-3.6486,-3.5587,-3.4289,-3.388,-3.3935,-3.3807,-3.3807,-3.3807,-3.3807,-3.3807,-3.3807,-3.3807,-3.3807,-3.3807,-3.3807,-3.3829,-3.3923,-3.4123,-3.4246,-3.4334,-3.4394,-3.4685,-3.4926,-3.5115,-3.5354,-3.5467,-3.55,-3.55,-3.55,-3.55,-3.5442,-3.5262,-3.4957,-3.4416,-3.3703,-3.306,-3.2514,-3.2307,-3.2443,-3.272,-3.316,-3.3529,-3.377,-3.393,-3.3478,-3.2971,-3.2397,-3.1802,-3.1115,-3.0481,-3.0404,-3.0404,-3.0373,-3.0367,-3.0361,-3.0404,-3.0404,-3.0404,-3.0379,-3.0367,-3.0361,-3.0367,-3.0373,-3.0398,-3.0404,-3.0404,-3.0404,-3.0404,-3.0404,-3.0404,-3.0404,-3.0404,-3.0212,-2.9904,-2.8736,-2.7659,-2.6871,-2.6135,-2.55,-2.5303,-2.5308,-2.5308,-2.5308,-2.5308,-2.5308,-2.5308,-3.8707,-3.8707,-3.8707,-3.8707,-3.8707,-3.8707,-3.8707,-3.8822,-3.9339,-3.9611,-3.9679,-4.0053,-4.0364,-4.0457,-4.04,-4.0185,-3.9962,-3.987,-3.9402,-3.9068,-3.9036,-3.8909,-3.8803,-3.8707,-3.8707,-3.8689,-3.8634,-3.8083,-3.6927,-3.6707,-3.6083,-3.4559,-3.4284,-3.4119,-3.3917,-3.3807,-3.3807,-3.3807,-3.3807,-3.3807,-3.3807,-3.3807,-3.3807,-3.3807,-3.3842,-3.391,-3.3981,-3.4086,-3.4111,-3.4135,-3.4323,-3.4745,-3.4999,-3.5223,-3.5376,-3.5453,-3.55,-3.55,-3.5474,-3.5383,-3.5194,-3.4887,-3.4622,-3.4037,-3.3709,-3.3227,-3.275,-3.2884,-3.3198,-3.3599,-3.3832,-3.407,-3.4386,-3.4215,-3.3555,-3.2922,-3.1962,-3.1,-3.0577,-3.0404,-3.0317,-3.0182,-3.0129,-3.003,-3.0044,-3.0022,-3.0066,-3.0182,-3.0196,-3.0248,-3.0292,-3.0349,-3.0349,-3.0373,-3.0404,-3.0404,-3.0404,-3.0404,-3.0404,-3.0404,-3.0404,-3.0365,-3.0,-2.8909,-2.7967,-2.7255,-2.6538,-2.5712,-2.5327,-2.5308,-2.5308,-2.5308,-2.5308,-2.5308,-2.5308,-3.8719,-3.8747,-3.8762,-3.8747,-3.8747,-3.8765,-3.8735,-3.8792,-3.9294,-3.951,-3.9611,-4.0148,-4.0422,-4.0417,-4.0213,-3.9943,-3.9754,-3.9731,-3.9294,-3.9004,-3.904,-3.8894,-3.8788,-3.8707,-3.8707,-3.8707,-3.867,-3.8157,-3.7382,-3.707,-3.6321,-3.5243,-3.4766,-3.4472,-3.4009,-3.3807,-3.3807,-3.3807,-3.3807,-3.3807,-3.3807,-3.3807,-3.3807,-3.3807,-3.3807,-3.3807,-3.3876,-3.3935,-3.3968,-3.4031,-3.4105,-3.4445,-3.4765,-3.4981,-3.5187,-3.5285,-3.5297,-3.532,-3.5376,-3.532,-3.5176,-3.5005,-3.4793,-3.45,-3.4125,-3.379,-3.3311,-3.3319,-3.3632,-3.3821,-3.4049,-3.4258,-3.4567,-3.4643,-3.3935,-3.3287,-3.2149,-3.1156,-3.0912,-3.0644,-3.0425,-3.0242,-2.9931,-2.9817,-2.9739,-2.9705,-2.972,-2.9821,-2.9916,-2.9996,-3.0066,-3.0162,-3.0241,-3.0292,-3.0367,-3.0404,-3.0404,-3.0404,-3.0404,-3.0404,-3.0385,-3.0365,-3.0038,-2.9236,-2.8357,-2.7525,-2.6678,-2.5846,-2.5558,-2.5308,-2.5308,-2.5308,-2.5308,-2.5308,-2.5308,-3.8829,-3.904,-3.9022,-3.9022,-3.9022,-3.904,-3.8913,-3.8777,-3.9054,-3.9186,-3.9377,-3.9872,-4.0286,-4.0481,-4.0213,-3.9953,-3.9765,-3.9652,-3.9408,-3.9131,-3.9077,-3.8909,-3.8758,-3.8707,-3.8707,-3.8707,-3.8634,-3.823,-3.7731,-3.7,-3.6119,-3.5151,-3.4307,-3.405,-3.3954,-3.3862,-3.3935,-3.3954,-3.3935,-3.3935,-3.3825,-3.3807,-3.3807,-3.3807,-3.3807,-3.3807,-3.3847,-3.3842,-3.3842,-3.3889,-3.4037,-3.4253,-3.4456,-3.4675,-3.4898,-3.5051,-3.5062,-3.5051,-3.5096,-3.5025,-3.4889,-3.4765,-3.4529,-3.4334,-3.4068,-3.3911,-3.3634,-3.36,-3.3784,-3.3784,-3.3967,-3.4099,-3.4323,-3.4207,-3.3757,-3.3239,-3.243,-3.2012,-3.1741,-3.139,-3.1074,-3.0571,-2.9899,-2.982,-2.9728,-2.9673,-2.9598,-2.9677,-2.9712,-2.9799,-2.9848,-2.9966,-3.0087,-3.0248,-3.0355,-3.0398,-3.0404,-3.0404,-3.0404,-3.0404,-3.0404,-3.0404,-2.9981,-2.9467,-2.8569,-2.7621,-2.6794,-2.6077,-2.5558,-2.5308,-2.5308,-2.5308,-2.5308,-2.5308,-2.5308]},{"header":{"parameterUnit":"m.s-1","parameterCategory":1,"la1":31.0,"la2":29.5877,"lo1":-88.7671,"lo2":-86.6584,"dy":0.0162,"dx":0.0185,"nx":115,"ny":88,"refTime":"2024-06-02T18:00:00:Z","depth":0,"parameterNumber":3,"parameterNumberName":"V-component_of_WINDS"},"data":[0.0,0.0,0.0,0.0,0.0,0.0,0.0,0.0,0.0,0.0,0.0,0.0,0.0,0.0,0.0,0.0,0.0,0.0,0.0,0.0,0.0,0.0,0.0,0.0,0.0,0.0,0.0,0.0,0.0,0.0,0.0,0.0,0.0,0.0,0.0,0.0,0.0,0.0,0.0,0.0,0.0,0.0,0.0,0.0,0.0,0.0,0.0,0.0,0.0,0.0,0.0,0.0,0.0,0.0,0.0,0.0,0.0,0.0,0.0,0.0,0.0,0.0,0.0,0.0,0.0,0.0,0.0,0.0,0.0,0.0,0.0,0.0,0.0,0.0,0.0,0.0,0.0,0.0,0.0,0.0,0.0,0.0,0.0,0.0,0.0,0.0,0.0,0.0,0.0,0.0,0.0,0.0,0.0,0.0,0.0,0.0,0.0,0.0,0.0,0.0,0.0,0.0,0.0,0.0,0.0,0.0,0.0,0.0,0.0,0.0,0.0,0.0,0.0,0.0,0.0,0.0,0.0,0.0,0.0,0.0,0.0,0.0,0.0,0.0,0.0,0.0,0.0,0.0,0.0,0.0,0.0,0.0,0.0,0.0,0.0,0.0,0.0,0.0,0.0,0.0,0.0,0.0,0.0,0.0,0.0,0.0,0.0,0.0,0.0,0.0,0.0,0.0,0.0,0.0,0.0,0.0,0.0,0.0,0.0,0.0,0.0,0.0,0.0,0.0,0.0,0.0,0.0,0.0,0.0,0.0,0.0,0.0,0.0,0.0,0.0,0.0,0.0,0.0,0.0,0.0,0.0,0.0,0.0,0.0,0.0,0.0,0.0,0.0,0.0,0.0,0.0,0.0,0.0,0.0,0.0,0.0,0.0,0.0,0.0,0.0,0.0,0.0,0.0,0.0,0.0,0.0,0.0,0.0,0.0,0.0,0.0,0.0,0.0,0.0,0.0,0.0,0.0,0.0,0.0,0.0,0.0,0.0,0.0,0.0,0.0,0.0,0.0,0.0,0.0,0.0,0.0,0.0,0.0,0.0,0.0,0.0,0.0,0.0,0.0,0.0,0.0,0.0,0.0,0.0,0.0,0.0,0.0,0.0,0.0,0.0,0.0,0.0,0.0,0.0,0.0,0.0,0.0,0.0,0.0,0.0,0.0,0.0,0.0,0.0,0.0,0.0,0.0,0.0,0.0,0.0,0.0,0.0,0.0,0.0,0.0,0.0,0.0,0.0,0.0,0.0,0.0,0.0,0.0,0.0,0.0,0.0,0.0,0.0,0.0,0.0,0.0,0.0,0.0,0.0,0.0,0.0,0.0,0.0,0.0,0.0,0.0,0.0,0.0,0.0,0.0,0.0,0.0,0.0,0.0,0.0,0.0,0.0,0.0,0.0,0.0,0.0,0.0,0.0,0.0,0.0,0.0,0.0,0.0,0.0,0.0,0.0,0.0,0.0,0.0,0.0,0.0,0.0,0.0,0.0,0.0,0.0,0.0,0.0,0.0,0.0,0.0,0.0,0.0,0.0,0.0,0.0,0.0,0.0,0.0,0.0,0.0,0.0,0.0,0.0,0.0,0.0,0.0,0.0,0.0,0.0,0.0,0.0,0.0,0.0,0.0,0.0,0.0,0.0,0.0,0.0,0.0,0.0,0.0,0.0,0.0,0.0,0.0,0.0,0.0,0.0,0.0,0.0,0.0,0.0,0.0,0.0,0.0,0.0,0.0,0.0,0.0,0.0,0.0,0.0,0.0,0.0,0.0,0.0,0.0,0.0,0.0,0.0,0.0,0.0,0.0,0.0,0.0,0.0,0.0,0.0,0.0,0.0,0.0,0.0,0.0,0.0,0.0,0.0,0.0,0.0,0.0,0.0,0.0,0.0,0.0,0.0,0.0,0.0,0.0,0.0,0.0,0.0,0.0,0.0,0.0,0.0,0.0,0.0,0.0,0.0,0.0,0.0,0.0,0.0,0.0,0.0,0.0,0.0,0.0,0.0,0.0,0.0,0.0,0.0,0.0,0.0,0.0,0.0,0.0,0.0,0.0,0.0,0.0,0.0,0.0,0.0,0.0,0.0,0.0,0.0,0.0,0.0,0.0,0.0,0.0,0.0,0.0,0.0,0.0,0.0,0.0,0.0,0.0,0.0,0.0,0.0,0.0,0.0,0.0,0.0,0.0,0.0,0.0,0.0,0.0,0.0,0.0,0.0,0.0,0.0,0.0,0.0,0.0,0.0,0.0,0.0,0.0,0.0,0.0,0.0,0.0,0.0,0.0,0.0,0.0,0.0,0.0,0.0,0.0,0.0,0.0,0.0,0.0,0.0,0.0,0.0,0.0,0.0,0.0,0.0,0.0,0.0,0.0,0.0,0.0,0.0,0.0,0.0,0.0,0.0,0.0,0.0,0.0,0.0,0.0,0.0,0.0,0.0,0.0,0.0,0.0,0.0,0.0,0.0,0.0,0.0,0.0,0.0,0.0,0.0,0.0,0.0,0.0,0.0,0.0,0.0,0.0,0.0,0.0,0.0,0.0,0.0,0.0,0.0,0.0,0.0,0.0,0.0,0.0,0.0,0.0,0.0,0.0,0.0,0.0,0.0,0.0,0.0,0.0,0.0,0.0,0.0,0.0,0.0,0.0,0.0,0.0,0.0,0.0,0.0,0.0,0.0,0.0,0.0,0.0,0.0,0.0,0.0,0.0,0.0,0.0,0.0,0.0,0.0,0.0,0.0,0.0,0.0,0.0,0.0,0.0,0.0,0.0,0.0,0.0,0.0,0.0,0.0,0.0,0.0,0.0,0.0,0.0,0.0,0.0,0.0,0.0,0.0,0.0,0.0,0.0,0.0,0.0,0.0,0.0,0.0,0.0,0.0,0.0,0.0,0.0,0.0,0.0,0.0,0.0,0.0,0.0,0.0,0.0,0.0,0.0,0.0,0.0,0.0,0.0,0.0,0.0,0.0,0.0,0.0,0.0,0.0,0.0,0.0,0.0,0.0,0.0,0.0,0.0,0.0,0.0,0.0,0.0,0.0,0.0,0.0,0.0,0.0,0.0,0.0,0.0,0.0,0.0,0.0,0.0,0.0,0.0,0.0,0.0,0.0,0.0,0.0,0.0,0.0,0.0,0.0,0.0,0.0,0.0,0.0,0.0,0.0,0.0,0.0,0.0,0.0,0.0,0.0,0.0,0.0,0.0,0.0,0.0,0.0,0.0,0.0,0.0,0.0,0.0,0.0,0.0,0.0,0.0,0.0,0.0,0.0,0.0,0.0,0.0,0.0,0.0,0.0,0.0,0.0,0.0,0.0,0.0,0.0,0.0,0.0,0.0,0.0,0.0,0.0,0.0,0.0,0.0,0.0,0.0,0.0,0.0,0.0,0.0,0.0,0.0,0.0,0.0,0.0,0.0,0.0,0.0,0.0,0.0,0.0,0.0,0.0,0.0,0.0,0.0,0.0,0.0,0.0,0.0,0.0,0.0,0.0,0.0,0.0,0.0,0.0,0.0,0.0,0.0,0.0,0.0,0.0,0.0,0.0,0.0,0.0,0.0,0.0,0.0,0.0,0.0,0.0,0.0,0.0,0.0,0.0,0.0,0.0,0.0,0.0,0.0,0.0,0.0,0.0,0.0,0.0,0.0,0.0,0.0,0.0,0.0,0.0,0.0,0.0,0.0,0.0,0.0,0.0,0.0,0.0,0.0,0.0,0.0,0.0,0.0,0.0,0.0,0.0,0.0,0.0,0.0,0.0,0.0,0.0,0.0,0.0,0.0,0.0,0.0,0.0,0.0,0.0,0.0,0.0,0.0,0.0,0.0,0.0,0.0,0.0,0.0,0.0,0.0,0.0,0.0,0.0,0.0,0.0,0.0,0.0,0.0,0.0,0.0,0.0,0.0,0.0,0.0,0.0,0.0,0.0,0.0,0.0,0.0,0.0,0.0,0.0,0.0,0.0,0.0,0.0,0.0,0.0,0.0,0.0,0.0,0.0,0.0,0.0,0.0,0.0,0.0,0.0,0.0,0.0,0.0,0.0,0.0,0.0,0.0,0.0,0.0,0.0,0.0,0.0,0.0,0.0,0.0,0.0,0.0,0.0,0.0,0.0,0.0,0.0,0.0,0.0,0.0,0.0,0.0,0.0,0.0,0.0,0.0,0.0,0.0,0.0,0.0,0.0,0.0,0.0,0.0,0.0,0.0,0.0,0.0,0.0,0.0,0.0,0.0,0.0,0.0,0.0,0.0,0.0,0.0,0.0,0.0,0.0,0.0,0.0,0.0,0.0,0.1798,0.0,0.0,0.0,0.0,0.0,0.0,0.0,0.0,0.0,0.0,0.0,0.0,0.0,0.0,0.0,0.0,0.0,0.0,0.0,0.0,0.0,0.0,0.0,0.0,0.0,0.0,0.0,0.0,0.0,0.0,0.0,0.0,0.0,0.0,0.0,0.0,0.0,0.0,0.0,0.0,0.0,0.0,0.0,0.0,0.0,0.0,0.0,0.0,0.0,0.0,0.0,0.0,0.0,0.0,0.0,0.0,0.0,0.0,0.0,0.0,0.0,0.0,0.0,0.0,0.0,0.0,0.0,0.0,0.0,0.0,0.0,0.0,0.0,0.0,0.0,0.0,0.0,0.0,0.0,0.0,0.0,0.0,0.0,0.0,0.0,0.0,0.0,0.0,0.0,0.0,0.0,0.0,0.0,0.0,0.0,0.0,0.0,0.0,0.0,0.0,0.0,0.0,0.0,0.0,0.0,0.0,0.0,0.0,0.0,0.0,0.194,0.1798,0.193,0.194,0.1798,0.0,0.0,0.0,0.0,0.0,0.0,0.0,0.0,0.0,0.0,0.0,0.0,0.0,0.0,0.0,0.0,0.0,0.0,0.0,0.0,0.0,0.0,0.0,0.0,0.0,0.0,0.0,0.0,0.0,0.0,0.0,0.0,0.0,0.0,0.0,0.0,0.0,0.0,0.0,0.0,0.0,0.0,0.0,0.0,0.0,0.0,0.0,0.0,0.0,0.0,0.0,0.0,0.0,0.0,0.0,0.0,0.0,0.0,0.0,0.0,0.0,0.0,0.0,0.0,0.0,0.0,0.0,0.0,0.0,0.0,0.0,0.0,0.0,0.0,0.0,0.0,0.0,0.0,0.0,0.0,0.0,0.0,0.0,0.0,0.0,0.0,0.0,0.0,0.0,0.0,0.0,0.0,0.0,0.0,0.0,0.0,0.0,0.0,0.0,0.0,0.0,0.0,0.0,0.0,0.0,0.0,0.0,0.0,0.0,0.0,0.0,0.0,0.2095,0.2089,0.1979,0.0,0.0,0.0,0.0,0.0,0.0,0.0,0.0,0.0,0.0,0.0,0.0,0.0,0.0,0.0,0.0,0.0,0.0,0.0,0.0,0.0,0.0,0.0,0.0,0.0,0.0,0.0,0.0,0.0,0.0,0.0,0.0,0.0,0.0,0.0,0.0,0.0,0.0,0.0,0.0,0.0,0.0,0.0,0.0,0.0,0.0,0.0,0.0,0.0,0.0,0.0,0.0,0.0,0.0,0.0,0.0,0.0,0.0,0.0,0.0,0.0,0.0,0.0,0.0,0.0,0.0,0.0,0.0,0.0,0.0,0.0,0.0,0.0,0.0,0.0,0.0,0.0,0.0,0.0,0.0,0.0,0.0,0.0,0.0,0.0,0.0,0.0,0.0,0.0,0.0,0.0,0.0,0.0,0.0,0.0,0.0,0.0,0.0,0.0,0.0,0.0,0.0,0.0,0.0,0.0,0.0,0.0,0.0,0.0,0.0,0.2143,0.2432,0.2565,0.0,0.2475,0.0,0.0,0.0,0.0,0.0,0.0,0.0,0.0,0.0,0.0,0.0,0.0,0.0,0.0,0.0,0.0,0.0,0.0,0.0,0.0,0.0,0.0,0.0,0.0,0.0,0.0,0.0,0.0,0.0,0.0,0.0,0.0,0.0,0.0,0.0,0.0,0.0,0.0,0.0,0.0,0.0,0.0,0.0,0.0,0.0,0.0,0.0,0.0,0.0,0.0,0.0,0.0,0.0,0.0,0.0,0.0,0.0,0.0,0.0,0.0,0.0,0.0,0.0,0.0,0.0,0.0,0.0,0.0,0.0,0.0,0.0,0.0,0.0,0.0,0.0,0.0,0.0,0.0,0.0,0.0,0.0,0.0,0.0,0.0,0.0,0.0,0.0,0.0,0.0,0.0,0.0,0.0,0.0,0.0,0.0,0.0,0.0,0.0,0.0,0.0,0.0,0.0,0.0,0.0,0.0,0.0,0.0,0.0,0.0,0.0,0.0,0.2509,0.2544,0.2548,0.0,0.0,0.0,0.0,0.0,0.0,0.0,0.0,0.0,0.0,0.0,0.0,0.0,0.0,0.0,0.0,0.0,0.0,0.0,0.0,0.0,0.0,0.0,0.0,0.0,0.0,0.0,0.0,0.0,0.0,0.0,0.0,0.0,0.0,0.0,0.0,0.0,0.0,0.0,0.0,0.0,0.0,0.0,0.0,0.0,0.0,0.0,0.0,0.0,0.0,0.0,0.0,0.0,0.0,0.0,0.0,0.0,0.0,0.0,0.0,0.0,0.0,0.0,0.0,0.0,0.0,0.0,0.0,0.0,0.0,0.0,0.0,0.0,0.0,0.0,0.0,0.0,0.0,0.0,0.0,0.0,0.0,0.0,0.0,0.0,0.0,0.0,0.0,0.0,0.0,0.0,0.0,0.0,0.0,0.0,0.0,0.0,0.0,0.0,0.0,0.0,0.0,0.0,0.0,0.0,0.0,0.0,0.0,0.0,0.0,0.3252,0.0,0.2847,0.2908,0.2848,0.2604,0.0,0.0,0.0,0.0,0.0,0.0,0.0,0.0,0.0,0.0,0.0,0.0,0.0,0.0,0.0,0.0,0.0,0.0,0.0,0.0,0.0,0.0,0.0,0.0,0.0,0.0,0.0,0.0,0.0,0.0,0.0,0.0,0.0,0.0,0.0,0.0,0.0,0.0,0.0,0.0,0.0,0.0,0.0,0.0,0.0,0.0,0.0,0.0,0.0,0.0,0.0,0.0,0.0,0.0,0.0,0.0,0.0,0.0,0.0,0.0,0.0,0.0,0.0,0.0,0.0,0.0,0.0,0.0,0.0,0.0,0.0,0.0,0.0,0.0,0.0,0.0,0.0,0.0,0.0,0.0,0.0,0.0,0.0,0.0,0.0,0.0,0.0,0.0,0.0,0.0,0.0,0.0,0.0,0.0,0.0,0.0,0.0,0.0,0.0,0.0,0.0,0.0,0.0,0.0,0.0,0.0,0.0,0.0,0.0,0.2925,0.2893,0.3551,0.3914,0.373,0.0,0.0,0.0,0.0,0.0,0.0,0.0,0.0,0.0,0.0,0.0,0.0,0.0,0.0,0.0,0.0,0.0,0.0,0.0,0.0,0.0,0.0,0.0,0.0,0.0,0.0,0.0,0.0,0.0,0.0,0.0,0.0,0.0,0.0,0.0,0.0,0.0,0.0,0.0,0.0,0.0,0.0,0.0,0.0,0.0,0.0,0.0,0.0,0.0,0.0,0.0,0.0,0.0,0.0,0.0,0.0,0.0,0.0,0.0,0.0,0.0,0.0,0.0,0.0,0.0,0.0,0.0,0.0,0.0,0.0,0.0,0.0,0.0,0.0,0.0,0.0,0.0,0.0,0.0,0.0,0.0,0.0,0.0,0.0,0.0,0.0,0.0,0.0,0.0,0.0,0.0,0.0,0.0,0.0,0.0,0.0,0.0,0.0,0.0,0.0,0.0,0.0,0.0,0.0,0.0,0.0,0.0,0.0,0.0,0.3009,0.2851,0.3477,0.0,0.3792,0.3188,0.0,0.0,0.0,0.0,0.0,0.0,0.0,0.0,0.0,0.0,0.0,0.0,0.0,0.0,0.0,0.0,0.0,0.0,0.0,0.0,0.0,0.0,0.0,0.0,0.0,0.0,0.0,0.0,0.0,0.0,0.0,0.0,0.0,0.0,0.0,0.0,0.0,0.0,0.0,0.0,0.0,0.0,0.0,0.0,0.0,0.0,0.0,0.0,0.0,0.0,0.0,0.0,0.0,0.0,0.0,0.0,0.0,0.0,0.0,0.0,0.0,0.0,0.0,0.0,0.0,0.0,0.0,0.0,0.0,0.0,0.0,0.0,0.0,0.0,0.0,0.0,0.0,0.0,0.0,0.0,0.0,0.0,0.0,0.0,0.0,0.0,0.0,0.0,0.0,0.0,0.0,0.0,0.0,0.0,0.0,0.0,0.0,0.0,0.0,0.0,0.0,0.0,0.0,0.0,0.0,0.0,0.0,0.0,0.0,0.3296,0.0,0.397,0.0,0.3932,0.3183,0.0,0.0,0.0,0.0,0.0,0.0,0.0,0.0,0.0,0.0,0.0,0.0,0.0,0.0,0.0,0.0,0.0,0.0,0.0,0.0,0.0,0.0,0.0,0.0,0.0,0.0,0.0,0.0,0.0,0.0,0.0,0.0,0.0,0.0,0.0,0.0,0.0,0.0,0.0,0.0,0.0,0.0,0.0,0.0,0.0,0.0,0.0,0.0,0.0,0.0,0.0,0.0,0.0,0.0,0.0,0.0,0.0,0.0,0.0,0.0,0.0,0.0,0.0,0.0,0.0,0.0,0.0,0.0,0.0,0.0,0.0,0.0,0.0,0.0,0.0,0.0,0.0,0.0,0.0,0.0,0.0,0.0,0.0,0.0,0.0,0.0,0.0,0.0,0.0,0.0,0.0,0.0,0.0,0.0,0.0,0.0,0.0,0.0,0.0,0.0,0.0,0.0,0.0,0.0,0.0,0.0,0.0,0.0,0.3585,0.4485,0.4073,0.4257,0.5077,0.4493,0.3845,0.0,0.0,0.0,0.0,0.0,0.0,0.0,0.0,0.0,0.0,0.0,0.0,0.0,0.0,0.0,0.0,0.0,0.0,0.0,0.0,0.0,0.0,0.0,0.0,0.0,0.0,0.0,0.0,0.0,0.0,0.0,0.0,0.0,0.0,0.0,0.0,0.0,0.0,0.0,0.0,0.0,0.0,0.0,0.0,0.0,0.0,0.0,0.0,0.0,0.0,0.0,0.0,0.0,0.0,0.0,0.0,0.0,0.0,0.0,0.0,0.0,0.0,0.0,0.0,0.0,0.0,0.0,0.0,0.0,0.0,0.0,0.0,0.0,0.0,0.0,0.0,0.0,0.0,0.0,0.0,0.0,0.0,0.0,0.0,0.0,0.0,0.0,0.0,0.0,0.0,0.0,0.0,0.0,0.0,0.0,0.0,0.0,0.0,0.0,0.0,0.0,0.0,0.0,0.0,0.0,0.0,0.0,0.0,0.0,0.4197,0.4796,0.524,0.5545,0.4769,0.4281,0.0,0.0,0.0,0.0,0.0,0.0,0.0,0.0,0.0,0.0,0.0,0.0,0.0,0.0,0.0,0.0,0.0,0.0,0.0,0.0,0.0,0.0,0.0,0.0,0.0,0.0,0.0,0.0,0.0,0.0,0.0,0.0,0.0,0.0,0.0,0.0,0.0,0.0,0.0,0.0,0.0,0.0,0.0,0.0,0.0,0.0,0.0,0.0,0.0,0.0,0.0,0.0,0.0,0.0,0.0,0.0,0.0,0.0,0.0,0.0,0.0,0.0,0.0,0.0,0.0,0.0,0.0,0.0,0.0,0.0,0.0,0.0,0.0,0.0,0.0,0.0,0.0,0.0,0.0,0.0,0.0,0.0,0.0,0.0,0.0,0.0,0.0,0.0,0.0,0.0,0.0,0.0,0.0,0.0,0.0,0.0,0.0,0.0,0.0,0.0,0.0,0.0,0.0,0.0,0.0,0.0,0.0,0.0,0.0,0.414,0.4837,0.5485,0.5944,0.4842,0.4189,0.4108,0.0,0.0,0.0,0.0,0.0,0.0,0.0,0.0,0.0,0.0,0.0,0.0,0.0,0.0,0.0,0.0,0.0,0.0,0.0,0.0,0.0,0.0,0.0,0.0,0.0,0.0,0.0,0.0,0.0,0.0,0.0,0.0,0.0,0.0,0.0,0.0,0.0,0.0,0.0,0.0,0.0,0.0,0.0,0.0,0.0,0.0,0.0,0.0,0.0,0.0,0.0,0.0,0.0,0.0,0.0,0.0,0.0,0.0,0.0,0.0,0.0,0.0,0.0,0.0,0.0,0.0,0.0,0.0,0.0,0.0,0.0,0.0,0.0,0.0,0.0,0.0,0.0,0.0,0.0,0.0,0.0,0.0,0.0,0.0,0.0,0.0,0.0,0.0,0.0,0.0,0.0,0.0,0.0,0.0,0.0,0.0,0.0,0.0,0.0,0.0,0.0,0.0,0.0,0.0,0.0,0.0,0.0,0.0,0.4266,0.4416,0.5067,0.6189,0.4883,0.3927,0.0,0.0,0.0,0.0,0.0,0.0,0.0,0.0,0.0,0.0,0.0,0.0,0.0,0.0,0.0,0.0,0.0,0.0,0.0,0.0,0.0,0.0,0.0,0.0,0.0,0.0,0.0,0.0,0.0,0.0,0.0,0.0,0.0,0.0,0.0,0.0,0.0,0.0,0.0,0.0,0.0,0.0,0.0,0.0,0.0,0.0,0.0,0.0,0.0,0.0,0.0,0.0,0.0,0.0,0.0,0.0,0.0,0.0,0.0,0.0,0.0,0.0,0.0,0.0,0.0,0.0,0.0,0.0,0.0,0.0,0.0,0.0,0.0,0.0,0.0,0.0,0.0,0.0,0.0,0.0,0.0,0.0,0.0,0.0,0.0,0.0,0.0,0.0,0.0,0.0,0.0,0.0,0.0,0.0,0.0,0.0,0.0,0.0,0.0,0.0,0.0,0.0,0.0,0.0,0.0,0.0,0.0,0.0,0.0,0.5,0.4683,0.5226,0.6648,0.6094,0.566,0.0,0.0,0.0,0.0,0.0,0.0,0.0,0.0,0.0,0.0,0.0,0.0,0.0,0.0,0.0,0.0,0.0,0.0,0.0,0.0,0.0,0.0,0.0,0.0,0.0,0.0,0.0,0.0,0.0,0.0,0.0,0.0,0.0,0.0,0.0,0.0,0.0,0.0,0.0,0.0,0.0,0.0,0.0,0.0,0.0,0.0,0.0,0.0,0.0,0.0,0.0,0.0,0.0,0.0,0.0,0.0,0.0,0.0,0.0,0.0,0.0,0.0,0.0,0.0,0.0,0.0,0.0,0.0,0.0,0.0,0.0,0.0,0.0,0.0,0.0,0.0,0.0,0.0,0.0,0.0,0.0,0.0,0.0,0.0,0.0,0.0,0.0,0.0,0.0,0.0,0.0,0.0,0.0,0.0,0.0,0.0,0.0,0.0,0.0,0.0,0.0,0.0,0.0,0.0,0.0,0.0,0.0,0.0,0.4549,0.5116,0.4702,0.5145,0.6489,0.5958,0.5538,0.0,0.0,0.0,0.0,0.0,0.0,0.0,0.0,0.0,0.0,0.0,0.0,0.0,0.0,0.0,0.0,0.0,0.0,0.0,0.0,0.0,0.0,0.0,0.0,0.0,0.0,0.0,0.0,0.0,0.0,0.0,0.0,0.0,0.0,0.0,0.0,0.0,0.0,0.0,0.0,0.0,0.0,0.0,0.0,0.0,0.0,0.0,0.0,0.0,0.0,0.0,0.0,0.0,0.0,0.0,0.0,0.0,0.0,0.0,0.0,0.0,0.0,0.0,0.0,0.0,0.0,0.0,0.0,0.0,0.0,0.0,0.0,0.0,0.0,0.0,0.0,0.0,0.0,0.0,0.0,0.0,0.0,0.0,0.0,0.0,0.0,0.0,0.0,0.0,0.0,0.0,0.0,0.0,0.0,0.0,0.0,0.0,0.0,0.0,0.0,0.0,0.0,0.0,0.0,0.0,0.0,0.0,0.0,0.4547,0.4874,0.4655,0.499,0.5925,0.5243,0.4643,0.0,0.0,0.0,0.0,0.0,0.0,0.0,0.0,0.0,0.0,0.0,0.0,0.0,0.0,0.0,0.0,0.0,0.0,0.0,0.0,0.0,0.0,0.0,0.0,0.0,0.0,0.0,0.0,0.0,0.0,0.0,0.0,0.0,0.0,0.0,0.0,0.0,0.0,0.0,0.0,0.0,0.0,0.0,0.0,0.0,0.0,0.0,0.0,0.0,0.0,0.0,0.0,0.0,0.0,0.0,0.0,0.0,0.0,0.0,0.0,0.0,0.0,0.0,0.0,0.0,0.0,0.0,0.0,0.0,0.0,0.0,0.0,0.0,0.0,0.0,0.0,0.0,0.0,0.0,0.0,0.0,0.0,0.0,0.0,0.0,0.0,0.0,0.0,0.0,0.0,0.0,0.0,0.0,0.0,0.0,0.0,0.0,0.0,0.0,0.0,0.0,0.0,0.0,0.0,0.0,0.0,0.0,0.0,0.4418,0.4724,0.4674,0.5075,0.5984,0.5928,0.5789,0.0,0.0,0.0,0.0,0.0,0.0,0.0,0.0,0.0,0.0,0.0,0.0,0.0,0.0,0.0,0.0,0.0,0.0,0.0,0.0,0.0,0.0,0.0,0.0,0.0,0.0,0.0,0.0,0.0,0.0,0.0,0.0,0.0,0.0,0.0,0.0,0.0,0.0,0.0,0.0,0.0,0.0,0.0,0.0,0.0,0.0,0.0,0.0,0.0,0.0,0.0,0.0,0.0,0.0,0.0,0.0,0.0,0.0,0.0,0.0,0.0,0.0,0.0,0.0,0.0,0.0,0.0,0.0,0.0,0.0,0.0,0.0,0.0,0.0,0.0,0.0,0.0,0.0,0.0,0.0,0.0,0.0,0.0,0.0,0.0,0.0,0.0,0.0,0.0,0.0,0.0,0.0,0.0,0.0,0.0,0.0,0.0,0.0,0.0,0.0,0.0,0.0,0.0,0.0,0.0,0.0,0.0,0.0,0.4368,0.4677,0.4648,0.4855,0.5373,0.5707,0.5908,0.0,0.0,0.0,0.0,0.0,0.0,0.0,0.0,0.0,0.0,0.0,0.0,0.0,0.0,0.0,0.0,0.0,0.0,0.0,0.0,0.0,0.0,0.0,0.0,0.0,0.0,0.0,0.0,0.0,0.0,0.0,0.0,0.0,0.0,0.0,0.0,0.0,0.0,0.0,0.0,0.0,0.0,0.0,0.0,0.0,0.0,0.0,0.0,0.0,0.0,0.0,0.0,0.0,0.0,0.0,0.0,0.0,0.0,0.0,0.0,0.0,0.0,0.0,0.0,0.0,0.0,0.0,0.0,0.0,0.0,0.0,0.0,0.0,0.0,0.0,0.0,0.0,0.0,0.0,0.0,0.0,0.0,0.0,0.0,0.0,0.0,0.0,0.0,0.0,0.0,0.0,0.0,0.0,0.0,0.0,0.0,0.0,0.0,0.0,0.0,0.0,0.0,0.0,0.0,0.0,0.0,0.0,0.3929,0.4365,0.467,0.4593,0.4643,0.4854,0.5174,0.5527,0.5836,0.0,0.0,0.0,0.0,0.0,0.0,0.0,0.0,0.0,0.0,0.0,0.0,0.0,0.0,0.0,0.0,0.0,0.0,0.0,0.0,0.0,0.0,0.0,0.0,0.0,0.0,0.0,0.0,0.0,0.0,0.0,0.0,0.0,0.0,0.0,0.0,0.0,0.0,0.0,0.0,0.0,0.0,0.0,0.0,0.0,0.0,0.0,0.0,-0.0812,0.0,0.0,0.0,0.0,0.0,0.0,0.0,0.0,0.0,0.0,0.0,0.0,0.0,0.0,0.0,0.0,0.0,0.0,0.0,0.0,0.0,0.0,0.0,0.0,0.0,0.0,0.0,0.0,0.0,0.0,0.0,0.0,0.0,0.0,0.0,0.0,0.0,0.0,0.0,0.0,0.0,0.0,0.0,0.0,0.0,0.0,0.0,0.0,0.0,0.0,0.0,0.0,0.0,0.0,0.0,0.0,0.3876,0.4105,0.4365,0.468,0.4667,0.4977,0.5567,0.5011,0.4892,0.5348,0.0,0.0,0.0,0.0,0.0,0.0,0.0,0.0,0.0,0.0,0.0,0.0,0.0,0.0,0.0,0.0,0.0,0.0,0.0,0.0,0.0,0.0,0.0,0.0,0.0,0.0,0.0,0.0,0.0,0.0,0.0,0.0,0.0,0.0,0.0,0.0,0.0,0.0,0.0,0.0,-0.0171,0.0,0.0,0.0,0.0,0.0,0.0,0.0,0.0,-0.065,0.0,0.0,0.0,0.0,0.0,0.0,0.0,0.0,0.0,0.0,0.0,0.0,0.0,0.0,0.0,0.0,0.0,0.0,0.0,0.0,0.0,0.0,0.0,0.0,0.0,0.0,0.0,0.0,0.0,0.0,0.0,0.0,0.0,0.0,0.0,0.0,0.0,0.0,0.0,0.0,0.0,0.0,0.0,0.0,0.0,0.0,0.0,0.0,0.0,0.0,0.0,0.0,0.0,0.0,0.0,0.3778,0.4165,0.4429,0.4597,0.46,0.4766,0.5093,0.4563,0.4296,0.0,0.0,0.0,0.0,0.0,0.0,0.0,0.0,0.0,0.0,0.0,0.0,0.0,0.0,0.0,0.0,0.0,0.0,0.0,0.0,0.0,0.0,0.0,0.0,0.0,0.0,0.0,0.0,0.0,0.0,0.0,0.0,0.0,0.0,0.0,0.0,0.0,0.0,0.0,0.0,-0.0199,-0.0441,-0.0654,0.0,0.0,0.0,0.0,0.0,0.0,-0.1464,-0.1203,0.0,0.0,0.0,0.0,0.0,0.0,0.0,0.0,0.0,0.0,0.0,0.0,0.0,0.0,0.0,0.0,0.0,0.0,0.0,0.0,0.0,0.0,0.0,0.0,0.0,0.0,0.0,0.0,0.0,0.0,0.0,0.0,0.0,0.0,0.0,0.0,0.0,0.0,0.0,0.0,0.0,0.0,0.0,0.0,0.0,0.0,0.0,0.0,0.0,0.0,0.0,0.0,0.0,0.0,0.0,0.3604,0.4129,0.4429,0.4484,0.4491,0.4491,0.4487,0.4259,0.3944,0.0,0.0,0.0,0.0,0.0,0.0,0.0,0.0,0.0,0.0,0.0,0.0,0.0,0.0,0.0,0.0,0.0,0.0,0.0,0.0,0.0,0.0,0.0,0.0,0.0,0.0,0.0,0.0,0.0,0.0,0.0,0.0,0.0,0.0,0.0,0.0,0.0,0.0,0.0,0.0,0.0,-0.0761,-0.0815,-0.104,0.0,0.0,0.0,0.0,-0.2228,-0.199,0.0,0.0,0.0,0.0,0.0,0.0,0.0,0.0,0.0,0.0,0.0,0.0,0.0,0.0,0.0,0.0,0.0,0.0,0.0,0.0,0.0,0.0,0.0,0.0,0.0,0.0,0.0,0.0,0.0,0.0,0.0,0.0,0.0,0.0,0.0,0.0,0.0,0.0,0.0,0.0,0.0,0.0,0.0,0.0,0.0,0.0,0.0,0.0,0.0,0.0,0.0,0.0,0.0,0.0,0.0,0.0,0.3587,0.3904,0.4199,0.4474,0.4491,0.4491,0.4491,0.4457,0.4177,0.0,0.0,0.0,0.0,0.0,0.0,0.0,0.0,0.0,0.0,0.0,0.0,0.0,0.0,0.0,0.0,0.0,0.0,0.0,0.0,0.0,0.0,0.0,0.0,0.0,0.0,0.0,0.0,0.0,0.0,0.0,0.0,0.0,0.0,0.0,0.0,0.0,0.0,0.0,0.0,0.0,-0.0952,-0.1192,-0.1413,-0.1689,0.0,0.0,-0.2565,-0.2493,-0.1995,0.0,0.0,0.0,0.0,0.0,0.0,0.0,0.0,0.0,0.0,0.0,0.0,0.0,0.0,0.0,0.0,0.0,0.0,0.0,0.0,0.0,0.0,0.0,0.0,0.0,0.0,0.0,0.0,0.0,0.0,0.0,0.0,0.0,0.0,0.0,0.0,0.0,0.0,0.0,0.0,0.0,0.0,0.0,0.0,0.0,0.0,0.0,0.0,0.0,0.0,0.0,0.0,0.0,0.0,0.0,0.3144,0.36,0.4061,0.4361,0.4484,0.4491,0.4491,0.4487,0.4242,0.3907,0.0,0.0,0.0,0.0,0.0,0.0,0.0,0.0,0.0,0.0,0.0,0.0,0.0,0.0,0.0,0.0,0.0,0.0,0.0,0.0,0.0,0.0,0.0,0.0,0.0,0.0,0.0,0.0,0.0,0.0,0.0,0.0,0.0,0.0,0.0,0.0,0.0,0.0,0.0,0.0,0.0,0.0,-0.1711,-0.1993,0.0,0.0,0.0,-0.2849,-0.3287,0.0,0.0,0.0,0.0,0.0,0.0,0.0,0.0,0.0,0.0,0.0,0.0,0.0,0.0,0.0,0.0,0.0,0.0,0.0,0.0,0.0,0.0,0.0,0.0,0.0,0.0,0.0,0.0,0.0,0.0,0.0,0.0,0.0,0.0,0.0,0.0,0.0,0.0,0.0,0.0,0.0,0.0,0.0,0.0,0.0,0.0,0.0,0.0,0.0,0.0,0.0,0.0,0.0,0.0,0.0,0.0,0.0,0.3604,0.4187,0.4491,0.4491,0.4491,0.4491,0.4484,0.4126,0.0,0.0,0.0,0.0,0.0,0.0,0.0,0.0,0.0,0.0,0.0,0.0,0.0,0.0,0.0,0.0,0.0,0.0,0.0,0.0,0.0,0.0,0.0,0.0,0.0,0.0,0.0,0.0144,0.0,0.0,0.0,0.0,0.0,0.0,0.0,0.0,0.0,0.0,0.0,0.0,0.0,0.0,-0.248,-0.2258,-0.2562,-0.2853,0.0,0.0,-0.323,-0.3714,-0.3234,-0.2713,0.0,0.0,0.0,0.0,0.0,0.0,0.0,0.0,0.0,0.0,0.0,0.0,0.0,0.0,0.0,0.0,0.0,0.0,0.0,0.0,0.0,0.0,0.0,0.0,0.0,0.0,0.0,0.0,0.0,0.0,0.0,0.0,0.0,0.0,0.0,0.0,0.0,0.0,0.0,0.0,0.0,0.0,0.0,0.0,0.0,0.0,0.0,0.0,0.0,0.0,0.0,0.0,0.0,0.0,0.0,0.3607,0.4187,0.4491,0.4491,0.4491,0.4491,0.4487,0.4277,0.3984,0.0,0.0,0.0,0.0,0.0,0.0,0.0,0.0,0.0,0.0,0.0,0.0,0.0,0.0,0.0,0.0,0.0,0.0,0.0,0.0,0.0,0.0,0.0,0.0,0.0,0.0,0.0,0.0,0.0,0.0,0.0,0.0,0.0,0.0,0.0,0.0,0.0,0.0,0.0,0.0,0.0,-0.2731,-0.2819,-0.2971,-0.3092,0.0,0.0,-0.3901,-0.3257,-0.3115,-0.2779,-0.1998,0.0,0.0,0.0,0.0,0.0,0.0,0.0,0.0,0.0,0.0,0.0,0.0,0.0,0.0,0.0,0.0,0.0,0.0,0.0,0.0,0.0,0.0,0.0,0.0,0.0,0.0,0.0,0.0,0.0,0.0,0.0,0.0,0.0,0.0,0.0,0.0,0.0,0.0,0.0,0.0,0.0,0.0,0.0,0.0,0.0,0.0,0.0,0.0,0.0,0.0,0.0,0.0,0.0,0.3273,0.3604,0.4191,0.4491,0.4491,0.4491,0.4491,0.4491,0.4297,0.3971,0.0,0.0,0.0,0.0,0.0,0.0,0.0,0.0,0.0,0.0,0.0,0.0,0.0,0.0,0.0,0.0,0.0,0.0,0.0,0.0,0.0,0.0,0.0,0.0,0.0,0.0,0.0,0.0,0.0,0.0,0.0,0.0,0.0,0.0,0.0,0.0,0.0,0.0,0.0,0.0,0.0,-0.3447,-0.3667,-0.3755,0.0,0.0,-0.4082,-0.4154,-0.3992,-0.3793,-0.3398,-0.271,-0.2503,0.0,0.0,0.0,0.0,0.0,0.0,0.0,0.0,0.0,0.0,0.0,0.0,0.0,0.0,0.0,0.0,0.0,0.0,0.0,0.0,0.0,0.0,0.0,0.0,0.0,0.0,0.0,0.0,0.0,0.0,0.0,0.0,0.0,0.0,0.0,0.0,0.0,0.0,0.0,0.0,0.0,0.0,0.0,0.0,0.0,0.0,0.0,0.0,0.0,0.0,0.0,0.0,0.3273,0.3665,0.4211,0.4491,0.4491,0.4491,0.4491,0.4487,0.4324,0.3956,0.0,0.0,0.0,0.0,0.0,0.0,0.0,0.0,0.0,0.0,0.0,0.0,0.0,0.0,0.0,0.0,0.0,0.0,0.0,0.0,0.0,0.0,0.0,0.0,0.0,0.0,0.0,0.0,0.0,0.0,0.0,0.0,0.0,0.0,0.0,0.0,0.0,0.0,0.0,0.0,0.0,-0.3972,-0.4244,-0.4287,-0.4321,-0.4477,-0.4379,-0.4321,-0.4474,-0.4253,-0.3861,-0.3257,0.0,0.0,0.0,0.0,0.0,0.0,0.0,0.0,0.0,0.0,0.0,0.0,0.0,0.0,0.0,0.0,0.0,0.0,0.0,0.0,0.0,0.0,0.0,0.0,0.0,0.0,0.0,0.0,0.0,0.0,0.0,0.0,0.0,0.0,0.0,0.0,0.0,0.0,0.0,0.0,0.0,0.0,0.0,0.0,0.0,0.0,0.0,0.0,0.0,0.0,0.0,0.0,0.0,0.3323,0.3808,0.4259,0.4491,0.4491,0.4491,0.4491,0.4487,0.4324,0.405,0.3782,0.0,0.0,0.0,0.0,0.0,0.0,0.0,0.0,0.0,0.0,0.0,0.0,0.0,0.0,0.0,0.0,0.0,0.0,0.0,0.0,0.0,0.0,0.0,0.0,0.0,0.0,0.0,0.0,0.0,0.0,0.0,0.0,0.0,0.0,0.0,0.0,0.0,0.0,0.0,-0.3609,-0.4124,-0.444,-0.4484,-0.4481,-0.4491,-0.4484,-0.4484,-0.4487,-0.4311,-0.3984,0.0,0.0,0.0,0.0,0.0,0.0,0.0,0.0,0.0,0.0,0.0,0.0,0.0,0.0,0.0,0.0,0.0,0.0,0.0,0.0,0.0,0.0,0.0,0.0,0.0,0.0,0.0,0.1359,0.0884,0.0,0.0,0.0,0.0,0.0,0.0,0.0,0.0,0.0,0.0,0.0,0.0,0.0397,0.0,0.0,0.0,0.0,0.0,0.0,0.0,0.0,0.0,0.0,0.0,0.0,0.3421,0.3792,0.4262,0.4491,0.4491,0.4491,0.4491,0.4491,0.4443,0.4184,0.3686,0.0,0.0,0.0,0.0,0.0,0.0,0.0,0.0,0.0,0.0,0.0,0.0,0.0,0.0,0.0,0.0,0.0,0.0,0.0,0.0,0.0,0.0,0.0,0.0,0.0,0.0,0.0,0.0,0.0,0.0,0.0,0.0,0.0,0.0,0.0,0.0,0.0,-0.248,-0.3549,-0.3943,-0.4213,-0.446,-0.4491,-0.4491,0.0,0.0,0.0,0.0,0.0,0.0,0.0,0.0,0.0,0.0,0.0,0.0,0.0,0.0,-0.3542,-0.2836,-0.2671,-0.2637,-0.2637,0.0,0.0,0.0,0.0,0.0,0.0,0.0,0.0,0.0,0.0,0.0,0.0,0.0,0.0,0.1606,0.0,0.0847,0.0,0.0,0.0,0.0,0.0,0.0,0.0,0.0,0.0,0.0,0.0,0.041,0.0694,0.0,0.1814,0.185,0.0,0.0,0.0,0.0,0.0,0.0,0.0,0.0,0.358,0.3948,0.4313,0.4491,0.4491,0.4491,0.4491,0.4487,0.4443,0.4184,0.3666,0.3273,0.2856,0.0,0.0,0.0,0.0,0.0,0.0,0.0,0.0,0.0,0.0,0.0,0.0,0.0,0.0,0.0,0.0,0.0,0.0,0.0,0.0,0.0,0.0,0.0,0.0,0.0,0.0,0.0,0.0,0.0,0.0,0.0,0.0,0.0,-0.1706,-0.2,-0.2574,-0.3877,-0.42,-0.4358,-0.4477,0.0,0.0,0.0,0.0,0.0,0.0,0.0,-0.4297,-0.4297,-0.4239,-0.4158,-0.4082,-0.4156,-0.4113,-0.3914,0.0,0.0,-0.3269,-0.3122,-0.3085,-0.3088,-0.3088,-0.3085,-0.3066,-0.311,-0.3206,0.0,0.0,0.0,0.0,0.0,0.0,0.0,0.0,0.1381,0.0942,0.0,0.0118,0.0,0.0,0.0,0.0,0.0,0.0,0.0,0.0,0.0,0.0,0.0,0.0031,0.0463,0.1325,0.1384,0.1787,0.2517,0.3149,0.0,0.0,0.0,0.0,0.0,0.0,0.3812,0.4177,0.4385,0.4491,0.4491,0.4491,0.4491,0.4487,0.4331,0.4095,0.3816,0.3567,0.32,0.274,0.24,0.0,0.0,0.0,0.0,0.0,0.0,0.0,0.0,0.0,0.0,0.0,0.0,0.0,0.0,0.0,0.0,0.0,0.0,0.0,0.0,0.0,0.0,0.0,0.0,0.0,0.0,0.0,0.0,0.0,0.0,0.0,-0.1787,-0.2067,-0.2655,-0.3997,0.0,0.0,0.0,0.0,-0.4491,-0.4491,-0.4491,-0.4491,-0.4491,-0.4491,-0.4487,-0.4487,0.0,0.0,-0.4227,-0.4204,-0.416,-0.4035,-0.4024,-0.4008,-0.3998,-0.3866,-0.3771,-0.3771,-0.3758,-0.3812,-0.3822,-0.3836,-0.3923,0.5187,0.0,0.0,0.0,0.0,0.4288,0.3822,0.3166,0.3217,0.2366,0.0932,0.0931,0.0,0.0,0.0,0.0,0.0,0.0,0.0,0.0,0.0,0.035,0.0892,0.0293,0.0812,0.2283,0.2221,0.2602,0.3455,0.4125,0.3896,0.278,0.0,0.0,0.0,0.0,0.3987,0.4213,0.4416,0.4491,0.4491,0.4491,0.4491,0.4491,0.445,0.4311,0.4099,0.3826,0.3532,0.321,0.2788,0.0,0.0,0.0,0.0,0.0,0.0,0.0,0.0,0.0,0.0,0.0,0.0,0.0,0.0,0.0,0.0,0.0,0.0,0.0,0.0,0.0,0.0,0.0,0.0,0.0,0.0,0.0,0.0,0.0,0.0,0.0,-0.1219,-0.1382,-0.1958,0.0,0.0,-0.3904,-0.4432,-0.4491,-0.4491,-0.4491,0.0,0.0,0.0,-0.4491,-0.4491,-0.4491,-0.4491,-0.4474,-0.4433,-0.4429,-0.4385,-0.4338,-0.4361,-0.4361,-0.4321,-0.4124,-0.3968,-0.3951,-0.393,-0.393,-0.3933,-0.3967,-0.3998,0.6081,0.5715,0.5243,0.5114,0.5216,0.5196,0.4767,0.4042,0.3701,0.2749,0.1384,0.0969,0.0497,0.0,0.0,0.0,0.0,0.0,0.0222,0.0634,0.0631,0.1118,0.193,0.143,0.1892,0.3251,0.315,0.3508,0.4312,0.4786,0.4483,0.3517,0.0,0.0,0.3849,0.3998,0.4156,0.4301,0.4447,0.4491,0.4491,0.4491,0.4491,0.4491,0.4491,0.4365,0.4113,0.3982,0.3717,0.3385,0.3,0.2646,0.0,0.0,0.0,0.0,0.0,0.0,0.0,0.0,0.0,0.0,0.0,0.0,0.0,0.0,0.0,0.0,0.0,0.0,0.0,0.0,0.0,0.0,0.0,0.0,0.0,0.0,0.0,0.0,0.0,-0.0186,-0.0595,-0.0651,-0.1229,-0.2724,-0.3178,-0.3541,-0.4015,0.0,-0.4491,-0.4491,-0.4491,-0.4491,-0.4491,-0.4491,-0.4491,-0.4491,-0.4491,-0.4491,-0.4491,-0.4491,-0.4491,-0.4491,-0.4491,-0.4491,-0.4491,-0.4341,-0.4195,-0.4195,-0.4195,-0.4195,-0.4192,-0.4195,-0.4192,0.6729,0.6658,0.5983,0.5644,0.5518,0.5641,0.5128,0.4204,0.342,0.2534,0.1637,0.0569,0.0106,0.0141,0.0206,0.0,0.0272,0.0244,0.0807,0.1719,0.1725,0.2252,0.319,0.3009,0.3395,0.4303,0.4118,0.4408,0.5105,0.5123,0.5006,0.4728,0.4614,0.4436,0.4264,0.4231,0.4348,0.4508,0.4525,0.4491,0.4491,0.4491,0.4491,0.4491,0.4481,0.4344,0.4031,0.3987,0.3789,0.336,0.3071,0.2859,0.2713,0.0,0.0,0.0,0.0,0.0,0.0,0.0,0.0,0.0,0.0,0.0,0.0,0.0,0.0,0.0,0.0,0.0,0.0,0.0,0.0,0.0,0.0,0.0,0.0,0.0,0.0,0.0,0.0,0.0,0.0,0.0,-0.0503,-0.1842,-0.2732,-0.3234,-0.3314,-0.3846,-0.4319,-0.4208,-0.4346,-0.4405,-0.4322,-0.4405,-0.4491,-0.4491,-0.4491,-0.4491,-0.4491,-0.4491,-0.4491,-0.4491,-0.4491,-0.4491,-0.4491,-0.4477,-0.4487,-0.4474,-0.4477,-0.4481,-0.4467,-0.4464,-0.446,0.693,0.6861,0.6685,0.6519,0.6376,0.6295,0.5676,0.473,0.453,0.3783,0.2689,0.1676,0.1226,0.1261,0.204,0.2355,0.2356,0.237,0.2484,0.2735,0.2753,0.3268,0.4094,0.3389,0.3882,0.5309,0.4549,0.4617,0.5443,0.5399,0.5213,0.5033,0.4961,0.4813,0.4596,0.4585,0.4602,0.4636,0.4549,0.4491,0.4491,0.4491,0.4491,0.4487,0.4355,0.424,0.414,0.3947,0.3799,0.3683,0.3293,0.299,0.2859,0.2413,0.0,0.0,0.0,0.0,0.0,0.0,0.0,0.0,0.0,0.0373,0.0037,0.0,0.0,0.0,0.0,0.0,0.0,0.0,0.0,0.0,0.0,0.0,0.0,0.0,0.0,0.0,0.0,0.0,0.0,0.0,-0.014,-0.0504,-0.1174,-0.1842,-0.2399,-0.2593,-0.2732,-0.2815,-0.3234,-0.3566,-0.3649,-0.4128,-0.4491,-0.4491,-0.4491,-0.4491,-0.4491,-0.4491,-0.4491,-0.4491,-0.4491,-0.4491,-0.4491,-0.4491,-0.4491,-0.4491,-0.4491,-0.4491,-0.4491,-0.4491,-0.4491,0.6574,0.698,0.698,0.693,0.6839,0.6664,0.6244,0.5665,0.5189,0.4577,0.3848,0.2732,0.2291,0.2327,0.2853,0.3115,0.3115,0.3115,0.3341,0.379,0.379,0.435,0.525,0.4675,0.4908,0.5861,0.5211,0.5154,0.5555,0.5504,0.5382,0.5237,0.5233,0.5152,0.502,0.486,0.4758,0.4687,0.4569,0.4491,0.4491,0.4491,0.4491,0.4491,0.4385,0.428,0.4126,0.3982,0.3802,0.3598,0.3269,0.3064,0.3002,0.2626,0.235,0.0,0.0,0.0,0.0,0.0,0.0,0.0,0.0,0.0,0.0,0.0,0.0,0.0,0.0,0.0,0.0,0.0,0.0,0.0,0.0,0.0,0.0,0.0,0.0,0.0,0.0,0.0,0.0,0.0,0.0,0.0,-0.0336,-0.0867,-0.1591,-0.198,-0.2204,-0.2232,-0.2538,-0.2954,-0.3231,-0.3987,-0.4491,-0.4491,-0.4491,-0.4491,-0.4491,-0.4491,-0.4491,-0.4491,-0.4491,-0.4491,-0.4491,-0.4491,-0.4491,-0.4491,-0.4491,-0.4491,-0.4491,-0.4491,-0.4491,0.5822,0.6874,0.6874,0.6962,0.7075,0.6865,0.6746,0.6642,0.5755,0.5185,0.4874,0.3976,0.3501,0.3333,0.345,0.3522,0.3513,0.3513,0.4023,0.4882,0.4882,0.5392,0.6293,0.6122,0.6057,0.6013,0.5905,0.5766,0.5647,0.5606,0.5521,0.5426,0.5405,0.5395,0.5382,0.5104,0.488,0.4691,0.4586,0.4511,0.4491,0.4491,0.4491,0.4491,0.447,0.4331,0.4008,0.3994,0.3809,0.339,0.3222,0.3178,0.3151,0.2883,0.2768,0.0,0.2178,0.0,0.0,0.0,0.0,0.0,0.0,0.0,0.0,0.0,0.0,0.0,0.0,0.0,0.0,0.0,0.0,0.0,0.0,0.0,0.0,0.0,0.0,0.0,0.0,0.0,0.0,0.0,0.0,0.0,0.0,-0.0308,-0.0866,-0.1452,-0.1814,-0.1925,-0.2009,-0.2286,-0.2982,-0.3788,-0.4294,-0.4322,-0.4432,-0.4491,-0.4491,-0.4491,-0.4491,-0.4491,-0.4491,-0.4491,-0.4491,-0.4491,-0.4491,-0.4491,-0.4491,-0.4491,-0.4491,-0.4491,-0.4491,0.4639,0.5714,0.5716,0.6248,0.7092,0.7038,0.6947,0.6842,0.6626,0.5987,0.5154,0.5753,0.5482,0.4666,0.5462,0.5808,0.5709,0.5709,0.5825,0.5986,0.5986,0.6103,0.63,0.6269,0.6255,0.6245,0.6061,0.5936,0.5942,0.5708,0.5576,0.5545,0.5457,0.5395,0.5392,0.0,0.0,0.0,0.4663,0.4617,0.4498,0.4491,0.4491,0.4487,0.4348,0.0,0.4004,0.3994,0.39,0.3717,0.3571,0.0,0.0,0.0,0.0,0.0,0.0,0.0,0.0,0.0,0.0,0.0,0.0022,0.0,0.0,0.0,0.0,0.0,0.0,0.0,0.0,0.0,0.0,0.0,0.0,0.0,0.0,0.0,0.0,0.0,0.0,0.0,0.0,0.0,0.0,0.0,0.0,0.0,0.0,0.0,0.0,-0.0448,-0.0978,-0.1591,-0.2313,-0.3037,-0.3566,-0.3652,-0.4128,-0.4432,-0.4491,-0.4491,-0.4491,-0.4491,-0.4491,-0.4491,-0.4491,-0.4491,-0.4491,-0.4491,-0.4491,-0.4491,-0.4491,-0.4491,-0.4491,0.5391,0.0,0.6421,0.6712,0.0,0.7129,0.7055,0.6991,0.6987,0.6642,0.6039,0.6479,0.6366,0.5802,0.63,0.6474,0.6402,0.633,0.63,0.63,0.63,0.63,0.63,0.63,0.63,0.6296,0.6183,0.6105,0.5983,0.5803,0.5661,0.5586,0.547,0.5395,0.5395,0.5395,0.5208,0.4806,0.4728,0.4644,0.4498,0.4491,0.4491,0.4487,0.0,0.0,0.0,0.0,0.0,0.0,0.0,0.0,0.0,0.0,0.0,0.3251,0.2728,0.2151,0.1488,0.0995,0.0525,0.0,0.0,0.0,0.0,0.0,0.0,0.0,0.0,0.0,0.0,0.0,0.0,0.0,0.0,0.0,0.0,0.0,0.0,0.0,0.0,0.0,0.0,0.0,0.0,0.0,0.0,0.0,0.0,0.0,0.0,0.0,-0.0616,-0.1228,-0.1618,-0.2287,-0.2926,-0.3289,-0.3652,-0.407,-0.4432,-0.4491,-0.4491,-0.4491,-0.4491,-0.4491,-0.4491,-0.4491,-0.4491,-0.4491,-0.4491,-0.4491,-0.4491,-0.4491,-0.4491,0.6181,0.7255,0.7181,0.7207,0.7405,0.7238,0.7119,0.7095,0.0,0.0,0.0,0.6834,0.6763,0.6732,0.661,0.6562,0.6504,0.6392,0.6327,0.63,0.63,0.63,0.63,0.63,0.63,0.63,0.63,0.6235,0.6067,0.5878,0.5769,0.5627,0.5511,0.5423,0.5395,0.5395,0.5262,0.4962,0.4809,0.4657,0.4535,0.4505,0.4491,0.4491,0.4491,0.4392,0.4227,0.4217,0.4132,0.3863,0.3761,0.3751,0.386,0.3757,0.3765,0.3946,0.3443,0.28,0.2056,0.1449,0.0792,0.0052,0.0,0.0,0.0,0.0,0.0,0.0,0.0,0.0,0.0,0.0,0.0,0.0,0.0,0.0,0.0,0.0,0.0,0.0,0.0,0.0,0.0,0.0,0.0,0.0,0.0,0.0,0.0,0.0,0.0,0.0,-0.0476,-0.0867,-0.1006,-0.1535,-0.2232,-0.2702,-0.3093,-0.3566,-0.4098,-0.4405,-0.4491,-0.4491,-0.4491,-0.4491,-0.4491,-0.4491,-0.4491,-0.4491,-0.4491,-0.4491,-0.4491,-0.4491,-0.4491,0.4975,0.6067,0.6051,0.6545,0.737,0.7392,0.7265,0.7098,0.7095,0.7082,0.7065,0.7045,0.6967,0.6852,0.6832,0.6722,0.6515,0.6491,0.6419,0.0,0.63,0.63,0.63,0.63,0.63,0.63,0.63,0.6286,0.6252,0.6071,0.5885,0.5772,0.5627,0.5525,0.5402,0.5395,0.5274,0.5069,0.4931,0.4816,0.4692,0.4556,0.4491,0.4491,0.4491,0.4395,0.4207,0.4365,0.4355,0.4166,0.4139,0.4113,0.4149,0.4011,0.3975,0.3966,0.3415,0.2778,0.205,0.1422,0.0775,0.0,0.0,0.0,0.0,0.0,0.0,0.0,0.0,0.0,0.0,0.0,0.0,0.0,0.0,0.0,0.0,0.0,0.0,0.0,0.0,0.0,0.0,0.0,0.0,0.0,0.0,0.0,0.0,0.0,0.0,0.0,-0.0084,-0.014,-0.0308,-0.0783,-0.1284,-0.1368,-0.251,-0.3259,-0.3539,-0.4042,-0.4405,-0.4491,-0.4491,-0.4491,-0.4491,-0.4491,-0.4491,-0.4491,-0.4491,-0.4491,-0.4491,-0.4491,-0.4491,0.6513,0.6943,0.6918,0.714,0.7597,0.7487,0.7282,0.7098,0.7095,0.7095,0.7095,0.7095,0.7061,0.6994,0.692,0.6812,0.6712,0.6549,0.6477,0.6412,0.6334,0.63,0.63,0.63,0.63,0.63,0.63,0.63,0.6286,0.6101,0.5956,0.5875,0.5701,0.5511,0.5405,0.5395,0.5361,0.5254,0.5111,0.4891,0.4697,0.4619,0.4576,0.4494,0.4491,0.446,0.4365,0.4457,0.446,0.4368,0.4264,0.4257,0.4355,0.4196,0.4153,0.4253,0.4019,0.351,0.2749,0.1718,0.0962,0.0615,0.0224,0.0,0.0,0.0,0.0,0.0,0.0,0.0,0.0,0.0,0.0,0.0,0.0,0.0,0.0,0.0,0.0,0.0,0.0,0.0,0.0,0.0,0.0,0.0,0.0,0.0,0.0,0.0,0.0,0.0,0.0,0.0,0.0,-0.0252,-0.0643,-0.1006,-0.1675,-0.2452,-0.3093,-0.3735,-0.4042,-0.4405,-0.4491,-0.4491,-0.4491,-0.4491,-0.4491,-0.4491,-0.4491,-0.4491,-0.4491,-0.4491,-0.4491,0.7988,0.7975,0.7864,0.7845,0.7787,0.7499,0.7305,0.7149,0.7112,0.7095,0.7095,0.7095,0.7095,0.7085,0.698,0.6916,0.6852,0.6647,0.6545,0.6501,0.6364,0.63,0.63,0.63,0.63,0.63,0.63,0.63,0.6282,0.6139,0.6064,0.5963,0.5735,0.5528,0.545,0.5412,0.5395,0.5385,0.5247,0.504,0.4752,0.4711,0.4644,0.4501,0.4491,0.4491,0.4491,0.4491,0.4405,0.4233,0.4247,0.4264,0.4226,0.425,0.4345,0.4474,0.4491,0.407,0.3093,0.2007,0.1202,0.0866,0.0476,0.0,0.0,0.0,0.0,0.0,0.0,0.0,0.0,0.0,0.0,0.0,0.0,0.0,0.0,0.0,0.0,0.0,0.0,0.0,0.0,0.0,0.0,0.0,0.0,0.0,0.0,0.0,0.0,0.0,0.0,0.0,0.0,0.0,0.0,-0.0783,-0.1034,-0.1757,-0.2732,-0.3204,-0.3705,-0.4294,-0.4491,-0.4491,-0.4491,-0.4491,-0.4491,-0.4491,-0.4491,-0.4491,-0.4491,-0.4491,-0.4491,0.7988,0.7988,0.7968,0.7887,0.7784,0.7502,0.7366,0.7329,0.7159,0.7095,0.7095,0.7095,0.7095,0.7095,0.7078,0.7004,0.6886,0.6756,0.6607,0.6471,0.6364,0.63,0.63,0.63,0.63,0.63,0.63,0.63,0.6296,0.6279,0.6169,0.601,0.5735,0.5586,0.5552,0.5463,0.5395,0.5395,0.5382,0.5228,0.4881,0.4765,0.4619,0.4494,0.4491,0.4491,0.4491,0.4491,0.4153,0.3541,0.4082,0.4137,0.3591,0.4085,0.4474,0.4491,0.4491,0.3873,0.2508,0.2176,0.1563,0.0308,0.0699,0.0699,0.0112,0.0,0.0,0.0,0.0,0.0,0.0,0.0,0.0,0.0,0.0,0.0,0.0,0.0,0.0,0.0,0.0,0.0,0.0,0.0,0.0,0.0,0.0,0.0,0.0,0.0,0.0,0.0,0.0,0.0,0.0,0.0,0.0,0.0,-0.0671,-0.1369,-0.212,-0.2815,-0.3539,-0.407,-0.4405,-0.4377,-0.4491,-0.4491,-0.4491,-0.4491,-0.4491,-0.4491,-0.4491,-0.4491,-0.4491,0.7988,0.7988,0.7988,0.7953,0.7801,0.7678,0.7533,0.737,0.7305,0.7227,0.7102,0.7095,0.7095,0.7095,0.7095,0.7061,0.7001,0.6902,0.6753,0.6603,0.6454,0.6381,0.6303,0.63,0.63,0.63,0.63,0.63,0.63,0.63,0.6183,0.5986,0.5817,0.5674,0.5586,0.5474,0.5395,0.5395,0.5395,0.5293,0.5026,0.4901,0.4707,0.4518,0.4491,0.4491,0.4491,0.4491,0.4349,0.4015,0.3876,0.3873,0.4015,0.3932,0.4042,0.4436,0.4491,0.4239,0.3624,0.3148,0.2649,0.1981,0.1397,0.0951,0.0671,0.0252,0.0,0.0,0.0,0.0,0.0,0.0,0.0,0.0,0.0,0.0,0.0,0.0,0.0,0.0,0.0,0.0,0.0,0.0,0.0,0.0,0.0,0.0,0.0,0.0,0.0,0.0,0.0,0.0,0.0,0.0,0.0,0.0,-0.0224,-0.07,-0.1424,-0.173,-0.2371,-0.3622,-0.3763,-0.4015,-0.446,-0.4487,-0.4491,-0.4491,-0.4491,-0.4491,-0.4491,-0.4491,-0.4491,0.7988,0.7988,0.7988,0.7928,0.7823,0.7828,0.7668,0.7441,0.7436,0.7282,0.7102,0.7095,0.7095,0.7095,0.7095,0.7095,0.7078,0.695,0.6829,0.6746,0.6566,0.6457,0.6361,0.6313,0.63,0.63,0.63,0.63,0.63,0.63,0.62,0.6084,0.5939,0.5789,0.565,0.5532,0.5433,0.5399,0.5395,0.5287,0.5106,0.5002,0.4833,0.4583,0.4511,0.4491,0.4491,0.4491,0.4405,0.4181,0.3818,0.379,0.4125,0.3876,0.3959,0.4377,0.4294,0.4184,0.4184,0.3707,0.3289,0.2954,0.212,0.1507,0.1145,0.0783,0.042,0.0,0.0168,0.0,0.0,0.0,0.0,0.0,0.0,0.0,0.0,0.0,0.0,0.0,0.0,0.0,0.0,0.0,0.0,0.0,0.0,0.0,0.0,0.0,0.0,0.0,0.0,0.0,0.0,0.0,0.0,0.0,0.0,-0.0308,-0.0922,-0.109,-0.1396,-0.2815,-0.2926,-0.3093,-0.3483,-0.3763,-0.4294,-0.4432,-0.446,-0.4432,-0.4491,-0.4491,-0.4491,0.7988,0.7988,0.7988,0.7985,0.7968,0.7879,0.7729,0.7567,0.7441,0.7288,0.7105,0.7095,0.7095,0.7095,0.7095,0.7095,0.7078,0.6957,0.6886,0.6836,0.662,0.6515,0.6494,0.6364,0.6303,0.63,0.63,0.63,0.63,0.63,0.6296,0.6272,0.6081,0.5902,0.5793,0.5644,0.5539,0.5426,0.5399,0.5324,0.5123,0.5096,0.4945,0.4743,0.4569,0.4498,0.4491,0.4491,0.4181,0.3428,0.3959,0.4098,0.3624,0.4098,0.4432,0.4432,0.3873,0.3511,0.3541,0.3483,0.3176,0.2565,0.2843,0.2593,0.1507,0.1647,0.1398,0.0196,0.0674,0.0702,0.0,0.0,0.0,0.0,0.0,0.0,0.0,0.0,0.0,0.0,0.0,0.0,0.0,0.0,0.0,0.0,0.0,0.0,0.0,0.0,0.0,0.0,0.0,0.0,0.0,0.0,0.0,0.0,0.0,0.0,0.0,-0.1202,0.0,-0.1952,-0.2147,-0.2313,-0.2426,-0.2899,-0.3622,-0.3984,-0.4267,-0.4322,-0.446,-0.4491,-0.4491,0.7988,0.7988,0.7988,0.7988,0.7982,0.7931,0.7821,0.76,0.7543,0.7373,0.7122,0.7095,0.7095,0.7095,0.7095,0.7095,0.7092,0.7041,0.6974,0.6886,0.6814,0.6661,0.6515,0.6457,0.6385,0.6306,0.63,0.63,0.63,0.63,0.63,0.6272,0.6105,0.5963,0.5915,0.5711,0.5559,0.5539,0.545,0.5365,0.5303,0.515,0.5046,0.4969,0.4764,0.459,0.4491,0.4491,0.4349,0.4095,0.3456,0.3372,0.4042,0.4349,0.4491,0.446,0.4236,0.4098,0.4125,0.4098,0.4012,0.3707,0.3428,0.3148,0.2649,0.2373,0.1998,0.1662,0.1211,0.0989,0.0794,0.0345,0.0,0.0,0.0,0.0,0.0,0.0,0.0,0.0,0.0,0.0,0.0,0.0,0.0,0.0,0.0,0.0,0.0,0.0,0.0,0.0,0.0,0.0,0.0,0.0,0.0,0.0,0.0,0.0,0.0,0.0,0.0,0.0,-0.148,-0.1729,-0.1925,-0.2259,-0.2954,-0.3594,-0.3846,-0.4153,-0.4432,-0.446,-0.4491,0.7988,0.7988,0.7988,0.7988,0.7988,0.7988,0.7823,0.7614,0.7597,0.7428,0.7136,0.7095,0.7095,0.7095,0.7095,0.7095,0.7095,0.7095,0.7045,0.6953,0.691,0.6817,0.6641,0.6569,0.6511,0.6378,0.6317,0.63,0.63,0.63,0.63,0.6289,0.6152,0.604,0.5959,0.5779,0.5675,0.5576,0.547,0.5395,0.5382,0.5257,0.5147,0.5079,0.4938,0.4738,0.458,0.4566,0.4535,0.4356,0.3483,0.34,0.4346,0.4239,0.4125,0.4125,0.3873,0.3873,0.4098,0.4125,0.4208,0.446,0.4042,0.3652,0.343,0.3126,0.2893,0.251,0.2314,0.1988,0.1669,0.1244,0.0636,0.0,0.0,0.0,0.0,0.0,0.0,0.0,0.0,0.0,0.0,0.0,0.0,0.0,0.0,0.0,0.0,0.0,0.0,0.0,0.0,0.0,0.0,0.0,0.0,0.0,0.0,0.0,0.0,0.0,0.0,0.0,0.0,0.0,-0.148,-0.1758,-0.2315,-0.301,-0.3483,-0.3818,-0.4125,-0.4487,-0.446,0.7988,0.7988,0.7988,0.7988,0.7988,0.7988,0.7872,0.7641,0.7604,0.7434,0.719,0.7102,0.7095,0.7095,0.7095,0.7095,0.7139,0.7228,0.718,0.7065,0.696,0.6889,0.6839,0.6759,0.6607,0.6491,0.6368,0.6306,0.63,0.63,0.63,0.63,0.6289,0.6173,0.604,0.5888,0.5735,0.561,0.5498,0.5409,0.5395,0.5378,0.5281,0.5133,0.5093,0.4986,0.4747,0.4726,0.4626,0.4525,0.4394,0.4436,0.4294,0.3846,0.3428,0.34,0.2788,0.2732,0.3206,0.3436,0.3894,0.4242,0.4439,0.4154,0.3775,0.408,0.3984,0.315,0.3209,0.339,0.2812,0.253,0.187,0.0,0.0,0.0,0.0,0.0,0.0,0.0,0.0,0.0,0.0,0.0,0.0,0.0,0.0,0.0,0.0,0.0,0.0,0.0,0.0,0.0,0.0,0.0,0.0,0.0,0.0,0.0,0.0,0.0,0.0,0.0,0.0,0.0,0.0,-0.1174,-0.1703,-0.2341,-0.2843,-0.3372,-0.3846,-0.4181,-0.4377,0.7988,0.7988,0.7988,0.7988,0.7988,0.7988,0.7923,0.774,0.7645,0.7485,0.7305,0.7142,0.7095,0.7095,0.7095,0.7095,0.7183,0.7885,0.7929,0.7261,0.7092,0.7021,0.6936,0.6836,0.6725,0.6545,0.647,0.6392,0.6313,0.63,0.63,0.63,0.63,0.6276,0.6179,0.6037,0.5884,0.5735,0.5627,0.5508,0.5405,0.5395,0.5368,0.533,0.5324,0.5192,0.5006,0.487,0.4779,0.4626,0.4158,0.3829,0.3755,0.3984,0.3876,0.3511,0.3707,0.3289,0.2768,0.3609,0.4047,0.3971,0.4298,0.4527,0.433,0.4519,0.4575,0.4167,0.4028,0.3692,0.3538,0.3032,0.2501,0.1917,0.1293,0.0865,0.0746,0.0381,0.0,0.0,0.0,0.0,0.0,0.0,0.0,0.0,0.0,0.0,0.0,0.0,0.0,0.0,0.0,0.0,0.0,0.0,0.0,0.0,0.0,0.0,0.0,0.0,0.0,0.0,0.0,0.0,0.0,-0.0644,-0.1146,-0.1452,-0.1814,-0.2538,-0.3428,-0.3846,-0.4012,0.8287,0.8726,0.8775,0.8726,0.8825,0.9213,0.9116,0.8671,0.8985,0.8746,0.8257,0.8005,0.7622,0.7255,0.7125,0.736,0.7797,0.8588,0.8711,0.8317,0.7881,0.7738,0.7562,0.7075,0.6807,0.6627,0.6502,0.6436,0.6303,0.63,0.63,0.63,0.63,0.6296,0.6282,0.6105,0.5956,0.5806,0.5661,0.5549,0.5429,0.5395,0.5395,0.5395,0.5395,0.5311,0.5213,0.5125,0.4958,0.4676,0.4205,0.3871,0.3769,0.3959,0.3846,0.3597,0.3705,0.3594,0.2877,0.3857,0.4427,0.4054,0.4374,0.4687,0.4711,0.4762,0.4955,0.4961,0.4695,0.4431,0.4397,0.4082,0.3715,0.3673,0.2547,0.1747,0.1339,0.0841,0.0,0.0,0.0,0.0,0.0,0.0,0.0,0.0,0.0,0.0,0.0,0.0,0.0,0.0,0.0,0.0,0.0,0.0,0.0,0.0,0.0,0.0,0.0,0.0,0.0,0.0,0.0,0.0,0.0,0.0,-0.0448,-0.0643,-0.109,-0.2037,-0.2982,-0.337,-0.3649,0.8775,0.9948,0.9998,0.9998,1.0243,1.1219,1.0964,1.0232,1.0986,1.0726,0.9798,0.9228,0.8607,0.7688,0.7293,0.7665,0.8715,0.9061,0.9705,1.0091,0.9662,0.9043,0.8321,0.7353,0.6878,0.6715,0.6569,0.6463,0.634,0.631,0.63,0.63,0.63,0.63,0.6276,0.6112,0.5986,0.584,0.5688,0.5576,0.5429,0.5395,0.5395,0.5395,0.5395,0.5388,0.5371,0.5327,0.5121,0.4765,0.4574,0.443,0.4338,0.3771,0.3483,0.3418,0.3413,0.3431,0.3451,0.4065,0.4464,0.4325,0.4541,0.4707,0.4755,0.4935,0.5066,0.5137,0.5205,0.5279,0.5289,0.5193,0.5176,0.512,0.3711,0.2488,0.1571,0.1337,0.0904,0.0303,0.0,0.0,0.0,0.0,0.0,0.0,0.0,0.0,0.0,0.0,0.0,0.0,0.0,0.0,0.0,0.0,0.0,0.0,0.0,0.0,0.0,0.0,0.0,0.0,0.0,0.0,0.0,0.0,0.0,-0.0532,-0.1146,-0.1898,-0.2287,-0.2591,-0.301,0.8775,0.9948,1.0002,1.0534,1.1361,1.1804,1.1721,1.1405,1.163,1.1628,1.0926,0.9798,0.9214,0.8693,0.7649,0.7753,0.8973,0.9792,1.0783,1.1681,1.1595,0.9831,0.8009,0.7278,0.696,0.6858,0.6709,0.6607,0.6457,0.6354,0.6306,0.63,0.63,0.63,0.6286,0.6252,0.6122,0.5973,0.5784,0.5674,0.5566,0.545,0.5395,0.5395,0.5395,0.5395,0.5382,0.5247,0.5123,0.502,0.4762,0.4662,0.4619,0.4313,0.3992,0.3717,0.4024,0.3891,0.3379,0.417,0.4534,0.4004,0.4573,0.4938,0.487,0.4992,0.5176,0.527,0.5382,0.5395,0.5395,0.5395,0.5395,0.5263,0.4317,0.3311,0.2444,0.1708,0.1173,0.0939,0.0437,0.0,0.0,0.0,0.0,0.0,0.0,0.0,0.0,0.0,0.0,0.0,0.0,0.0,0.0,0.0,0.0,0.0,0.0,0.0,0.0,0.0,0.0,0.0,0.0,0.0,0.0,0.0,0.0,0.0,0.0,0.0,0.0,-0.1619,-0.2037,0.9065,1.0779,1.0779,1.1556,1.2764,1.3301,1.3253,1.2936,1.325,1.3014,1.2343,1.1431,1.054,0.9862,0.901,0.9226,1.0308,1.0994,1.1949,1.2723,1.1986,1.0173,0.8229,0.7445,0.7024,0.6893,0.6841,0.6675,0.6535,0.6422,0.6364,0.6306,0.63,0.63,0.63,0.6293,0.6224,0.604,0.5892,0.5803,0.5599,0.5539,0.5457,0.5416,0.5395,0.5395,0.5378,0.5274,0.5203,0.5101,0.4914,0.4785,0.4779,0.4707,0.4494,0.4186,0.4575,0.4408,0.3983,0.4528,0.471,0.4372,0.4792,0.4973,0.5022,0.5142,0.5317,0.5375,0.5392,0.5395,0.5395,0.5395,0.5395,0.5329,0.4921,0.4215,0.3345,0.2811,0.2275,0.1809,0.1141,0.0538,0.0504,0.0269,0.0,0.0,0.0,0.0,0.0,0.0,0.0,0.0,0.0,0.0,0.0,0.0,0.0,0.0,0.0,0.0,0.0,0.0,0.0,0.0,0.0,0.0,0.0,0.0,0.0,0.0,0.0,0.0,0.0,-0.0951,-0.1341,0.941,1.1702,1.1848,1.2668,1.3926,1.5194,1.4997,1.4459,1.5073,1.482,1.3706,1.3318,1.2136,1.0979,1.045,1.108,1.2151,1.2066,1.2899,1.3033,1.2126,1.0346,0.9444,0.7705,0.7122,0.6933,0.6903,0.6763,0.6607,0.6488,0.6544,0.6599,0.6567,0.649,0.6641,0.6567,0.6336,0.6091,0.599,0.5878,0.5674,0.5586,0.5528,0.5412,0.5395,0.5395,0.5395,0.5375,0.533,0.5127,0.5016,0.4945,0.4904,0.4901,0.4894,0.4874,0.488,0.489,0.4914,0.4892,0.4948,0.4883,0.498,0.5106,0.5148,0.5243,0.5375,0.5392,0.5395,0.5395,0.5395,0.5395,0.5395,0.5395,0.5326,0.4957,0.4384,0.4048,0.368,0.2911,0.2008,0.1541,0.1106,0.0672,0.0,0.0,0.0,0.0,0.0,0.0,0.0,0.0,0.0,0.0,0.0,0.0,0.0,0.0,0.0,0.0,0.0,0.0,0.0,0.0,0.0,0.0,0.0,0.0,0.0,0.0,0.0,0.0,-0.0727,-0.0671,-0.0895,0.897,1.0485,1.1507,1.2673,1.3974,1.5242,1.5635,1.5343,1.5635,1.5423,1.481,1.3747,1.2929,1.2307,1.137,1.1209,1.2328,1.2456,1.2942,1.3779,1.2681,1.1895,1.0864,0.8703,0.7254,0.7196,0.6973,0.6873,0.6792,0.6811,0.6871,0.7435,0.7373,0.748,0.7476,0.7442,0.7053,0.6384,0.6136,0.5989,0.5776,0.5647,0.5559,0.5412,0.5395,0.5395,0.5395,0.5395,0.5378,0.5284,0.5176,0.5087,0.5039,0.4965,0.4996,0.5032,0.5059,0.5135,0.5262,0.5233,0.5209,0.5114,0.5203,0.526,0.5117,0.5306,0.5385,0.5395,0.5395,0.5395,0.5395,0.5395,0.5395,0.5395,0.5395,0.5326,0.5024,0.445,0.4015,0.3647,0.2945,0.2143,0.1474,0.1307,0.0,0.0,0.0,0.0,0.0,0.0,0.0,0.0,0.0,0.0,0.0,0.0,0.0,0.0,0.0,0.0,0.0,0.0,0.0,0.0,0.0,0.0,0.0,0.0,0.0,0.0,0.0,0.0,0.0,0.0,0.0,0.8775,1.0047,1.073,1.1745,1.306,1.4316,1.4895,1.5045,1.5588,1.5665,1.5285,1.4397,1.3881,1.3555,1.2684,1.2644,1.2984,1.316,1.3464,1.3773,1.2899,1.2328,1.1938,1.013,0.8746,0.873,0.8706,0.8551,0.833,0.7821,0.7896,0.8526,0.8132,0.8089,0.8461,0.8504,0.797,0.7238,0.6901,0.6581,0.5985,0.5762,0.5603,0.544,0.5395,0.5395,0.5395,0.5395,0.5395,0.5375,0.5317,0.5237,0.5233,0.5169,0.5172,0.522,0.524,0.5267,0.5378,0.5388,0.5351,0.5243,0.5354,0.5304,0.5267,0.5354,0.5385,0.5395,0.5395,0.5395,0.5395,0.5395,0.5395,0.5395,0.5395,0.5395,0.5326,0.4954,0.4652,0.4486,0.3846,0.3247,0.2711,0.2175,0.0,0.0,0.0,0.0,0.0,0.0,0.0,0.0,0.0,0.0,0.0,0.0,0.0,0.0,0.0,0.0,0.0,0.0,0.0,0.0,0.0,0.0,0.0,0.0,0.0,0.0,0.0,0.0,0.0,0.0,0.0,0.8676,0.9752,1.0096,1.0828,1.175,1.3247,1.3974,1.4124,1.48,1.5094,1.5299,1.4981,1.4404,1.4451,1.4173,1.4113,1.4046,1.3997,1.4039,1.3906,1.3252,1.2808,1.2419,1.1735,1.1133,1.1085,1.0504,1.0293,0.9871,0.9352,0.9072,0.9571,0.8899,0.8922,0.9405,0.948,0.9026,0.8152,0.7723,0.7249,0.6378,0.6035,0.5678,0.545,0.5395,0.5395,0.5395,0.5395,0.5395,0.5395,0.5395,0.5395,0.5395,0.5395,0.5395,0.5392,0.5375,0.5378,0.5385,0.5395,0.5388,0.5395,0.5395,0.5395,0.5388,0.5385,0.5392,0.5395,0.5395,0.5395,0.5395,0.5395,0.5395,0.5395,0.5395,0.5395,0.5395,0.5395,0.5292,0.5226,0.4652,0.4115,0.3647,0.3178,0.2409,0.1775,0.1574,0.124,0.0572,0.0,0.0,0.0,0.0,0.0,0.0,0.0,0.0,0.0,0.0,0.0,0.0,0.0,0.0,0.0,0.0,0.0,0.0,0.0,0.0,0.0,0.0,0.0,0.0,0.0,0.0,0.8137,0.8528,1.0681,1.1121,1.0774,1.2856,1.3728,1.368,1.2969,1.3696,1.5087,1.4192,1.4201,1.464,1.4576,1.4335,1.4175,1.4108,1.4088,1.4088,1.3737,1.3646,1.3512,1.3252,1.3258,1.2912,1.1906,1.0836,1.058,0.9927,1.0239,1.0695,1.041,1.0368,1.0458,1.0484,1.0083,0.9102,0.8461,0.7836,0.7121,0.6288,0.5684,0.5457,0.5423,0.5405,0.5395,0.5395,0.5395,0.5395,0.5395,0.5395,0.5395,0.5395,0.5395,0.5395,0.5395,0.5395,0.5395,0.5395,0.5395,0.5395,0.5395,0.5395,0.5395,0.5395,0.5395,0.5395,0.5395,0.5395,0.5395,0.5395,0.5395,0.5395,0.5395,0.5395,0.5395,0.5395,0.5395,0.5359,0.5123,0.4888,0.4417,0.3982,0.3378,0.2778,0.2511,0.2009,0.1308,0.0974,0.0,0.0,0.0,0.0,0.0,0.0,0.0,0.0,0.0,0.0,0.0,0.0,0.0,0.0,0.0,0.0,0.0,0.0,0.0,0.0,0.0,0.0,0.0,0.0,0.0,0.7988,0.8137,0.941,0.9558,0.941,1.1014,1.1891,1.1886,1.1891,1.2897,1.3968,1.3836,1.4087,1.4851,1.4883,1.4589,1.4342,1.4135,1.4095,1.4088,1.4088,1.4088,1.4088,1.4088,1.4088,1.3822,1.2899,1.2292,1.2224,1.1445,1.1508,1.1833,1.1476,1.1206,1.1502,1.1545,1.1019,1.0153,0.9545,0.8713,0.7664,0.65,0.584,0.5562,0.5504,0.5474,0.5402,0.5395,0.5395,0.5395,0.5395,0.5395,0.5395,0.5395,0.5395,0.5395,0.5395,0.5395,0.5395,0.5395,0.5395,0.5395,0.5395,0.5395,0.5395,0.5395,0.5395,0.5395,0.5395,0.5395,0.5395,0.5395,0.5395,0.5395,0.5395,0.5395,0.5395,0.5395,0.5395,0.5395,0.5292,0.5123,0.5024,0.4586,0.4217,0.3846,0.3447,0.2845,0.211,0.1909,0.1743,0.0,0.0,0.0,0.0,0.0,0.0,0.0,0.0,0.0,0.0,0.0,0.0,0.0,0.0,0.0,0.0,0.0,0.0,0.0,0.0,0.0,0.0,0.0,0.0,0.8237,0.8038,0.8577,0.8478,0.8283,0.946,1.0047,1.0194,1.073,1.194,1.3315,1.3003,1.3485,1.4724,1.502,1.479,1.4459,1.4215,1.4095,1.4088,1.4088,1.4088,1.4088,1.4088,1.4088,1.4082,1.3913,1.4088,1.3604,1.2819,1.2779,1.2685,1.1942,1.1714,1.2136,1.212,1.17,1.1354,1.0783,0.9766,0.795,0.6641,0.5908,0.5664,0.563,0.5576,0.5532,0.5477,0.5463,0.5443,0.5419,0.5395,0.5395,0.5395,0.5395,0.5395,0.5395,0.5395,0.5395,0.5395,0.5395,0.5395,0.5395,0.5395,0.5395,0.5395,0.5395,0.5395,0.5395,0.5395,0.5395,0.5395,0.5395,0.5395,0.5395,0.5395,0.5395,0.5395,0.5395,0.5395,0.5395,0.5326,0.5193,0.516,0.4755,0.4655,0.4284,0.378,0.3178,0.2978,0.2744,0.241,0.0,0.0,0.0,0.0,0.0,0.0,0.0,0.0,0.0,0.0,0.0,0.0,0.0,0.0,0.0,0.0,0.0,0.0,0.0,0.0,0.0,0.0,0.0,0.9069,0.8187,1.0435,1.0145,0.8382,0.941,0.9948,0.9805,0.9023,0.9899,1.2086,1.1234,1.2019,1.3915,1.4826,1.4752,1.4509,1.4235,1.4088,1.4088,1.4088,1.4088,1.4088,1.4088,1.4088,1.4088,1.4088,1.4088,1.3986,1.3546,1.3257,1.3094,1.2816,1.2523,1.2301,1.2305,1.2224,1.1959,1.1242,0.9755,0.7873,0.6645,0.6129,0.583,0.5776,0.5752,0.5688,0.5613,0.5597,0.5583,0.5467,0.5405,0.5395,0.5395,0.5395,0.5395,0.5395,0.5395,0.5395,0.5395,0.5395,0.5395,0.5395,0.5395,0.5395,0.5395,0.5395,0.5395,0.5395,0.5395,0.5395,0.5395,0.5395,0.5395,0.5395,0.5395,0.5395,0.5395,0.5395,0.5395,0.5395,0.5395,0.5326,0.5359,0.5326,0.5259,0.5093,0.4586,0.4217,0.3982,0.3513,0.3078,0.2811,0.2329,0.1779,0.1387,0.1225,0.1131,0.0713,0.0375,0.0679,0.0894,0.0,0.0,0.0894,0.0699,0.0,0.0,0.0,0.0,0.0,0.0,0.0,0.0,0.0,1.0342,0.9164,0.9554,0.9509,0.9167,0.8973,0.8874,0.8775,0.8287,0.9072,1.0681,1.1121,1.2459,1.4294,1.479,1.4612,1.4469,1.4222,1.4088,1.4088,1.4088,1.4088,1.4088,1.4088,1.4088,1.4088,1.4088,1.4088,1.4028,1.3928,1.3687,1.324,1.306,1.2721,1.2358,1.2311,1.2305,1.1996,1.1267,1.006,0.8684,0.753,0.6641,0.5942,0.5928,0.5888,0.5813,0.5755,0.5708,0.5684,0.5603,0.5528,0.5501,0.5453,0.5395,0.5395,0.5395,0.5395,0.5395,0.5395,0.5395,0.5395,0.5395,0.5395,0.5395,0.5395,0.5395,0.5395,0.5395,0.5395,0.5395,0.5395,0.5395,0.5395,0.5395,0.5395,0.5395,0.5395,0.5395,0.5395,0.5395,0.5395,0.5395,0.5395,0.5395,0.5362,0.5329,0.5057,0.4888,0.4855,0.4284,0.3613,0.3413,0.3207,0.2678,0.2213,0.2089,0.191,0.1289,0.1135,0.1385,0.1563,0.1596,0.1455,0.1285,0.1007,0.0644,0.0,0.0,0.0,0.0,0.0,0.0,0.0,0.0,1.1214,1.0823,0.9554,0.9217,0.941,0.8432,0.8038,0.8035,0.8336,0.8954,1.0055,1.1409,1.3185,1.4479,1.4517,1.4536,1.4509,1.4215,1.4108,1.4088,1.4088,1.4088,1.4088,1.4088,1.4088,1.4088,1.4088,1.4088,1.4062,1.3941,1.3654,1.3233,1.318,1.2846,1.2458,1.2305,1.2305,1.2187,1.1316,1.0254,0.92,0.8223,0.7167,0.6421,0.6074,0.6034,0.5935,0.5867,0.5857,0.5833,0.5718,0.5644,0.5623,0.5518,0.5481,0.546,0.544,0.5395,0.5395,0.5395,0.5395,0.5395,0.5395,0.5395,0.5395,0.5395,0.5395,0.5395,0.5395,0.5395,0.5395,0.5395,0.5395,0.5395,0.5395,0.5395,0.5395,0.5395,0.5395,0.5395,0.5395,0.5395,0.5395,0.5395,0.5395,0.5395,0.5395,0.5395,0.5392,0.5359,0.499,0.4284,0.4251,0.4151,0.3824,0.3372,0.3156,0.2715,0.2096,0.1978,0.2303,0.2354,0.2322,0.2116,0.1877,0.1675,0.148,0.0,0.0,0.0,0.0,0.0,0.0,0.0,0.0,1.1502,1.3536,1.2139,1.0342,0.8333,0.8038,0.8038,0.8273,0.9013,0.9529,1.0214,1.1801,1.2951,1.3474,1.4209,1.4476,1.4439,1.4215,1.4115,1.4088,1.4088,1.4088,1.4088,1.4088,1.4088,1.4088,1.4088,1.4088,1.4021,1.3793,1.3547,1.3253,1.316,1.2806,1.2485,1.2305,1.2305,1.215,1.1428,1.0421,0.9372,0.8389,0.7383,0.6507,0.6272,0.6272,0.6252,0.6084,0.6013,0.6006,0.5871,0.5793,0.5762,0.5647,0.561,0.5552,0.5511,0.5467,0.5443,0.5409,0.5395,0.5395,0.5395,0.5395,0.5395,0.5395,0.5395,0.5395,0.5395,0.5395,0.5395,0.5395,0.5395,0.5395,0.5395,0.5395,0.5395,0.5395,0.5395,0.5395,0.5395,0.5395,0.5395,0.5395,0.5395,0.5395,0.5395,0.5395,0.5395,0.5392,0.5395,0.5123,0.5156,0.5123,0.509,0.4683,0.4059,0.3582,0.3065,0.3099,0.3365,0.3297,0.2928,0.3062,0.2897,0.2631,0.0,0.0,0.0,0.0,0.0,0.0,0.0,0.0,0.0,1.2522,1.2716,1.2963,1.2086,1.0333,0.9554,0.9217,0.9255,0.9681,1.0674,1.189,1.2524,1.3191,1.3799,1.4,1.4255,1.4235,1.4162,1.4095,1.4088,1.4088,1.4088,1.4088,1.4088,1.4088,1.4088,1.4088,1.4088,1.4055,1.372,1.3453,1.326,1.3039,1.2699,1.2418,1.2305,1.2305,1.2231,1.1811,1.0987,0.9485,0.8922,0.7974,0.6412,0.63,0.63,0.6282,0.6245,0.6179,0.6132,0.6017,0.5966,0.5918,0.5796,0.5694,0.5633,0.5596,0.5572,0.5488,0.546,0.5395,0.5395,0.5395,0.5395,0.5395,0.5395,0.5395,0.5395,0.5395,0.5395,0.5395,0.5395,0.5395,0.5395,0.5395,0.5395,0.5395,0.5395,0.5395,0.5395,0.5395,0.5395,0.5395,0.5395,0.5395,0.5395,0.5395,0.5395,0.5395,0.5395,0.5395,0.5395,0.5395,0.5395,0.5326,0.5064,0.4802,0.4408,0.3985,0.4038,0.4071,0.3656,0.3425,0.3695,0.3761,0.3286,0.2713,0.1983,0.0,0.0,0.0,0.0,0.0,0.0,0.0,1.359,1.3162,1.4076,1.3445,1.1896,1.0921,1.0587,1.0609,1.0869,1.1853,1.3547,1.3253,1.3504,1.415,1.4202,1.4102,1.4115,1.4095,1.4088,1.4088,1.4088,1.4088,1.4088,1.4088,1.4088,1.4088,1.4088,1.4088,1.4068,1.3694,1.338,1.3146,1.2812,1.2498,1.2378,1.2305,1.2305,1.2305,1.2157,1.1515,0.9933,0.9334,0.8917,0.7249,0.6756,0.6567,0.6602,0.6546,0.6282,0.6217,0.6159,0.6108,0.6044,0.5959,0.583,0.5779,0.5749,0.5749,0.5647,0.5528,0.5446,0.5409,0.5395,0.5395,0.5395,0.5395,0.5395,0.5395,0.5395,0.5395,0.5395,0.5395,0.5395,0.5395,0.5395,0.5395,0.5395,0.5395,0.5395,0.5395,0.5395,0.5395,0.5395,0.5395,0.5395,0.5395,0.5395,0.5395,0.5395,0.5395,0.5395,0.5395,0.5395,0.5395,0.5392,0.5206,0.5058,0.5009,0.467,0.4661,0.4566,0.4131,0.3954,0.4183,0.4128,0.3786,0.3446,0.3067,0.2341,0.0,0.1256,0.0894,0.0,0.0,0.0,1.4603,1.5676,1.5683,1.4274,1.2237,1.1901,1.1843,1.1902,1.251,1.3233,1.4015,1.3943,1.3959,1.4128,1.4095,1.4088,1.4088,1.4088,1.4088,1.4088,1.4088,1.4088,1.4088,1.4088,1.4088,1.4088,1.4088,1.4088,1.4075,1.3554,1.328,1.3053,1.2692,1.2358,1.2311,1.2305,1.2305,1.2305,1.2305,1.162,1.0677,0.9852,0.9291,0.8537,0.7288,0.6949,0.7176,0.6641,0.6335,0.6286,0.6279,0.6213,0.6196,0.6095,0.601,0.5979,0.5881,0.583,0.5786,0.5661,0.5569,0.5446,0.5429,0.5395,0.5395,0.5395,0.5395,0.5395,0.5395,0.5395,0.5395,0.5395,0.5395,0.5395,0.5395,0.5395,0.5395,0.5395,0.5395,0.5395,0.5395,0.5395,0.5395,0.5395,0.5395,0.5395,0.5395,0.5395,0.5395,0.5395,0.5395,0.5395,0.5395,0.5395,0.5395,0.5395,0.5352,0.5345,0.5278,0.5133,0.5034,0.4775,0.4701,0.4758,0.4535,0.421,0.4291,0.4349,0.3483,0.2593,0.1647,0.1174,0.0894,0.0,0.0,1.5274,1.5558,1.5745,1.5296,1.4418,1.359,1.3115,1.3074,1.3652,1.4143,1.4269,1.4188,1.4088,1.4088,1.4039,1.3997,1.4039,1.4088,1.4088,1.4088,1.4088,1.4088,1.4088,1.4088,1.4088,1.4088,1.4088,1.4088,1.4082,1.3527,1.3267,1.3053,1.2619,1.2345,1.2305,1.2305,1.2305,1.2305,1.2187,1.1805,1.0895,1.0415,0.9965,0.9367,0.8046,0.7557,0.7787,0.6945,0.6451,0.6296,0.63,0.63,0.63,0.6173,0.6132,0.6095,0.6017,0.6054,0.5952,0.5813,0.5671,0.5549,0.5453,0.5402,0.5395,0.5395,0.5395,0.5395,0.5395,0.5395,0.5395,0.5395,0.5395,0.5395,0.5395,0.5395,0.5395,0.5395,0.5395,0.5395,0.5395,0.5395,0.5395,0.5395,0.5395,0.5395,0.5395,0.5395,0.5395,0.5395,0.5395,0.5395,0.5395,0.5395,0.5395,0.5395,0.5395,0.5388,0.5385,0.5328,0.5264,0.5167,0.5032,0.4884,0.4762,0.4675,0.4573,0.446,0.4322,0.3652,0.2676,0.1981,0.1758,0.1591,0.0,1.5418,1.5277,1.5444,1.5531,1.5418,1.482,1.4358,1.4074,1.4369,1.4469,1.4243,1.376,1.3421,1.347,1.347,1.347,1.3512,1.3955,1.4088,1.4088,1.4088,1.4088,1.4088,1.4088,1.4088,1.4088,1.4088,1.4088,1.4075,1.3607,1.326,1.2953,1.2559,1.2358,1.2305,1.2305,1.2305,1.2305,1.2224,1.204,1.1428,1.0975,1.0677,1.0115,0.9253,0.8389,0.805,0.7442,0.6641,0.6451,0.63,0.63,0.63,0.6282,0.621,0.6176,0.6173,0.6196,0.6101,0.5929,0.5844,0.5766,0.5556,0.5412,0.5395,0.5395,0.5395,0.5395,0.5432,0.5439,0.5479,0.5475,0.5482,0.5482,0.5409,0.5409,0.5395,0.5395,0.5395,0.5395,0.5395,0.5395,0.5395,0.5395,0.5395,0.5395,0.5395,0.5395,0.5395,0.5395,0.5395,0.5395,0.5395,0.5395,0.5395,0.5395,0.5395,0.5395,0.5395,0.5395,0.5378,0.5274,0.5142,0.4985,0.488,0.4731,0.4573,0.4432,0.4349,0.4184,0.3707,0.3123,0.2704,0.2399,0.2176,1.5008,1.4995,1.5001,1.5042,1.507,1.5358,1.5325,1.4885,1.4579,1.4299,1.3919,1.2826,1.2419,1.2285,1.2242,1.237,1.2632,1.3512,1.3906,1.4088,1.4088,1.4088,1.4088,1.4088,1.4088,1.4088,1.4088,1.4082,1.4055,1.3641,1.3227,1.2799,1.2452,1.2331,1.2305,1.2305,1.2305,1.2305,1.2268,1.2194,1.1885,1.1428,1.1428,1.1056,1.0346,0.9372,0.8841,0.8161,0.7288,0.6795,0.6377,0.6377,0.6338,0.6338,0.63,0.6296,0.6293,0.6282,0.6252,0.6078,0.5942,0.5828,0.5616,0.5484,0.5412,0.5456,0.5545,0.57,0.5818,0.5714,0.561,0.5621,0.5628,0.555,0.5433,0.5419,0.5399,0.5395,0.5395,0.5395,0.5395,0.5395,0.5395,0.5395,0.5395,0.5395,0.5395,0.5395,0.5395,0.5395,0.5395,0.5395,0.5395,0.5395,0.5395,0.5395,0.5395,0.5395,0.5395,0.5392,0.5385,0.5365,0.522,0.5098,0.4979,0.4806,0.459,0.4491,0.4463,0.4267,0.4098,0.3932,0.343,0.304,0.276,1.4881,1.4669,1.4921,1.5015,1.5001,1.4917,1.4745,1.4616,1.4342,1.3747,1.2766,1.2456,1.1724,1.1123,1.1123,1.1595,1.2157,1.2766,1.3421,1.3779,1.4088,1.4088,1.4088,1.4088,1.4088,1.4088,1.4088,1.4075,1.3968,1.3634,1.3039,1.2478,1.2371,1.2318,1.2305,1.2305,1.2305,1.2305,1.2305,1.2305,1.2305,1.1922,1.2077,1.1737,1.113,1.0196,0.9372,0.8461,0.7706,0.748,0.6644,0.6528,0.733,0.6756,0.63,0.63,0.6296,0.6293,0.6272,0.6118,0.5973,0.5939,0.5813,0.5682,0.5542,0.5636,0.5877,0.6261,0.6557,0.6581,0.6458,0.6375,0.6043,0.5672,0.5573,0.5491,0.546,0.5405,0.5405,0.5395,0.5395,0.5395,0.5395,0.5395,0.5395,0.5395,0.5395,0.5395,0.5395,0.5395,0.5395,0.5395,0.5395,0.5395,0.5395,0.5395,0.5395,0.5395,0.5395,0.5395,0.5392,0.5361,0.5267,0.5142,0.4969,0.4752,0.4545,0.4494,0.4491,0.4491,0.4349,0.4294,0.4156,0.3707,0.3372,1.4516,1.4382,1.4543,1.4616,1.4583,1.4429,1.4355,1.4223,1.3668,1.2936,1.2237,1.13,1.0567,1.0009,0.9966,1.0481,1.1558,1.2242,1.2984,1.3906,1.4039,1.4088,1.4088,1.4088,1.4088,1.4088,1.4088,1.4082,1.3921,1.3507,1.2933,1.2589,1.2429,1.2311,1.2305,1.2305,1.2305,1.2305,1.2305,1.2305,1.2305,1.2305,1.2305,1.2194,1.1545,1.0832,0.9895,0.8874,0.8461,0.8122,0.7215,0.6795,0.7407,0.6872,0.6296,0.63,0.63,0.63,0.6282,0.6193,0.6081,0.6104,0.6244,0.6457,0.6427,0.6472,0.6902,0.7337,0.756,0.7672,0.7465,0.716,0.6467,0.5825,0.5686,0.5549,0.5511,0.5436,0.5412,0.5399,0.5395,0.5395,0.5395,0.5395,0.5395,0.5395,0.5395,0.5395,0.5395,0.5395,0.5395,0.5395,0.5395,0.5395,0.5395,0.5395,0.5395,0.5395,0.5395,0.5395,0.5395,0.5358,0.5293,0.5104,0.4914,0.4711,0.4545,0.4505,0.4491,0.4491,0.4491,0.4432,0.4377,0.4267,0.3987,1.4095,1.4102,1.4088,1.4135,1.4095,1.4108,1.4108,1.3913,1.2772,1.2151,1.1681,0.9923,0.9017,0.8798,0.8755,0.9401,1.0351,1.1209,1.2291,1.3864,1.3688,1.3773,1.4039,1.4088,1.4088,1.4088,1.4062,1.4008,1.3834,1.3454,1.3026,1.2764,1.2438,1.2305,1.2305,1.2305,1.2305,1.2305,1.2305,1.2305,1.2305,1.2305,1.2305,1.2305,1.2077,1.1731,1.0789,1.004,0.941,0.8765,0.805,0.7326,0.7176,0.6872,0.6451,0.63,0.63,0.63,0.63,0.6269,0.6252,0.6495,0.7013,0.7318,0.7318,0.7372,0.7815,0.8547,0.8859,0.8826,0.8662,0.8119,0.7432,0.6531,0.6008,0.5776,0.5576,0.5484,0.5402,0.5395,0.5395,0.5395,0.5395,0.5395,0.5395,0.5395,0.5395,0.5395,0.5425,0.5425,0.5428,0.5428,0.5395,0.5395,0.5395,0.5395,0.5395,0.5395,0.5395,0.5395,0.5395,0.5347,0.5286,0.5077,0.4894,0.4724,0.4597,0.4539,0.4491,0.4491,0.4491,0.4491,0.4491,0.4491,0.4405,1.4088,1.4088,1.4088,1.4088,1.4088,1.4088,1.4088,1.3913,1.1863,1.1042,1.074,0.9579,0.8364,0.7753,0.7841,0.8492,0.9492,1.0265,1.1042,1.2334,1.2942,1.3512,1.3997,1.4088,1.4088,1.4088,1.4035,1.3888,1.3581,1.328,1.2953,1.2522,1.2331,1.2351,1.2305,1.2305,1.2305,1.2305,1.2305,1.2305,1.2305,1.2305,1.2305,1.2305,1.2187,1.1805,1.1087,1.0634,1.0415,1.0147,0.9253,0.8466,0.7825,0.6872,0.6374,0.63,0.63,0.63,0.63,0.6289,0.6297,0.6558,0.708,0.7781,0.8204,0.8371,0.8846,0.9649,1.0082,0.998,0.9694,0.9049,0.8263,0.7269,0.6334,0.6005,0.5679,0.5521,0.5409,0.5395,0.5395,0.5458,0.5491,0.5524,0.5395,0.5395,0.5395,0.5425,0.5491,0.5524,0.5491,0.5458,0.5428,0.5395,0.5395,0.5395,0.5395,0.5395,0.5395,0.5395,0.5395,0.5361,0.5306,0.5067,0.4877,0.4738,0.4638,0.4525,0.4519,0.4491,0.4491,0.4491,0.4491,0.4491,0.4491,1.4088,1.4088,1.4088,1.4088,1.4088,1.4088,1.4088,1.3652,1.1606,1.0567,1.0308,0.8925,0.7709,0.7316,0.7625,0.8404,0.941,0.971,1.1391,1.2553,1.2589,1.316,1.3646,1.4088,1.4088,1.4082,1.4062,1.3861,1.344,1.336,1.3133,1.2579,1.2478,1.2418,1.2345,1.2305,1.2305,1.2305,1.2305,1.2305,1.2305,1.2305,1.2305,1.2305,1.215,1.1842,1.1576,1.1199,1.1124,1.105,1.0453,0.9026,0.8161,0.7326,0.6756,0.6451,0.63,0.63,0.6335,0.6398,0.6563,0.7019,0.7794,0.8723,0.9706,0.9961,1.0444,1.1162,1.1269,1.1242,1.0586,0.9931,0.8853,0.7821,0.7094,0.6586,0.5996,0.5501,0.5426,0.5395,0.5653,0.6141,0.6301,0.6761,0.6695,0.6793,0.6597,0.6141,0.6075,0.5914,0.5785,0.5591,0.5591,0.5458,0.5395,0.5395,0.5395,0.5395,0.5395,0.5395,0.5395,0.5388,0.5324,0.5098,0.4931,0.4806,0.4709,0.4563,0.4494,0.4491,0.4491,0.4491,0.4491,0.4491,0.4491,1.3997,1.3864,1.3822,1.3864,1.3864,1.387,1.3955,1.3737,1.1826,1.0864,1.0567,0.8488,0.7401,0.7536,0.8364,0.9405,1.0096,1.0183,1.1826,1.2814,1.2638,1.3203,1.3688,1.4088,1.4088,1.4088,1.4075,1.3888,1.356,1.3447,1.322,1.2871,1.2697,1.2589,1.2378,1.2305,1.2305,1.2305,1.2305,1.2305,1.2305,1.2305,1.2305,1.2305,1.2305,1.2305,1.1996,1.1768,1.1613,1.1428,1.1205,1.004,0.895,0.8237,0.7399,0.7019,0.7061,0.6945,0.6756,0.6945,0.7357,0.7961,0.8917,0.9852,1.076,1.1347,1.1837,1.2045,1.2158,1.1977,1.131,1.0596,0.9465,0.8637,0.7991,0.7227,0.6468,0.5845,0.5764,0.5714,0.6121,0.6705,0.7186,0.7642,0.7864,0.7994,0.7859,0.747,0.7079,0.6822,0.6597,0.6239,0.5947,0.5785,0.5491,0.5395,0.5395,0.5395,0.5395,0.5395,0.5392,0.5388,0.533,0.5155,0.4968,0.4853,0.4704,0.4586,0.4535,0.4491,0.4491,0.4491,0.4491,0.4491,0.4491,1.3512,1.2638,1.2632,1.2632,1.2632,1.2638,1.3209,1.3779,1.2595,1.198,1.1338,0.9618,0.8105,0.7183,0.8364,0.9362,1.0053,1.0486,1.13,1.2291,1.2462,1.316,1.3773,1.4088,1.4088,1.4088,1.4062,1.3915,1.3686,1.3467,1.3146,1.2837,1.2529,1.2435,1.2358,1.2325,1.2351,1.2358,1.2351,1.2351,1.2311,1.2305,1.2305,1.2305,1.2305,1.2305,1.2194,1.215,1.215,1.1959,1.1471,1.0677,1.0002,0.9291,0.8499,0.7931,0.7974,0.7931,0.7821,0.8046,0.8537,0.895,0.982,1.0415,1.1193,1.1718,1.2035,1.2188,1.2254,1.2254,1.1737,1.1162,1.0248,0.9809,0.9243,0.821,0.7301,0.7024,0.6892,0.6851,0.6924,0.7445,0.7872,0.8165,0.8279,0.8404,0.8382,0.8021,0.7892,0.7637,0.7442,0.6953,0.6498,0.5914,0.5557,0.5428,0.5395,0.5395,0.5395,0.5395,0.5395,0.5395,0.532,0.5196,0.5005,0.487,0.4724,0.4627,0.4535,0.4491,0.4491,0.4491,0.4491,0.4491,0.4491]}]]